<?xml version="1.0" encoding="UTF-8" standalone="no" ?><gpx xmlns="http://www.topografix.com/GPX/1/1" xmlns:gpxx="http://www.garmin.com/xmlschemas/GpxExtensions/v3" xmlns:wptx1="http://www.garmin.com/xmlschemas/WaypointExtension/v1" xmlns:gpxtpx="http://www.garmin.com/xmlschemas/TrackPointExtension/v1" creator="GuideVTT.com" version="1.1" xmlns:xsi="http://www.w3.org/2001/XMLSchema-instance" xsi:schemaLocation="http://www.topografix.com/GPX/1/1 http://www.topografix.com/GPX/1/1/gpx.xsd http://www.garmin.com/xmlschemas/GpxExtensions/v3 http://www8.garmin.com/xmlschemas/GpxExtensionsv3.xsd http://www.garmin.com/xmlschemas/WaypointExtension/v1 http://www8.garmin.com/xmlschemas/WaypointExtensionv1.xsd http://www.garmin.com/xmlschemas/TrackPointExtension/v1 http://www.garmin.com/xmlschemas/TrackPointExtensionv1.xsd">
<metadata><link href="http://www.garmin.com"><text>Garmin International</text></link><time>2013-06-22T15:13:50Z</time></metadata>
<trk><name>conthey_-_derborence.gpx</name><extensions><gpxx:TrackExtension><gpxx:DisplayColor>Cyan</gpxx:DisplayColor></gpxx:TrackExtension></extensions><trkseg>
<trkpt lat="46.2341117858887" lon="7.31035900115967"><ele></ele><time>2013-8-5T22:41:47Z</time></trkpt>
<trkpt lat="46.2341575622559" lon="7.3103518486023"><ele></ele><time>2013-8-5T22:41:50Z</time></trkpt>
<trkpt lat="46.2342414855957" lon="7.31032657623291"><ele></ele><time>2013-8-5T22:41:53Z</time></trkpt>
<trkpt lat="46.2342796325684" lon="7.31031274795532"><ele></ele><time>2013-8-5T22:41:56Z</time></trkpt>
<trkpt lat="46.2343902587891" lon="7.3102536201477"><ele></ele><time>2013-8-5T22:41:59Z</time></trkpt>
<trkpt lat="46.2346076965332" lon="7.3100323677063"><ele></ele><time>2013-8-5T22:42:2Z</time></trkpt>
<trkpt lat="46.2346572875977" lon="7.309889793396"><ele></ele><time>2013-8-5T22:42:5Z</time></trkpt>
<trkpt lat="46.2346687316894" lon="7.30983829498291"><ele></ele><time>2013-8-5T22:42:8Z</time></trkpt>
<trkpt lat="46.2346839904785" lon="7.30978202819824"><ele></ele><time>2013-8-5T22:42:11Z</time></trkpt>
<trkpt lat="46.234691619873" lon="7.30973100662232"><ele></ele><time>2013-8-5T22:42:14Z</time></trkpt>
<trkpt lat="46.2346954345703" lon="7.30967855453491"><ele></ele><time>2013-8-5T22:42:17Z</time></trkpt>
<trkpt lat="46.2346839904785" lon="7.30947542190552"><ele></ele><time>2013-8-5T22:42:20Z</time></trkpt>
<trkpt lat="46.2346153259277" lon="7.30921936035156"><ele></ele><time>2013-8-5T22:42:23Z</time></trkpt>
<trkpt lat="46.2345962524414" lon="7.30918550491333"><ele></ele><time>2013-8-5T22:42:26Z</time></trkpt>
<trkpt lat="46.2345733642578" lon="7.30915594100952"><ele></ele><time>2013-8-5T22:42:29Z</time></trkpt>
<trkpt lat="46.2345542907715" lon="7.3091311454773"><ele></ele><time>2013-8-5T22:42:32Z</time></trkpt>
<trkpt lat="46.2345314025879" lon="7.30909538269043"><ele></ele><time>2013-8-5T22:42:35Z</time></trkpt>
<trkpt lat="46.2344703674316" lon="7.30904197692871"><ele></ele><time>2013-8-5T22:42:38Z</time></trkpt>
<trkpt lat="46.2343368530273" lon="7.30894184112549"><ele></ele><time>2013-8-5T22:42:41Z</time></trkpt>
<trkpt lat="46.2343139648438" lon="7.30893182754517"><ele></ele><time>2013-8-5T22:42:44Z</time></trkpt>
<trkpt lat="46.234260559082" lon="7.30890560150146"><ele></ele><time>2013-8-5T22:42:47Z</time></trkpt>
<trkpt lat="46.2341384887695" lon="7.30886077880859"><ele></ele><time>2013-8-5T22:42:50Z</time></trkpt>
<trkpt lat="46.2341079711914" lon="7.30885648727417"><ele></ele><time>2013-8-5T22:42:53Z</time></trkpt>
<trkpt lat="46.2340545654297" lon="7.30883455276489"><ele></ele><time>2013-8-5T22:42:56Z</time></trkpt>
<trkpt lat="46.2340240478516" lon="7.3088207244873"><ele></ele><time>2013-8-5T22:42:59Z</time></trkpt>
<trkpt lat="46.2339897155762" lon="7.30880069732666"><ele></ele><time>2013-8-5T22:43:2Z</time></trkpt>
<trkpt lat="46.2339630126953" lon="7.30878067016602"><ele></ele><time>2013-8-5T22:43:5Z</time></trkpt>
<trkpt lat="46.2339401245117" lon="7.30876398086548"><ele></ele><time>2013-8-5T22:43:8Z</time></trkpt>
<trkpt lat="46.23388671875" lon="7.30872678756714"><ele></ele><time>2013-8-5T22:43:11Z</time></trkpt>
<trkpt lat="46.2338485717773" lon="7.30871391296387"><ele></ele><time>2013-8-5T22:43:14Z</time></trkpt>
<trkpt lat="46.2338256835938" lon="7.30870008468628"><ele></ele><time>2013-8-5T22:43:17Z</time></trkpt>
<trkpt lat="46.2337989807129" lon="7.30869054794312"><ele></ele><time>2013-8-5T22:43:20Z</time></trkpt>
<trkpt lat="46.2337646484375" lon="7.30867147445679"><ele></ele><time>2013-8-5T22:43:23Z</time></trkpt>
<trkpt lat="46.2336845397949" lon="7.30859756469726"><ele></ele><time>2013-8-5T22:43:26Z</time></trkpt>
<trkpt lat="46.2336616516113" lon="7.30857610702515"><ele></ele><time>2013-8-5T22:43:29Z</time></trkpt>
<trkpt lat="46.2336387634277" lon="7.30855464935303"><ele></ele><time>2013-8-5T22:43:32Z</time></trkpt>
<trkpt lat="46.2336196899414" lon="7.30853223800659"><ele></ele><time>2013-8-5T22:43:35Z</time></trkpt>
<trkpt lat="46.2336006164551" lon="7.30850744247436"><ele></ele><time>2013-8-5T22:43:38Z</time></trkpt>
<trkpt lat="46.2335243225098" lon="7.30841779708862"><ele></ele><time>2013-8-5T22:43:41Z</time></trkpt>
<trkpt lat="46.2335014343262" lon="7.30839347839356"><ele></ele><time>2013-8-5T22:43:44Z</time></trkpt>
<trkpt lat="46.2334823608398" lon="7.30837106704712"><ele></ele><time>2013-8-5T22:43:47Z</time></trkpt>
<trkpt lat="46.2334671020508" lon="7.30834579467774"><ele></ele><time>2013-8-5T22:43:50Z</time></trkpt>
<trkpt lat="46.2334518432617" lon="7.30831336975098"><ele></ele><time>2013-8-5T22:43:53Z</time></trkpt>
<trkpt lat="46.2333717346191" lon="7.30815935134888"><ele></ele><time>2013-8-5T22:43:56Z</time></trkpt>
<trkpt lat="46.2333564758301" lon="7.30813026428223"><ele></ele><time>2013-8-5T22:43:59Z</time></trkpt>
<trkpt lat="46.233341217041" lon="7.30810070037842"><ele></ele><time>2013-8-5T22:44:2Z</time></trkpt>
<trkpt lat="46.233325958252" lon="7.30807018280029"><ele></ele><time>2013-8-5T22:44:5Z</time></trkpt>
<trkpt lat="46.2333145141602" lon="7.30803298950195"><ele></ele><time>2013-8-5T22:44:8Z</time></trkpt>
<trkpt lat="46.2332763671875" lon="7.30794048309326"><ele></ele><time>2013-8-5T22:44:11Z</time></trkpt>
<trkpt lat="46.2332649230957" lon="7.30790901184082"><ele></ele><time>2013-8-5T22:44:14Z</time></trkpt>
<trkpt lat="46.2332572937012" lon="7.30787944793701"><ele></ele><time>2013-8-5T22:44:17Z</time></trkpt>
<trkpt lat="46.2332496643066" lon="7.30784940719604"><ele></ele><time>2013-8-5T22:44:20Z</time></trkpt>
<trkpt lat="46.2332420349121" lon="7.3078179359436"><ele></ele><time>2013-8-5T22:44:23Z</time></trkpt>
<trkpt lat="46.2332344055176" lon="7.30778932571411"><ele></ele><time>2013-8-5T22:44:26Z</time></trkpt>
<trkpt lat="46.2331924438477" lon="7.30763530731201"><ele></ele><time>2013-8-5T22:44:29Z</time></trkpt>
<trkpt lat="46.2331809997559" lon="7.3076024055481"><ele></ele><time>2013-8-5T22:44:32Z</time></trkpt>
<trkpt lat="46.2331733703613" lon="7.3075737953186"><ele></ele><time>2013-8-5T22:44:35Z</time></trkpt>
<trkpt lat="46.2331619262695" lon="7.30754661560059"><ele></ele><time>2013-8-5T22:44:38Z</time></trkpt>
<trkpt lat="46.2331581115723" lon="7.30751466751099"><ele></ele><time>2013-8-5T22:44:41Z</time></trkpt>
<trkpt lat="46.2331237792969" lon="7.30736446380615"><ele></ele><time>2013-8-5T22:44:44Z</time></trkpt>
<trkpt lat="46.2331161499023" lon="7.30733680725098"><ele></ele><time>2013-8-5T22:44:47Z</time></trkpt>
<trkpt lat="46.2331085205078" lon="7.3073091506958"><ele></ele><time>2013-8-5T22:44:50Z</time></trkpt>
<trkpt lat="46.2331008911133" lon="7.30727529525757"><ele></ele><time>2013-8-5T22:44:53Z</time></trkpt>
<trkpt lat="46.2330932617188" lon="7.30724573135376"><ele></ele><time>2013-8-5T22:44:56Z</time></trkpt>
<trkpt lat="46.2330474853516" lon="7.30712080001831"><ele></ele><time>2013-8-5T22:44:59Z</time></trkpt>
<trkpt lat="46.2330093383789" lon="7.30703353881836"><ele></ele><time>2013-8-5T22:45:2Z</time></trkpt>
<trkpt lat="46.2329978942871" lon="7.30701017379761"><ele></ele><time>2013-8-5T22:45:5Z</time></trkpt>
<trkpt lat="46.2329940795898" lon="7.3069863319397"><ele></ele><time>2013-8-5T22:45:8Z</time></trkpt>
<trkpt lat="46.232982635498" lon="7.30695533752441"><ele></ele><time>2013-8-5T22:45:11Z</time></trkpt>
<trkpt lat="46.2329711914062" lon="7.30692863464356"><ele></ele><time>2013-8-5T22:45:14Z</time></trkpt>
<trkpt lat="46.2329597473144" lon="7.30690240859985"><ele></ele><time>2013-8-5T22:45:17Z</time></trkpt>
<trkpt lat="46.2329139709473" lon="7.30678701400757"><ele></ele><time>2013-8-5T22:45:20Z</time></trkpt>
<trkpt lat="46.2328987121582" lon="7.30675983428955"><ele></ele><time>2013-8-5T22:45:23Z</time></trkpt>
<trkpt lat="46.2328834533691" lon="7.30673217773438"><ele></ele><time>2013-8-5T22:45:26Z</time></trkpt>
<trkpt lat="46.2328720092773" lon="7.30670404434204"><ele></ele><time>2013-8-5T22:45:29Z</time></trkpt>
<trkpt lat="46.232852935791" lon="7.30664014816284"><ele></ele><time>2013-8-5T22:45:32Z</time></trkpt>
<trkpt lat="46.2328186035156" lon="7.30657386779785"><ele></ele><time>2013-8-5T22:45:35Z</time></trkpt>
<trkpt lat="46.2328071594238" lon="7.30654573440552"><ele></ele><time>2013-8-5T22:45:38Z</time></trkpt>
<trkpt lat="46.232795715332" lon="7.30651378631592"><ele></ele><time>2013-8-5T22:45:41Z</time></trkpt>
<trkpt lat="46.232780456543" lon="7.30648231506348"><ele></ele><time>2013-8-5T22:45:44Z</time></trkpt>
<trkpt lat="46.2327728271484" lon="7.30644941329956"><ele></ele><time>2013-8-5T22:45:47Z</time></trkpt>
<trkpt lat="46.232723236084" lon="7.3063178062439"><ele></ele><time>2013-8-5T22:45:50Z</time></trkpt>
<trkpt lat="46.2327156066894" lon="7.30628299713135"><ele></ele><time>2013-8-5T22:45:53Z</time></trkpt>
<trkpt lat="46.2327079772949" lon="7.30624866485596"><ele></ele><time>2013-8-5T22:45:56Z</time></trkpt>
<trkpt lat="46.2327003479004" lon="7.30621194839478"><ele></ele><time>2013-8-5T22:45:59Z</time></trkpt>
<trkpt lat="46.2326927185059" lon="7.30617427825928"><ele></ele><time>2013-8-5T22:46:2Z</time></trkpt>
<trkpt lat="46.2326431274414" lon="7.30592584609985"><ele></ele><time>2013-8-5T22:46:5Z</time></trkpt>
<trkpt lat="46.2326431274414" lon="7.30589246749878"><ele></ele><time>2013-8-5T22:46:8Z</time></trkpt>
<trkpt lat="46.2326393127441" lon="7.30585241317749"><ele></ele><time>2013-8-5T22:46:11Z</time></trkpt>
<trkpt lat="46.2326354980469" lon="7.30581426620483"><ele></ele><time>2013-8-5T22:46:14Z</time></trkpt>
<trkpt lat="46.2326316833496" lon="7.30577278137207"><ele></ele><time>2013-8-5T22:46:17Z</time></trkpt>
<trkpt lat="46.2326354980469" lon="7.30562448501587"><ele></ele><time>2013-8-5T22:46:20Z</time></trkpt>
<trkpt lat="46.2326316833496" lon="7.3055853843689"><ele></ele><time>2013-8-5T22:46:23Z</time></trkpt>
<trkpt lat="46.2326316833496" lon="7.30554866790772"><ele></ele><time>2013-8-5T22:46:26Z</time></trkpt>
<trkpt lat="46.2326316833496" lon="7.30551242828369"><ele></ele><time>2013-8-5T22:46:29Z</time></trkpt>
<trkpt lat="46.2326316833496" lon="7.3054780960083"><ele></ele><time>2013-8-5T22:46:32Z</time></trkpt>
<trkpt lat="46.2326431274414" lon="7.30533266067505"><ele></ele><time>2013-8-5T22:46:35Z</time></trkpt>
<trkpt lat="46.232666015625" lon="7.30505037307739"><ele></ele><time>2013-8-5T22:46:38Z</time></trkpt>
<trkpt lat="46.232666015625" lon="7.30501937866211"><ele></ele><time>2013-8-5T22:46:41Z</time></trkpt>
<trkpt lat="46.2326698303223" lon="7.30498600006104"><ele></ele><time>2013-8-5T22:46:44Z</time></trkpt>
<trkpt lat="46.2326736450195" lon="7.30495166778564"><ele></ele><time>2013-8-5T22:46:47Z</time></trkpt>
<trkpt lat="46.2327003479004" lon="7.30474281311035"><ele></ele><time>2013-8-5T22:46:50Z</time></trkpt>
<trkpt lat="46.2327003479004" lon="7.30470705032349"><ele></ele><time>2013-8-5T22:46:53Z</time></trkpt>
<trkpt lat="46.2327079772949" lon="7.30467319488525"><ele></ele><time>2013-8-5T22:46:56Z</time></trkpt>
<trkpt lat="46.2327117919922" lon="7.30463886260986"><ele></ele><time>2013-8-5T22:46:59Z</time></trkpt>
<trkpt lat="46.2327156066894" lon="7.30460357666016"><ele></ele><time>2013-8-5T22:47:2Z</time></trkpt>
<trkpt lat="46.2327156066894" lon="7.30439186096191"><ele></ele><time>2013-8-5T22:47:5Z</time></trkpt>
<trkpt lat="46.2327117919922" lon="7.30436086654663"><ele></ele><time>2013-8-5T22:47:8Z</time></trkpt>
<trkpt lat="46.2327079772949" lon="7.30432558059692"><ele></ele><time>2013-8-5T22:47:11Z</time></trkpt>
<trkpt lat="46.2327041625977" lon="7.30429172515869"><ele></ele><time>2013-8-5T22:47:14Z</time></trkpt>
<trkpt lat="46.2327003479004" lon="7.30425786972046"><ele></ele><time>2013-8-5T22:47:17Z</time></trkpt>
<trkpt lat="46.2326736450195" lon="7.30408143997192"><ele></ele><time>2013-8-5T22:47:20Z</time></trkpt>
<trkpt lat="46.232666015625" lon="7.30404472351074"><ele></ele><time>2013-8-5T22:47:23Z</time></trkpt>
<trkpt lat="46.232666015625" lon="7.30400705337524"><ele></ele><time>2013-8-5T22:47:26Z</time></trkpt>
<trkpt lat="46.2326583862305" lon="7.30397415161133"><ele></ele><time>2013-8-5T22:47:29Z</time></trkpt>
<trkpt lat="46.2326545715332" lon="7.30394411087036"><ele></ele><time>2013-8-5T22:47:32Z</time></trkpt>
<trkpt lat="46.2326316833496" lon="7.30382442474365"><ele></ele><time>2013-8-5T22:47:35Z</time></trkpt>
<trkpt lat="46.2326240539551" lon="7.30378150939941"><ele></ele><time>2013-8-5T22:47:38Z</time></trkpt>
<trkpt lat="46.2326164245606" lon="7.30374240875244"><ele></ele><time>2013-8-5T22:47:41Z</time></trkpt>
<trkpt lat="46.2326126098633" lon="7.30370616912842"><ele></ele><time>2013-8-5T22:47:44Z</time></trkpt>
<trkpt lat="46.232608795166" lon="7.30367136001587"><ele></ele><time>2013-8-5T22:47:47Z</time></trkpt>
<trkpt lat="46.2325973510742" lon="7.30360412597656"><ele></ele><time>2013-8-5T22:47:50Z</time></trkpt>
<trkpt lat="46.2325897216797" lon="7.30352544784546"><ele></ele><time>2013-8-5T22:47:53Z</time></trkpt>
<trkpt lat="46.2325859069824" lon="7.30348920822144"><ele></ele><time>2013-8-5T22:47:56Z</time></trkpt>
<trkpt lat="46.2325859069824" lon="7.30345773696899"><ele></ele><time>2013-8-5T22:47:59Z</time></trkpt>
<trkpt lat="46.2325859069824" lon="7.30342626571655"><ele></ele><time>2013-8-5T22:48:2Z</time></trkpt>
<trkpt lat="46.232593536377" lon="7.30338525772095"><ele></ele><time>2013-8-5T22:48:5Z</time></trkpt>
<trkpt lat="46.232593536377" lon="7.30334234237671"><ele></ele><time>2013-8-5T22:48:8Z</time></trkpt>
<trkpt lat="46.2325782775879" lon="7.30305480957031"><ele></ele><time>2013-8-5T22:48:11Z</time></trkpt>
<trkpt lat="46.2325744628906" lon="7.30289506912232"><ele></ele><time>2013-8-5T22:48:14Z</time></trkpt>
<trkpt lat="46.2325706481934" lon="7.30284786224365"><ele></ele><time>2013-8-5T22:48:17Z</time></trkpt>
<trkpt lat="46.2325706481934" lon="7.30280494689941"><ele></ele><time>2013-8-5T22:48:20Z</time></trkpt>
<trkpt lat="46.2325706481934" lon="7.30275774002075"><ele></ele><time>2013-8-5T22:48:23Z</time></trkpt>
<trkpt lat="46.2325744628906" lon="7.30270671844482"><ele></ele><time>2013-8-5T22:48:26Z</time></trkpt>
<trkpt lat="46.2325820922852" lon="7.3026556968689"><ele></ele><time>2013-8-5T22:48:29Z</time></trkpt>
<trkpt lat="46.2325859069824" lon="7.30261278152466"><ele></ele><time>2013-8-5T22:48:32Z</time></trkpt>
<trkpt lat="46.2326698303223" lon="7.30237007141113"><ele></ele><time>2013-8-5T22:48:35Z</time></trkpt>
<trkpt lat="46.2328224182129" lon="7.30223608016968"><ele></ele><time>2013-8-5T22:48:38Z</time></trkpt>
<trkpt lat="46.2328491210938" lon="7.30221796035767"><ele></ele><time>2013-8-5T22:48:41Z</time></trkpt>
<trkpt lat="46.2328796386719" lon="7.30221271514893"><ele></ele><time>2013-8-5T22:48:44Z</time></trkpt>
<trkpt lat="46.2329063415527" lon="7.30221128463745"><ele></ele><time>2013-8-5T22:48:47Z</time></trkpt>
<trkpt lat="46.2329330444336" lon="7.30220603942871"><ele></ele><time>2013-8-5T22:48:50Z</time></trkpt>
<trkpt lat="46.2329597473144" lon="7.30220794677734"><ele></ele><time>2013-8-5T22:48:53Z</time></trkpt>
<trkpt lat="46.2329902648926" lon="7.30222225189209"><ele></ele><time>2013-8-5T22:48:56Z</time></trkpt>
<trkpt lat="46.2331466674805" lon="7.30237579345703"><ele></ele><time>2013-8-5T22:48:59Z</time></trkpt>
<trkpt lat="46.2331657409668" lon="7.302405834198"><ele></ele><time>2013-8-5T22:49:2Z</time></trkpt>
<trkpt lat="46.2331809997559" lon="7.30243253707886"><ele></ele><time>2013-8-5T22:49:5Z</time></trkpt>
<trkpt lat="46.2331962585449" lon="7.30246543884277"><ele></ele><time>2013-8-5T22:49:8Z</time></trkpt>
<trkpt lat="46.2332153320312" lon="7.30249404907226"><ele></ele><time>2013-8-5T22:49:11Z</time></trkpt>
<trkpt lat="46.2332725524902" lon="7.30260801315308"><ele></ele><time>2013-8-5T22:49:14Z</time></trkpt>
<trkpt lat="46.233283996582" lon="7.30264091491699"><ele></ele><time>2013-8-5T22:49:17Z</time></trkpt>
<trkpt lat="46.2332992553711" lon="7.30267095565796"><ele></ele><time>2013-8-5T22:49:20Z</time></trkpt>
<trkpt lat="46.2333106994629" lon="7.30270147323608"><ele></ele><time>2013-8-5T22:49:23Z</time></trkpt>
<trkpt lat="46.2333221435547" lon="7.30273342132568"><ele></ele><time>2013-8-5T22:49:26Z</time></trkpt>
<trkpt lat="46.2333679199219" lon="7.30285692214966"><ele></ele><time>2013-8-5T22:49:29Z</time></trkpt>
<trkpt lat="46.2334480285644" lon="7.3030595779419"><ele></ele><time>2013-8-5T22:49:32Z</time></trkpt>
<trkpt lat="46.2334594726562" lon="7.30309104919434"><ele></ele><time>2013-8-5T22:49:35Z</time></trkpt>
<trkpt lat="46.2334747314453" lon="7.30312824249268"><ele></ele><time>2013-8-5T22:49:38Z</time></trkpt>
<trkpt lat="46.2334899902344" lon="7.30315113067627"><ele></ele><time>2013-8-5T22:49:41Z</time></trkpt>
<trkpt lat="46.2335052490234" lon="7.30318784713745"><ele></ele><time>2013-8-5T22:49:44Z</time></trkpt>
<trkpt lat="46.2335205078125" lon="7.30322122573852"><ele></ele><time>2013-8-5T22:49:47Z</time></trkpt>
<trkpt lat="46.2335357666016" lon="7.30325794219971"><ele></ele><time>2013-8-5T22:49:50Z</time></trkpt>
<trkpt lat="46.2335510253906" lon="7.30329418182373"><ele></ele><time>2013-8-5T22:49:53Z</time></trkpt>
<trkpt lat="46.2335624694824" lon="7.30332565307617"><ele></ele><time>2013-8-5T22:49:56Z</time></trkpt>
<trkpt lat="46.2335777282715" lon="7.30336236953735"><ele></ele><time>2013-8-5T22:49:59Z</time></trkpt>
<trkpt lat="46.2336196899414" lon="7.30348968505859"><ele></ele><time>2013-8-5T22:50:2Z</time></trkpt>
<trkpt lat="46.2336463928223" lon="7.30358695983887"><ele></ele><time>2013-8-5T22:50:5Z</time></trkpt>
<trkpt lat="46.2336730957031" lon="7.30364990234375"><ele></ele><time>2013-8-5T22:50:8Z</time></trkpt>
<trkpt lat="46.2336807250977" lon="7.30367994308472"><ele></ele><time>2013-8-5T22:50:11Z</time></trkpt>
<trkpt lat="46.2336921691894" lon="7.30371236801148"><ele></ele><time>2013-8-5T22:50:14Z</time></trkpt>
<trkpt lat="46.233699798584" lon="7.30374336242676"><ele></ele><time>2013-8-5T22:50:17Z</time></trkpt>
<trkpt lat="46.2337112426758" lon="7.30377244949341"><ele></ele><time>2013-8-5T22:50:20Z</time></trkpt>
<trkpt lat="46.2337188720703" lon="7.30380487442017"><ele></ele><time>2013-8-5T22:50:23Z</time></trkpt>
<trkpt lat="46.2337303161621" lon="7.30383634567261"><ele></ele><time>2013-8-5T22:50:26Z</time></trkpt>
<trkpt lat="46.2337379455566" lon="7.30386638641357"><ele></ele><time>2013-8-5T22:50:29Z</time></trkpt>
<trkpt lat="46.2337493896484" lon="7.30390310287476"><ele></ele><time>2013-8-5T22:50:32Z</time></trkpt>
<trkpt lat="46.233757019043" lon="7.30393934249878"><ele></ele><time>2013-8-5T22:50:35Z</time></trkpt>
<trkpt lat="46.233829498291" lon="7.30408620834351"><ele></ele><time>2013-8-5T22:50:38Z</time></trkpt>
<trkpt lat="46.2338600158691" lon="7.30414438247681"><ele></ele><time>2013-8-5T22:50:41Z</time></trkpt>
<trkpt lat="46.2338714599609" lon="7.30417394638062"><ele></ele><time>2013-8-5T22:50:44Z</time></trkpt>
<trkpt lat="46.2338829040527" lon="7.3042049407959"><ele></ele><time>2013-8-5T22:50:47Z</time></trkpt>
<trkpt lat="46.2338981628418" lon="7.3042368888855"><ele></ele><time>2013-8-5T22:50:50Z</time></trkpt>
<trkpt lat="46.2339096069336" lon="7.30427074432373"><ele></ele><time>2013-8-5T22:50:53Z</time></trkpt>
<trkpt lat="46.2339248657227" lon="7.30430221557617"><ele></ele><time>2013-8-5T22:50:56Z</time></trkpt>
<trkpt lat="46.2339973449707" lon="7.30447244644165"><ele></ele><time>2013-8-5T22:50:59Z</time></trkpt>
<trkpt lat="46.2340126037598" lon="7.30450439453125"><ele></ele><time>2013-8-5T22:51:2Z</time></trkpt>
<trkpt lat="46.2340278625488" lon="7.30453443527222"><ele></ele><time>2013-8-5T22:51:5Z</time></trkpt>
<trkpt lat="46.2340393066406" lon="7.3045654296875"><ele></ele><time>2013-8-5T22:51:8Z</time></trkpt>
<trkpt lat="46.2340545654297" lon="7.30459070205688"><ele></ele><time>2013-8-5T22:51:11Z</time></trkpt>
<trkpt lat="46.2341384887695" lon="7.30471086502075"><ele></ele><time>2013-8-5T22:51:14Z</time></trkpt>
<trkpt lat="46.2341728210449" lon="7.30475473403931"><ele></ele><time>2013-8-5T22:51:17Z</time></trkpt>
<trkpt lat="46.2341918945312" lon="7.30477476119995"><ele></ele><time>2013-8-5T22:51:20Z</time></trkpt>
<trkpt lat="46.2342071533203" lon="7.30480051040649"><ele></ele><time>2013-8-5T22:51:23Z</time></trkpt>
<trkpt lat="46.2342262268066" lon="7.3048243522644"><ele></ele><time>2013-8-5T22:51:26Z</time></trkpt>
<trkpt lat="46.234245300293" lon="7.30484676361084"><ele></ele><time>2013-8-5T22:51:29Z</time></trkpt>
<trkpt lat="46.2343139648438" lon="7.30490493774414"><ele></ele><time>2013-8-5T22:51:32Z</time></trkpt>
<trkpt lat="46.2344055175781" lon="7.30497598648071"><ele></ele><time>2013-8-5T22:51:35Z</time></trkpt>
<trkpt lat="46.2344589233398" lon="7.30500364303589"><ele></ele><time>2013-8-5T22:51:38Z</time></trkpt>
<trkpt lat="46.234489440918" lon="7.30501699447632"><ele></ele><time>2013-8-5T22:51:41Z</time></trkpt>
<trkpt lat="46.2345161437988" lon="7.30502653121948"><ele></ele><time>2013-8-5T22:51:44Z</time></trkpt>
<trkpt lat="46.2345428466797" lon="7.30503845214844"><ele></ele><time>2013-8-5T22:51:47Z</time></trkpt>
<trkpt lat="46.2345657348633" lon="7.30503988265991"><ele></ele><time>2013-8-5T22:51:50Z</time></trkpt>
<trkpt lat="46.2347030639648" lon="7.30506563186646"><ele></ele><time>2013-8-5T22:51:53Z</time></trkpt>
<trkpt lat="46.2348442077637" lon="7.30506277084351"><ele></ele><time>2013-8-5T22:51:56Z</time></trkpt>
<trkpt lat="46.2349052429199" lon="7.3050365447998"><ele></ele><time>2013-8-5T22:51:59Z</time></trkpt>
<trkpt lat="46.2350044250488" lon="7.30498886108398"><ele></ele><time>2013-8-5T22:52:2Z</time></trkpt>
<trkpt lat="46.2351226806641" lon="7.30493497848511"><ele></ele><time>2013-8-5T22:52:5Z</time></trkpt>
<trkpt lat="46.235179901123" lon="7.3049054145813"><ele></ele><time>2013-8-5T22:52:8Z</time></trkpt>
<trkpt lat="46.2352066040039" lon="7.30488443374634"><ele></ele><time>2013-8-5T22:52:11Z</time></trkpt>
<trkpt lat="46.2352333068848" lon="7.30486440658569"><ele></ele><time>2013-8-5T22:52:14Z</time></trkpt>
<trkpt lat="46.2352600097656" lon="7.30484628677368"><ele></ele><time>2013-8-5T22:52:17Z</time></trkpt>
<trkpt lat="46.2352867126465" lon="7.30482912063599"><ele></ele><time>2013-8-5T22:52:20Z</time></trkpt>
<trkpt lat="46.2353706359863" lon="7.30478382110596"><ele></ele><time>2013-8-5T22:52:23Z</time></trkpt>
<trkpt lat="46.235523223877" lon="7.30469608306885"><ele></ele><time>2013-8-5T22:52:26Z</time></trkpt>
<trkpt lat="46.2355461120606" lon="7.30467987060547"><ele></ele><time>2013-8-5T22:52:29Z</time></trkpt>
<trkpt lat="46.2355728149414" lon="7.30466604232788"><ele></ele><time>2013-8-5T22:52:32Z</time></trkpt>
<trkpt lat="46.2355995178223" lon="7.3046498298645"><ele></ele><time>2013-8-5T22:52:35Z</time></trkpt>
<trkpt lat="46.2356224060059" lon="7.30463409423828"><ele></ele><time>2013-8-5T22:52:38Z</time></trkpt>
<trkpt lat="46.235767364502" lon="7.30454063415527"><ele></ele><time>2013-8-5T22:52:41Z</time></trkpt>
<trkpt lat="46.2357940673828" lon="7.30452489852905"><ele></ele><time>2013-8-5T22:52:44Z</time></trkpt>
<trkpt lat="46.2358207702637" lon="7.30450963973999"><ele></ele><time>2013-8-5T22:52:47Z</time></trkpt>
<trkpt lat="46.2358474731445" lon="7.30450105667114"><ele></ele><time>2013-8-5T22:52:50Z</time></trkpt>
<trkpt lat="46.2358703613281" lon="7.3044843673706"><ele></ele><time>2013-8-5T22:52:53Z</time></trkpt>
<trkpt lat="46.2359733581543" lon="7.3044376373291"><ele></ele><time>2013-8-5T22:52:56Z</time></trkpt>
<trkpt lat="46.2360763549805" lon="7.30440807342529"><ele></ele><time>2013-8-5T22:52:59Z</time></trkpt>
<trkpt lat="46.2360992431641" lon="7.3043999671936"><ele></ele><time>2013-8-5T22:53:2Z</time></trkpt>
<trkpt lat="46.2361259460449" lon="7.30439472198486"><ele></ele><time>2013-8-5T22:53:5Z</time></trkpt>
<trkpt lat="46.2361488342285" lon="7.30438804626465"><ele></ele><time>2013-8-5T22:53:8Z</time></trkpt>
<trkpt lat="46.2361755371094" lon="7.30438804626465"><ele></ele><time>2013-8-5T22:53:11Z</time></trkpt>
<trkpt lat="46.236270904541" lon="7.30439043045044"><ele></ele><time>2013-8-5T22:53:14Z</time></trkpt>
<trkpt lat="46.2362937927246" lon="7.30439472198486"><ele></ele><time>2013-8-5T22:53:17Z</time></trkpt>
<trkpt lat="46.2363166809082" lon="7.30439758300781"><ele></ele><time>2013-8-5T22:53:20Z</time></trkpt>
<trkpt lat="46.2363433837891" lon="7.30440187454224"><ele></ele><time>2013-8-5T22:53:23Z</time></trkpt>
<trkpt lat="46.2363929748535" lon="7.30441045761108"><ele></ele><time>2013-8-5T22:53:26Z</time></trkpt>
<trkpt lat="46.2364196777344" lon="7.30441331863403"><ele></ele><time>2013-8-5T22:53:29Z</time></trkpt>
<trkpt lat="46.236442565918" lon="7.30441665649414"><ele></ele><time>2013-8-5T22:53:32Z</time></trkpt>
<trkpt lat="46.2364654541016" lon="7.30442190170288"><ele></ele><time>2013-8-5T22:53:35Z</time></trkpt>
<trkpt lat="46.2364921569824" lon="7.30443096160889"><ele></ele><time>2013-8-5T22:53:38Z</time></trkpt>
<trkpt lat="46.2365646362305" lon="7.30444860458374"><ele></ele><time>2013-8-5T22:53:41Z</time></trkpt>
<trkpt lat="46.2366104125977" lon="7.30446243286133"><ele></ele><time>2013-8-5T22:53:44Z</time></trkpt>
<trkpt lat="46.2366371154785" lon="7.3044638633728"><ele></ele><time>2013-8-5T22:53:47Z</time></trkpt>
<trkpt lat="46.2366638183594" lon="7.30446863174438"><ele></ele><time>2013-8-5T22:53:50Z</time></trkpt>
<trkpt lat="46.236686706543" lon="7.30447292327881"><ele></ele><time>2013-8-5T22:53:53Z</time></trkpt>
<trkpt lat="46.2367095947266" lon="7.30447864532471"><ele></ele><time>2013-8-5T22:53:56Z</time></trkpt>
<trkpt lat="46.236759185791" lon="7.30448484420776"><ele></ele><time>2013-8-5T22:53:59Z</time></trkpt>
<trkpt lat="46.2368774414062" lon="7.30449438095093"><ele></ele><time>2013-8-5T22:54:2Z</time></trkpt>
<trkpt lat="46.2369041442871" lon="7.30448818206787"><ele></ele><time>2013-8-5T22:54:5Z</time></trkpt>
<trkpt lat="46.236930847168" lon="7.30449485778809"><ele></ele><time>2013-8-5T22:54:8Z</time></trkpt>
<trkpt lat="46.2369537353516" lon="7.30449104309082"><ele></ele><time>2013-8-5T22:54:11Z</time></trkpt>
<trkpt lat="46.2370262145996" lon="7.30447626113892"><ele></ele><time>2013-8-5T22:54:14Z</time></trkpt>
<trkpt lat="46.2370491027832" lon="7.30447959899902"><ele></ele><time>2013-8-5T22:54:17Z</time></trkpt>
<trkpt lat="46.2370719909668" lon="7.30448341369629"><ele></ele><time>2013-8-5T22:54:20Z</time></trkpt>
<trkpt lat="46.2370948791504" lon="7.3044867515564"><ele></ele><time>2013-8-5T22:54:23Z</time></trkpt>
<trkpt lat="46.2371215820312" lon="7.30448770523071"><ele></ele><time>2013-8-5T22:54:26Z</time></trkpt>
<trkpt lat="46.2371482849121" lon="7.30448818206787"><ele></ele><time>2013-8-5T22:54:29Z</time></trkpt>
<trkpt lat="46.2373085021973" lon="7.30448055267334"><ele></ele><time>2013-8-5T22:54:32Z</time></trkpt>
<trkpt lat="46.2373352050781" lon="7.30448579788208"><ele></ele><time>2013-8-5T22:54:35Z</time></trkpt>
<trkpt lat="46.2373580932617" lon="7.30448722839356"><ele></ele><time>2013-8-5T22:54:38Z</time></trkpt>
<trkpt lat="46.2373809814453" lon="7.30448627471924"><ele></ele><time>2013-8-5T22:54:41Z</time></trkpt>
<trkpt lat="46.2374114990234" lon="7.30448246002197"><ele></ele><time>2013-8-5T22:54:44Z</time></trkpt>
<trkpt lat="46.2375259399414" lon="7.30448055267334"><ele></ele><time>2013-8-5T22:54:47Z</time></trkpt>
<trkpt lat="46.237548828125" lon="7.30448389053345"><ele></ele><time>2013-8-5T22:54:50Z</time></trkpt>
<trkpt lat="46.2375717163086" lon="7.30448246002197"><ele></ele><time>2013-8-5T22:54:53Z</time></trkpt>
<trkpt lat="46.2375946044922" lon="7.30448007583618"><ele></ele><time>2013-8-5T22:54:56Z</time></trkpt>
<trkpt lat="46.2376174926758" lon="7.30447721481323"><ele></ele><time>2013-8-5T22:54:59Z</time></trkpt>
<trkpt lat="46.2376976013184" lon="7.30448770523071"><ele></ele><time>2013-8-5T22:55:2Z</time></trkpt>
<trkpt lat="46.2377433776856" lon="7.30448579788208"><ele></ele><time>2013-8-5T22:55:5Z</time></trkpt>
<trkpt lat="46.2377662658691" lon="7.30448770523071"><ele></ele><time>2013-8-5T22:55:8Z</time></trkpt>
<trkpt lat="46.23779296875" lon="7.30448627471924"><ele></ele><time>2013-8-5T22:55:11Z</time></trkpt>
<trkpt lat="46.2378158569336" lon="7.30448627471924"><ele></ele><time>2013-8-5T22:55:14Z</time></trkpt>
<trkpt lat="46.2378387451172" lon="7.30449295043945"><ele></ele><time>2013-8-5T22:55:17Z</time></trkpt>
<trkpt lat="46.2379150390625" lon="7.30450487136841"><ele></ele><time>2013-8-5T22:55:20Z</time></trkpt>
<trkpt lat="46.2381172180176" lon="7.30456590652466"><ele></ele><time>2013-8-5T22:55:23Z</time></trkpt>
<trkpt lat="46.2381439208984" lon="7.30457448959351"><ele></ele><time>2013-8-5T22:55:26Z</time></trkpt>
<trkpt lat="46.2381706237793" lon="7.30458164215088"><ele></ele><time>2013-8-5T22:55:29Z</time></trkpt>
<trkpt lat="46.2381973266602" lon="7.30459833145142"><ele></ele><time>2013-8-5T22:55:32Z</time></trkpt>
<trkpt lat="46.238224029541" lon="7.3046088218689"><ele></ele><time>2013-8-5T22:55:35Z</time></trkpt>
<trkpt lat="46.2383232116699" lon="7.30466222763062"><ele></ele><time>2013-8-5T22:55:38Z</time></trkpt>
<trkpt lat="46.2385177612305" lon="7.30480813980102"><ele></ele><time>2013-8-5T22:55:41Z</time></trkpt>
<trkpt lat="46.2385406494141" lon="7.30482721328735"><ele></ele><time>2013-8-5T22:55:44Z</time></trkpt>
<trkpt lat="46.2385635375977" lon="7.30484580993652"><ele></ele><time>2013-8-5T22:55:47Z</time></trkpt>
<trkpt lat="46.2385864257812" lon="7.30486536026001"><ele></ele><time>2013-8-5T22:55:50Z</time></trkpt>
<trkpt lat="46.2386131286621" lon="7.3048882484436"><ele></ele><time>2013-8-5T22:55:53Z</time></trkpt>
<trkpt lat="46.2387237548828" lon="7.30500793457031"><ele></ele><time>2013-8-5T22:55:56Z</time></trkpt>
<trkpt lat="46.2388801574707" lon="7.30515766143799"><ele></ele><time>2013-8-5T22:55:59Z</time></trkpt>
<trkpt lat="46.2389030456543" lon="7.30518484115601"><ele></ele><time>2013-8-5T22:56:2Z</time></trkpt>
<trkpt lat="46.2390937805176" lon="7.30532312393188"><ele></ele><time>2013-8-5T22:56:5Z</time></trkpt>
<trkpt lat="46.2391242980957" lon="7.30534029006958"><ele></ele><time>2013-8-5T22:56:8Z</time></trkpt>
<trkpt lat="46.239185333252" lon="7.30537605285644"><ele></ele><time>2013-8-5T22:56:11Z</time></trkpt>
<trkpt lat="46.2392196655273" lon="7.30538892745972"><ele></ele><time>2013-8-5T22:56:14Z</time></trkpt>
<trkpt lat="46.2392501831055" lon="7.30540609359741"><ele></ele><time>2013-8-5T22:56:17Z</time></trkpt>
<trkpt lat="46.2392845153809" lon="7.30542802810669"><ele></ele><time>2013-8-5T22:56:20Z</time></trkpt>
<trkpt lat="46.239315032959" lon="7.30544662475586"><ele></ele><time>2013-8-5T22:56:23Z</time></trkpt>
<trkpt lat="46.2393493652344" lon="7.30546188354492"><ele></ele><time>2013-8-5T22:56:26Z</time></trkpt>
<trkpt lat="46.2395362854004" lon="7.3055477142334"><ele></ele><time>2013-8-5T22:56:29Z</time></trkpt>
<trkpt lat="46.2396202087402" lon="7.30560779571533"><ele></ele><time>2013-8-5T22:56:32Z</time></trkpt>
<trkpt lat="46.2396469116211" lon="7.30562973022461"><ele></ele><time>2013-8-5T22:56:35Z</time></trkpt>
<trkpt lat="46.2396697998047" lon="7.30565500259399"><ele></ele><time>2013-8-5T22:56:38Z</time></trkpt>
<trkpt lat="46.2396926879883" lon="7.30568218231201"><ele></ele><time>2013-8-5T22:56:41Z</time></trkpt>
<trkpt lat="46.2397117614746" lon="7.30570983886719"><ele></ele><time>2013-8-5T22:56:44Z</time></trkpt>
<trkpt lat="46.2398834228516" lon="7.30592250823975"><ele></ele><time>2013-8-5T22:56:47Z</time></trkpt>
<trkpt lat="46.2399749755859" lon="7.30604553222656"><ele></ele><time>2013-8-5T22:56:50Z</time></trkpt>
<trkpt lat="46.2399940490723" lon="7.30606842041016"><ele></ele><time>2013-8-5T22:56:53Z</time></trkpt>
<trkpt lat="46.2400131225586" lon="7.30609083175659"><ele></ele><time>2013-8-5T22:56:56Z</time></trkpt>
<trkpt lat="46.2400321960449" lon="7.30611324310303"><ele></ele><time>2013-8-5T22:56:59Z</time></trkpt>
<trkpt lat="46.2400817871094" lon="7.30617332458496"><ele></ele><time>2013-8-5T22:57:2Z</time></trkpt>
<trkpt lat="46.2401008605957" lon="7.30619478225708"><ele></ele><time>2013-8-5T22:57:5Z</time></trkpt>
<trkpt lat="46.2401161193848" lon="7.30621528625488"><ele></ele><time>2013-8-5T22:57:8Z</time></trkpt>
<trkpt lat="46.2401313781738" lon="7.30624008178711"><ele></ele><time>2013-8-5T22:57:11Z</time></trkpt>
<trkpt lat="46.2401504516602" lon="7.30626630783081"><ele></ele><time>2013-8-5T22:57:14Z</time></trkpt>
<trkpt lat="46.2402381896973" lon="7.3063817024231"><ele></ele><time>2013-8-5T22:57:17Z</time></trkpt>
<trkpt lat="46.2402648925781" lon="7.30640888214111"><ele></ele><time>2013-8-5T22:57:20Z</time></trkpt>
<trkpt lat="46.240291595459" lon="7.30643033981323"><ele></ele><time>2013-8-5T22:57:23Z</time></trkpt>
<trkpt lat="46.2403182983398" lon="7.30645275115967"><ele></ele><time>2013-8-5T22:57:26Z</time></trkpt>
<trkpt lat="46.2403335571289" lon="7.3064775466919"><ele></ele><time>2013-8-5T22:57:29Z</time></trkpt>
<trkpt lat="46.2404365539551" lon="7.30654287338257"><ele></ele><time>2013-8-5T22:57:32Z</time></trkpt>
<trkpt lat="46.2406463623047" lon="7.3065767288208"><ele></ele><time>2013-8-5T22:57:35Z</time></trkpt>
<trkpt lat="46.2406768798828" lon="7.30656957626343"><ele></ele><time>2013-8-5T22:57:38Z</time></trkpt>
<trkpt lat="46.2407112121582" lon="7.30656337738037"><ele></ele><time>2013-8-5T22:57:41Z</time></trkpt>
<trkpt lat="46.2407455444336" lon="7.3065505027771"><ele></ele><time>2013-8-5T22:57:44Z</time></trkpt>
<trkpt lat="46.2407760620117" lon="7.30653619766235"><ele></ele><time>2013-8-5T22:57:47Z</time></trkpt>
<trkpt lat="46.2408485412598" lon="7.3065128326416"><ele></ele><time>2013-8-5T22:57:50Z</time></trkpt>
<trkpt lat="46.2410430908203" lon="7.30649375915527"><ele></ele><time>2013-8-5T22:57:53Z</time></trkpt>
<trkpt lat="46.2411003112793" lon="7.30647706985474"><ele></ele><time>2013-8-5T22:57:56Z</time></trkpt>
<trkpt lat="46.2412986755371" lon="7.30640840530396"><ele></ele><time>2013-8-5T22:57:59Z</time></trkpt>
<trkpt lat="46.241512298584" lon="7.30631589889526"><ele></ele><time>2013-8-5T22:58:2Z</time></trkpt>
<trkpt lat="46.2415428161621" lon="7.30630254745483"><ele></ele><time>2013-8-5T22:58:5Z</time></trkpt>
<trkpt lat="46.241569519043" lon="7.30629062652588"><ele></ele><time>2013-8-5T22:58:8Z</time></trkpt>
<trkpt lat="46.2415962219238" lon="7.30627870559692"><ele></ele><time>2013-8-5T22:58:11Z</time></trkpt>
<trkpt lat="46.2416229248047" lon="7.30626583099365"><ele></ele><time>2013-8-5T22:58:14Z</time></trkpt>
<trkpt lat="46.2417831420898" lon="7.30618858337402"><ele></ele><time>2013-8-5T22:58:17Z</time></trkpt>
<trkpt lat="46.2418060302734" lon="7.30618000030518"><ele></ele><time>2013-8-5T22:58:20Z</time></trkpt>
<trkpt lat="46.2418327331543" lon="7.30617189407349"><ele></ele><time>2013-8-5T22:58:23Z</time></trkpt>
<trkpt lat="46.2418594360352" lon="7.30616283416748"><ele></ele><time>2013-8-5T22:58:26Z</time></trkpt>
<trkpt lat="46.2418823242188" lon="7.30615472793579"><ele></ele><time>2013-8-5T22:58:29Z</time></trkpt>
<trkpt lat="46.2419090270996" lon="7.30614757537842"><ele></ele><time>2013-8-5T22:58:32Z</time></trkpt>
<trkpt lat="46.2420349121094" lon="7.30613327026367"><ele></ele><time>2013-8-5T22:58:35Z</time></trkpt>
<trkpt lat="46.2421035766602" lon="7.30613565444946"><ele></ele><time>2013-8-5T22:58:38Z</time></trkpt>
<trkpt lat="46.2421264648438" lon="7.3061375617981"><ele></ele><time>2013-8-5T22:58:41Z</time></trkpt>
<trkpt lat="46.2421531677246" lon="7.30614566802978"><ele></ele><time>2013-8-5T22:58:44Z</time></trkpt>
<trkpt lat="46.2421798706055" lon="7.30615520477295"><ele></ele><time>2013-8-5T22:58:47Z</time></trkpt>
<trkpt lat="46.2422027587891" lon="7.30616998672485"><ele></ele><time>2013-8-5T22:58:50Z</time></trkpt>
<trkpt lat="46.2422752380371" lon="7.3061990737915"><ele></ele><time>2013-8-5T22:58:53Z</time></trkpt>
<trkpt lat="46.242301940918" lon="7.30620765686035"><ele></ele><time>2013-8-5T22:58:56Z</time></trkpt>
<trkpt lat="46.2423286437988" lon="7.30621862411499"><ele></ele><time>2013-8-5T22:58:59Z</time></trkpt>
<trkpt lat="46.2423553466797" lon="7.3062334060669"><ele></ele><time>2013-8-5T22:59:2Z</time></trkpt>
<trkpt lat="46.2423820495606" lon="7.30624771118164"><ele></ele><time>2013-8-5T22:59:5Z</time></trkpt>
<trkpt lat="46.2424392700195" lon="7.30626630783081"><ele></ele><time>2013-8-5T22:59:8Z</time></trkpt>
<trkpt lat="46.2424621582031" lon="7.30627536773682"><ele></ele><time>2013-8-5T22:59:11Z</time></trkpt>
<trkpt lat="46.2424850463867" lon="7.30628299713135"><ele></ele><time>2013-8-5T22:59:14Z</time></trkpt>
<trkpt lat="46.2425079345703" lon="7.30629062652588"><ele></ele><time>2013-8-5T22:59:17Z</time></trkpt>
<trkpt lat="46.2425308227539" lon="7.30629920959473"><ele></ele><time>2013-8-5T22:59:20Z</time></trkpt>
<trkpt lat="46.2425765991211" lon="7.30631494522095"><ele></ele><time>2013-8-5T22:59:23Z</time></trkpt>
<trkpt lat="46.2425956726074" lon="7.30632162094116"><ele></ele><time>2013-8-5T22:59:26Z</time></trkpt>
<trkpt lat="46.242618560791" lon="7.30632448196411"><ele></ele><time>2013-8-5T22:59:29Z</time></trkpt>
<trkpt lat="46.2426414489746" lon="7.30632734298706"><ele></ele><time>2013-8-5T22:59:32Z</time></trkpt>
<trkpt lat="46.2426910400391" lon="7.30633783340454"><ele></ele><time>2013-8-5T22:59:35Z</time></trkpt>
<trkpt lat="46.2428131103516" lon="7.306321144104"><ele></ele><time>2013-8-5T22:59:38Z</time></trkpt>
<trkpt lat="46.2428359985352" lon="7.30631399154663"><ele></ele><time>2013-8-5T22:59:41Z</time></trkpt>
<trkpt lat="46.2428588867188" lon="7.30630254745483"><ele></ele><time>2013-8-5T22:59:44Z</time></trkpt>
<trkpt lat="46.2428817749023" lon="7.30629062652588"><ele></ele><time>2013-8-5T22:59:47Z</time></trkpt>
<trkpt lat="46.2429046630859" lon="7.30627965927124"><ele></ele><time>2013-8-5T22:59:50Z</time></trkpt>
<trkpt lat="46.2430305480957" lon="7.30621480941772"><ele></ele><time>2013-8-5T22:59:53Z</time></trkpt>
<trkpt lat="46.2431106567383" lon="7.30621004104614"><ele></ele><time>2013-8-5T22:59:56Z</time></trkpt>
<trkpt lat="46.2431335449219" lon="7.30621194839478"><ele></ele><time>2013-8-5T22:59:59Z</time></trkpt>
<trkpt lat="46.2431564331055" lon="7.30621957778931"><ele></ele><time>2013-8-5T23:0:2Z</time></trkpt>
<trkpt lat="46.2431793212891" lon="7.30622911453247"><ele></ele><time>2013-8-5T23:0:5Z</time></trkpt>
<trkpt lat="46.2432022094727" lon="7.30624151229858"><ele></ele><time>2013-8-5T23:0:8Z</time></trkpt>
<trkpt lat="46.2432861328125" lon="7.30629920959473"><ele></ele><time>2013-8-5T23:0:11Z</time></trkpt>
<trkpt lat="46.2433052062988" lon="7.30632019042969"><ele></ele><time>2013-8-5T23:0:14Z</time></trkpt>
<trkpt lat="46.2433242797852" lon="7.30634164810181"><ele></ele><time>2013-8-5T23:0:17Z</time></trkpt>
<trkpt lat="46.2433433532715" lon="7.30636405944824"><ele></ele><time>2013-8-5T23:0:20Z</time></trkpt>
<trkpt lat="46.2433586120606" lon="7.30638551712036"><ele></ele><time>2013-8-5T23:0:23Z</time></trkpt>
<trkpt lat="46.2434692382812" lon="7.3065595626831"><ele></ele><time>2013-8-5T23:0:26Z</time></trkpt>
<trkpt lat="46.2434883117676" lon="7.30658483505249"><ele></ele><time>2013-8-5T23:0:29Z</time></trkpt>
<trkpt lat="46.2435035705566" lon="7.30660963058472"><ele></ele><time>2013-8-5T23:0:32Z</time></trkpt>
<trkpt lat="46.2435188293457" lon="7.30663347244263"><ele></ele><time>2013-8-5T23:0:35Z</time></trkpt>
<trkpt lat="46.2435340881348" lon="7.30665826797485"><ele></ele><time>2013-8-5T23:0:38Z</time></trkpt>
<trkpt lat="46.2436065673828" lon="7.30676221847534"><ele></ele><time>2013-8-5T23:0:41Z</time></trkpt>
<trkpt lat="46.2436256408691" lon="7.30678510665894"><ele></ele><time>2013-8-5T23:0:44Z</time></trkpt>
<trkpt lat="46.2436447143555" lon="7.30680227279663"><ele></ele><time>2013-8-5T23:0:47Z</time></trkpt>
<trkpt lat="46.2436676025391" lon="7.30681610107422"><ele></ele><time>2013-8-5T23:0:50Z</time></trkpt>
<trkpt lat="46.2436904907227" lon="7.30682897567749"><ele></ele><time>2013-8-5T23:0:53Z</time></trkpt>
<trkpt lat="46.2437400817871" lon="7.30684280395508"><ele></ele><time>2013-8-5T23:0:56Z</time></trkpt>
<trkpt lat="46.2437934875488" lon="7.30683755874634"><ele></ele><time>2013-8-5T23:0:59Z</time></trkpt>
<trkpt lat="46.2438125610352" lon="7.3068265914917"><ele></ele><time>2013-8-5T23:1:2Z</time></trkpt>
<trkpt lat="46.2438354492188" lon="7.30680751800537"><ele></ele><time>2013-8-5T23:1:5Z</time></trkpt>
<trkpt lat="46.2438545227051" lon="7.30678272247314"><ele></ele><time>2013-8-5T23:1:8Z</time></trkpt>
<trkpt lat="46.2438697814941" lon="7.30674934387207"><ele></ele><time>2013-8-5T23:1:11Z</time></trkpt>
<trkpt lat="46.2438926696777" lon="7.30662965774536"><ele></ele><time>2013-8-5T23:1:14Z</time></trkpt>
<trkpt lat="46.2438430786133" lon="7.30639982223511"><ele></ele><time>2013-8-5T23:1:17Z</time></trkpt>
<trkpt lat="46.2437934875488" lon="7.30626630783081"><ele></ele><time>2013-8-5T23:1:20Z</time></trkpt>
<trkpt lat="46.2437782287598" lon="7.30623531341553"><ele></ele><time>2013-8-5T23:1:23Z</time></trkpt>
<trkpt lat="46.243766784668" lon="7.30620288848877"><ele></ele><time>2013-8-5T23:1:26Z</time></trkpt>
<trkpt lat="46.2437515258789" lon="7.30617237091064"><ele></ele><time>2013-8-5T23:1:29Z</time></trkpt>
<trkpt lat="46.2437286376953" lon="7.30611181259155"><ele></ele><time>2013-8-5T23:1:32Z</time></trkpt>
<trkpt lat="46.2436943054199" lon="7.30602550506592"><ele></ele><time>2013-8-5T23:1:35Z</time></trkpt>
<trkpt lat="46.2436790466309" lon="7.30599737167358"><ele></ele><time>2013-8-5T23:1:38Z</time></trkpt>
<trkpt lat="46.2436676025391" lon="7.30596828460693"><ele></ele><time>2013-8-5T23:1:41Z</time></trkpt>
<trkpt lat="46.24365234375" lon="7.30593824386597"><ele></ele><time>2013-8-5T23:1:44Z</time></trkpt>
<trkpt lat="46.2436408996582" lon="7.30591058731079"><ele></ele><time>2013-8-5T23:1:47Z</time></trkpt>
<trkpt lat="46.2436294555664" lon="7.30588150024414"><ele></ele><time>2013-8-5T23:1:50Z</time></trkpt>
<trkpt lat="46.2435913085938" lon="7.30578899383545"><ele></ele><time>2013-8-5T23:1:53Z</time></trkpt>
<trkpt lat="46.243579864502" lon="7.30575895309448"><ele></ele><time>2013-8-5T23:1:56Z</time></trkpt>
<trkpt lat="46.2435684204102" lon="7.30573081970215"><ele></ele><time>2013-8-5T23:1:59Z</time></trkpt>
<trkpt lat="46.2435569763184" lon="7.3057017326355"><ele></ele><time>2013-8-5T23:2:2Z</time></trkpt>
<trkpt lat="46.2435493469238" lon="7.30567216873169"><ele></ele><time>2013-8-5T23:2:5Z</time></trkpt>
<trkpt lat="46.2435150146484" lon="7.3055157661438"><ele></ele><time>2013-8-5T23:2:8Z</time></trkpt>
<trkpt lat="46.2435111999512" lon="7.30548286437988"><ele></ele><time>2013-8-5T23:2:11Z</time></trkpt>
<trkpt lat="46.2435073852539" lon="7.30544900894165"><ele></ele><time>2013-8-5T23:2:14Z</time></trkpt>
<trkpt lat="46.2435035705566" lon="7.30541515350342"><ele></ele><time>2013-8-5T23:2:17Z</time></trkpt>
<trkpt lat="46.2435035705566" lon="7.30538272857666"><ele></ele><time>2013-8-5T23:2:20Z</time></trkpt>
<trkpt lat="46.2434844970703" lon="7.3052167892456"><ele></ele><time>2013-8-5T23:2:23Z</time></trkpt>
<trkpt lat="46.243480682373" lon="7.30514812469482"><ele></ele><time>2013-8-5T23:2:26Z</time></trkpt>
<trkpt lat="46.243480682373" lon="7.30511331558228"><ele></ele><time>2013-8-5T23:2:29Z</time></trkpt>
<trkpt lat="46.243480682373" lon="7.30507755279541"><ele></ele><time>2013-8-5T23:2:32Z</time></trkpt>
<trkpt lat="46.2434768676758" lon="7.30504322052002"><ele></ele><time>2013-8-5T23:2:35Z</time></trkpt>
<trkpt lat="46.2434768676758" lon="7.30500984191894"><ele></ele><time>2013-8-5T23:2:38Z</time></trkpt>
<trkpt lat="46.2434768676758" lon="7.30494260787964"><ele></ele><time>2013-8-5T23:2:41Z</time></trkpt>
<trkpt lat="46.2434616088867" lon="7.30480766296387"><ele></ele><time>2013-8-5T23:2:44Z</time></trkpt>
<trkpt lat="46.2434577941894" lon="7.304771900177"><ele></ele><time>2013-8-5T23:2:47Z</time></trkpt>
<trkpt lat="46.2434501647949" lon="7.30473709106445"><ele></ele><time>2013-8-5T23:2:50Z</time></trkpt>
<trkpt lat="46.2434425354004" lon="7.30470371246338"><ele></ele><time>2013-8-5T23:2:53Z</time></trkpt>
<trkpt lat="46.2434349060059" lon="7.30467081069946"><ele></ele><time>2013-8-5T23:2:56Z</time></trkpt>
<trkpt lat="46.2434234619141" lon="7.3046383857727"><ele></ele><time>2013-8-5T23:2:59Z</time></trkpt>
<trkpt lat="46.2433662414551" lon="7.30448198318482"><ele></ele><time>2013-8-5T23:3:2Z</time></trkpt>
<trkpt lat="46.2433547973633" lon="7.30445146560669"><ele></ele><time>2013-8-5T23:3:5Z</time></trkpt>
<trkpt lat="46.2433471679688" lon="7.30442190170288"><ele></ele><time>2013-8-5T23:3:8Z</time></trkpt>
<trkpt lat="46.2433319091797" lon="7.30439329147339"><ele></ele><time>2013-8-5T23:3:11Z</time></trkpt>
<trkpt lat="46.2433204650879" lon="7.30436325073242"><ele></ele><time>2013-8-5T23:3:14Z</time></trkpt>
<trkpt lat="46.2432708740234" lon="7.30424690246582"><ele></ele><time>2013-8-5T23:3:17Z</time></trkpt>
<trkpt lat="46.2432594299316" lon="7.30421781539917"><ele></ele><time>2013-8-5T23:3:20Z</time></trkpt>
<trkpt lat="46.2432479858398" lon="7.30418682098389"><ele></ele><time>2013-8-5T23:3:23Z</time></trkpt>
<trkpt lat="46.243236541748" lon="7.30415630340576"><ele></ele><time>2013-8-5T23:3:26Z</time></trkpt>
<trkpt lat="46.243221282959" lon="7.304123878479"><ele></ele><time>2013-8-5T23:3:29Z</time></trkpt>
<trkpt lat="46.2432060241699" lon="7.3040566444397"><ele></ele><time>2013-8-5T23:3:32Z</time></trkpt>
<trkpt lat="46.2431983947754" lon="7.30402088165283"><ele></ele><time>2013-8-5T23:3:35Z</time></trkpt>
<trkpt lat="46.2431945800781" lon="7.30398845672607"><ele></ele><time>2013-8-5T23:3:38Z</time></trkpt>
<trkpt lat="46.2431945800781" lon="7.30395317077637"><ele></ele><time>2013-8-5T23:3:41Z</time></trkpt>
<trkpt lat="46.2431907653809" lon="7.30391597747803"><ele></ele><time>2013-8-5T23:3:44Z</time></trkpt>
<trkpt lat="46.2431869506836" lon="7.30377817153931"><ele></ele><time>2013-8-5T23:3:47Z</time></trkpt>
<trkpt lat="46.2431831359863" lon="7.3037052154541"><ele></ele><time>2013-8-5T23:3:50Z</time></trkpt>
<trkpt lat="46.2431793212891" lon="7.30367088317871"><ele></ele><time>2013-8-5T23:3:53Z</time></trkpt>
<trkpt lat="46.2431678771973" lon="7.303635597229"><ele></ele><time>2013-8-5T23:3:56Z</time></trkpt>
<trkpt lat="46.2431526184082" lon="7.30360698699951"><ele></ele><time>2013-8-5T23:3:59Z</time></trkpt>
<trkpt lat="46.2431373596191" lon="7.30357885360718"><ele></ele><time>2013-8-5T23:4:2Z</time></trkpt>
<trkpt lat="46.2430076599121" lon="7.30349397659302"><ele></ele><time>2013-8-5T23:4:5Z</time></trkpt>
<trkpt lat="46.2429313659668" lon="7.30348825454712"><ele></ele><time>2013-8-5T23:4:8Z</time></trkpt>
<trkpt lat="46.2429084777832" lon="7.30349349975586"><ele></ele><time>2013-8-5T23:4:11Z</time></trkpt>
<trkpt lat="46.2428817749023" lon="7.30349922180176"><ele></ele><time>2013-8-5T23:4:14Z</time></trkpt>
<trkpt lat="46.2428550720215" lon="7.30350685119629"><ele></ele><time>2013-8-5T23:4:17Z</time></trkpt>
<trkpt lat="46.2428321838379" lon="7.30351161956787"><ele></ele><time>2013-8-5T23:4:20Z</time></trkpt>
<trkpt lat="46.2427558898926" lon="7.30352067947388"><ele></ele><time>2013-8-5T23:4:23Z</time></trkpt>
<trkpt lat="46.2427291870117" lon="7.30352115631104"><ele></ele><time>2013-8-5T23:4:26Z</time></trkpt>
<trkpt lat="46.2427024841309" lon="7.3035192489624"><ele></ele><time>2013-8-5T23:4:29Z</time></trkpt>
<trkpt lat="46.24267578125" lon="7.30351257324219"><ele></ele><time>2013-8-5T23:4:32Z</time></trkpt>
<trkpt lat="46.2426528930664" lon="7.30350494384766"><ele></ele><time>2013-8-5T23:4:35Z</time></trkpt>
<trkpt lat="46.2426300048828" lon="7.30349159240723"><ele></ele><time>2013-8-5T23:4:38Z</time></trkpt>
<trkpt lat="46.2425575256348" lon="7.30341005325317"><ele></ele><time>2013-8-5T23:4:41Z</time></trkpt>
<trkpt lat="46.2425422668457" lon="7.30338430404663"><ele></ele><time>2013-8-5T23:4:44Z</time></trkpt>
<trkpt lat="46.2425270080566" lon="7.30335521697998"><ele></ele><time>2013-8-5T23:4:47Z</time></trkpt>
<trkpt lat="46.2425117492676" lon="7.3033275604248"><ele></ele><time>2013-8-5T23:4:50Z</time></trkpt>
<trkpt lat="46.2424964904785" lon="7.3033013343811"><ele></ele><time>2013-8-5T23:4:53Z</time></trkpt>
<trkpt lat="46.2423973083496" lon="7.30313158035278"><ele></ele><time>2013-8-5T23:4:56Z</time></trkpt>
<trkpt lat="46.2423820495606" lon="7.30310297012329"><ele></ele><time>2013-8-5T23:4:59Z</time></trkpt>
<trkpt lat="46.2423667907715" lon="7.30307483673096"><ele></ele><time>2013-8-5T23:5:2Z</time></trkpt>
<trkpt lat="46.2423515319824" lon="7.30304908752441"><ele></ele><time>2013-8-5T23:5:5Z</time></trkpt>
<trkpt lat="46.2423324584961" lon="7.30302095413208"><ele></ele><time>2013-8-5T23:5:8Z</time></trkpt>
<trkpt lat="46.2422676086426" lon="7.30290031433106"><ele></ele><time>2013-8-5T23:5:11Z</time></trkpt>
<trkpt lat="46.2422523498535" lon="7.30286979675293"><ele></ele><time>2013-8-5T23:5:14Z</time></trkpt>
<trkpt lat="46.2422370910644" lon="7.30283975601196"><ele></ele><time>2013-8-5T23:5:17Z</time></trkpt>
<trkpt lat="46.2422256469727" lon="7.30281352996826"><ele></ele><time>2013-8-5T23:5:20Z</time></trkpt>
<trkpt lat="46.2422103881836" lon="7.30278825759888"><ele></ele><time>2013-8-5T23:5:23Z</time></trkpt>
<trkpt lat="46.2421607971191" lon="7.30270910263062"><ele></ele><time>2013-8-5T23:5:26Z</time></trkpt>
<trkpt lat="46.2421455383301" lon="7.3026819229126"><ele></ele><time>2013-8-5T23:5:29Z</time></trkpt>
<trkpt lat="46.242130279541" lon="7.30265426635742"><ele></ele><time>2013-8-5T23:5:32Z</time></trkpt>
<trkpt lat="46.2421188354492" lon="7.30262613296509"><ele></ele><time>2013-8-5T23:5:35Z</time></trkpt>
<trkpt lat="46.2421035766602" lon="7.30259847640991"><ele></ele><time>2013-8-5T23:5:38Z</time></trkpt>
<trkpt lat="46.2420234680176" lon="7.30245590209961"><ele></ele><time>2013-8-5T23:5:41Z</time></trkpt>
<trkpt lat="46.2420082092285" lon="7.30242490768433"><ele></ele><time>2013-8-5T23:5:44Z</time></trkpt>
<trkpt lat="46.2419929504394" lon="7.30239629745483"><ele></ele><time>2013-8-5T23:5:47Z</time></trkpt>
<trkpt lat="46.2419776916504" lon="7.30236577987671"><ele></ele><time>2013-8-5T23:5:50Z</time></trkpt>
<trkpt lat="46.2419662475586" lon="7.30233478546143"><ele></ele><time>2013-8-5T23:5:53Z</time></trkpt>
<trkpt lat="46.2419281005859" lon="7.30223798751831"><ele></ele><time>2013-8-5T23:5:56Z</time></trkpt>
<trkpt lat="46.2419166564941" lon="7.3022050857544"><ele></ele><time>2013-8-5T23:5:59Z</time></trkpt>
<trkpt lat="46.2419052124023" lon="7.30217218399048"><ele></ele><time>2013-8-5T23:6:2Z</time></trkpt>
<trkpt lat="46.2418975830078" lon="7.30214262008667"><ele></ele><time>2013-8-5T23:6:5Z</time></trkpt>
<trkpt lat="46.2418899536133" lon="7.30211353302002"><ele></ele><time>2013-8-5T23:6:8Z</time></trkpt>
<trkpt lat="46.2418556213379" lon="7.30199575424194"><ele></ele><time>2013-8-5T23:6:11Z</time></trkpt>
<trkpt lat="46.2418479919434" lon="7.30196332931518"><ele></ele><time>2013-8-5T23:6:14Z</time></trkpt>
<trkpt lat="46.2418365478516" lon="7.3019289970398"><ele></ele><time>2013-8-5T23:6:17Z</time></trkpt>
<trkpt lat="46.2418251037598" lon="7.30189323425293"><ele></ele><time>2013-8-5T23:6:20Z</time></trkpt>
<trkpt lat="46.241813659668" lon="7.30186033248901"><ele></ele><time>2013-8-5T23:6:23Z</time></trkpt>
<trkpt lat="46.2417640686035" lon="7.30170106887817"><ele></ele><time>2013-8-5T23:6:26Z</time></trkpt>
<trkpt lat="46.241756439209" lon="7.30167055130005"><ele></ele><time>2013-8-5T23:6:29Z</time></trkpt>
<trkpt lat="46.2417449951172" lon="7.30163955688476"><ele></ele><time>2013-8-5T23:6:32Z</time></trkpt>
<trkpt lat="46.2417335510254" lon="7.30160999298096"><ele></ele><time>2013-8-5T23:6:35Z</time></trkpt>
<trkpt lat="46.2417221069336" lon="7.30157518386841"><ele></ele><time>2013-8-5T23:6:38Z</time></trkpt>
<trkpt lat="46.2416572570801" lon="7.30140590667725"><ele></ele><time>2013-8-5T23:6:41Z</time></trkpt>
<trkpt lat="46.241641998291" lon="7.30137825012207"><ele></ele><time>2013-8-5T23:6:44Z</time></trkpt>
<trkpt lat="46.2416305541992" lon="7.30135202407837"><ele></ele><time>2013-8-5T23:6:47Z</time></trkpt>
<trkpt lat="46.2416152954102" lon="7.30132246017456"><ele></ele><time>2013-8-5T23:6:50Z</time></trkpt>
<trkpt lat="46.2416038513184" lon="7.30129528045654"><ele></ele><time>2013-8-5T23:6:53Z</time></trkpt>
<trkpt lat="46.2415390014648" lon="7.30118417739868"><ele></ele><time>2013-8-5T23:6:56Z</time></trkpt>
<trkpt lat="46.2415046691894" lon="7.30112648010254"><ele></ele><time>2013-8-5T23:6:59Z</time></trkpt>
<trkpt lat="46.2414817810059" lon="7.3010950088501"><ele></ele><time>2013-8-5T23:7:2Z</time></trkpt>
<trkpt lat="46.2414588928223" lon="7.30107164382935"><ele></ele><time>2013-8-5T23:7:5Z</time></trkpt>
<trkpt lat="46.2414398193359" lon="7.30105113983154"><ele></ele><time>2013-8-5T23:7:8Z</time></trkpt>
<trkpt lat="46.2414207458496" lon="7.30102920532226"><ele></ele><time>2013-8-5T23:7:11Z</time></trkpt>
<trkpt lat="46.2413368225098" lon="7.30093812942505"><ele></ele><time>2013-8-5T23:7:14Z</time></trkpt>
<trkpt lat="46.2413139343262" lon="7.30091571807861"><ele></ele><time>2013-8-5T23:7:17Z</time></trkpt>
<trkpt lat="46.2412910461426" lon="7.30089521408081"><ele></ele><time>2013-8-5T23:7:20Z</time></trkpt>
<trkpt lat="46.241268157959" lon="7.3008770942688"><ele></ele><time>2013-8-5T23:7:23Z</time></trkpt>
<trkpt lat="46.2412452697754" lon="7.30085754394531"><ele></ele><time>2013-8-5T23:7:26Z</time></trkpt>
<trkpt lat="46.2411804199219" lon="7.30079889297485"><ele></ele><time>2013-8-5T23:7:29Z</time></trkpt>
<trkpt lat="46.2411613464356" lon="7.30077743530274"><ele></ele><time>2013-8-5T23:7:32Z</time></trkpt>
<trkpt lat="46.2411422729492" lon="7.30076169967651"><ele></ele><time>2013-8-5T23:7:35Z</time></trkpt>
<trkpt lat="46.2411231994629" lon="7.30074405670166"><ele></ele><time>2013-8-5T23:7:38Z</time></trkpt>
<trkpt lat="46.2411041259766" lon="7.30072546005249"><ele></ele><time>2013-8-5T23:7:41Z</time></trkpt>
<trkpt lat="46.2410659790039" lon="7.30068683624268"><ele></ele><time>2013-8-5T23:7:44Z</time></trkpt>
<trkpt lat="46.2410507202148" lon="7.30066680908203"><ele></ele><time>2013-8-5T23:7:47Z</time></trkpt>
<trkpt lat="46.2410316467285" lon="7.30064630508423"><ele></ele><time>2013-8-5T23:7:50Z</time></trkpt>
<trkpt lat="46.2410125732422" lon="7.30062532424927"><ele></ele><time>2013-8-5T23:7:53Z</time></trkpt>
<trkpt lat="46.2409973144531" lon="7.30060529708862"><ele></ele><time>2013-8-5T23:7:56Z</time></trkpt>
<trkpt lat="46.2409782409668" lon="7.30058860778809"><ele></ele><time>2013-8-5T23:7:59Z</time></trkpt>
<trkpt lat="46.2408866882324" lon="7.30049562454224"><ele></ele><time>2013-8-5T23:8:2Z</time></trkpt>
<trkpt lat="46.2408638000488" lon="7.30047845840454"><ele></ele><time>2013-8-5T23:8:5Z</time></trkpt>
<trkpt lat="46.2408447265625" lon="7.30045890808106"><ele></ele><time>2013-8-5T23:8:8Z</time></trkpt>
<trkpt lat="46.2408256530762" lon="7.30043983459473"><ele></ele><time>2013-8-5T23:8:11Z</time></trkpt>
<trkpt lat="46.2408065795898" lon="7.30042028427124"><ele></ele><time>2013-8-5T23:8:14Z</time></trkpt>
<trkpt lat="46.2407302856445" lon="7.30034875869751"><ele></ele><time>2013-8-5T23:8:17Z</time></trkpt>
<trkpt lat="46.2407112121582" lon="7.30033016204834"><ele></ele><time>2013-8-5T23:8:20Z</time></trkpt>
<trkpt lat="46.2406883239746" lon="7.30031204223633"><ele></ele><time>2013-8-5T23:8:23Z</time></trkpt>
<trkpt lat="46.2406692504883" lon="7.30029678344726"><ele></ele><time>2013-8-5T23:8:26Z</time></trkpt>
<trkpt lat="46.240650177002" lon="7.30027914047241"><ele></ele><time>2013-8-5T23:8:29Z</time></trkpt>
<trkpt lat="46.2405204772949" lon="7.30014753341675"><ele></ele><time>2013-8-5T23:8:32Z</time></trkpt>
<trkpt lat="46.2405052185059" lon="7.30012845993042"><ele></ele><time>2013-8-5T23:8:35Z</time></trkpt>
<trkpt lat="46.2404861450195" lon="7.30011081695557"><ele></ele><time>2013-8-5T23:8:38Z</time></trkpt>
<trkpt lat="46.2404670715332" lon="7.30009365081787"><ele></ele><time>2013-8-5T23:8:41Z</time></trkpt>
<trkpt lat="46.2404479980469" lon="7.30007266998291"><ele></ele><time>2013-8-5T23:8:44Z</time></trkpt>
<trkpt lat="46.2403755187988" lon="7.29999446868896"><ele></ele><time>2013-8-5T23:8:47Z</time></trkpt>
<trkpt lat="46.2403526306152" lon="7.29997444152832"><ele></ele><time>2013-8-5T23:8:50Z</time></trkpt>
<trkpt lat="46.2403297424316" lon="7.29995584487915"><ele></ele><time>2013-8-5T23:8:53Z</time></trkpt>
<trkpt lat="46.2403106689453" lon="7.29993581771851"><ele></ele><time>2013-8-5T23:8:56Z</time></trkpt>
<trkpt lat="46.240291595459" lon="7.2999153137207"><ele></ele><time>2013-8-5T23:8:59Z</time></trkpt>
<trkpt lat="46.2402420043945" lon="7.29986047744751"><ele></ele><time>2013-8-5T23:9:2Z</time></trkpt>
<trkpt lat="46.2402229309082" lon="7.29984140396118"><ele></ele><time>2013-8-5T23:9:5Z</time></trkpt>
<trkpt lat="46.2402000427246" lon="7.29982376098633"><ele></ele><time>2013-8-5T23:9:8Z</time></trkpt>
<trkpt lat="46.2401847839356" lon="7.29980325698852"><ele></ele><time>2013-8-5T23:9:11Z</time></trkpt>
<trkpt lat="46.2401657104492" lon="7.29978466033936"><ele></ele><time>2013-8-5T23:9:14Z</time></trkpt>
<trkpt lat="46.2401428222656" lon="7.2997636795044"><ele></ele><time>2013-8-5T23:9:17Z</time></trkpt>
<trkpt lat="46.2400817871094" lon="7.29969692230225"><ele></ele><time>2013-8-5T23:9:20Z</time></trkpt>
<trkpt lat="46.2400321960449" lon="7.29962778091431"><ele></ele><time>2013-8-5T23:9:23Z</time></trkpt>
<trkpt lat="46.2400169372559" lon="7.2996015548706"><ele></ele><time>2013-8-5T23:9:26Z</time></trkpt>
<trkpt lat="46.2400016784668" lon="7.29957437515259"><ele></ele><time>2013-8-5T23:9:29Z</time></trkpt>
<trkpt lat="46.2399864196777" lon="7.29954767227173"><ele></ele><time>2013-8-5T23:9:32Z</time></trkpt>
<trkpt lat="46.2399749755859" lon="7.29952096939087"><ele></ele><time>2013-8-5T23:9:35Z</time></trkpt>
<trkpt lat="46.2399559020996" lon="7.29949331283569"><ele></ele><time>2013-8-5T23:9:38Z</time></trkpt>
<trkpt lat="46.2398948669434" lon="7.29938459396362"><ele></ele><time>2013-8-5T23:9:41Z</time></trkpt>
<trkpt lat="46.239875793457" lon="7.2993597984314"><ele></ele><time>2013-8-5T23:9:44Z</time></trkpt>
<trkpt lat="46.2398643493652" lon="7.29933309555054"><ele></ele><time>2013-8-5T23:9:47Z</time></trkpt>
<trkpt lat="46.2398490905762" lon="7.29930543899536"><ele></ele><time>2013-8-5T23:9:50Z</time></trkpt>
<trkpt lat="46.2398338317871" lon="7.29927682876587"><ele></ele><time>2013-8-5T23:9:53Z</time></trkpt>
<trkpt lat="46.2397842407227" lon="7.29919242858887"><ele></ele><time>2013-8-5T23:9:56Z</time></trkpt>
<trkpt lat="46.2397689819336" lon="7.29916381835938"><ele></ele><time>2013-8-5T23:9:59Z</time></trkpt>
<trkpt lat="46.2397499084473" lon="7.29913568496704"><ele></ele><time>2013-8-5T23:10:2Z</time></trkpt>
<trkpt lat="46.2397384643555" lon="7.29910802841186"><ele></ele><time>2013-8-5T23:10:5Z</time></trkpt>
<trkpt lat="46.2397232055664" lon="7.29908180236816"><ele></ele><time>2013-8-5T23:10:8Z</time></trkpt>
<trkpt lat="46.2397117614746" lon="7.29905319213867"><ele></ele><time>2013-8-5T23:10:11Z</time></trkpt>
<trkpt lat="46.2396392822266" lon="7.29890394210815"><ele></ele><time>2013-8-5T23:10:14Z</time></trkpt>
<trkpt lat="46.2396240234375" lon="7.2988748550415"><ele></ele><time>2013-8-5T23:10:17Z</time></trkpt>
<trkpt lat="46.2396087646484" lon="7.29884433746338"><ele></ele><time>2013-8-5T23:10:20Z</time></trkpt>
<trkpt lat="46.2395935058594" lon="7.2988133430481"><ele></ele><time>2013-8-5T23:10:23Z</time></trkpt>
<trkpt lat="46.2395782470703" lon="7.29878282546997"><ele></ele><time>2013-8-5T23:10:26Z</time></trkpt>
<trkpt lat="46.2394981384277" lon="7.29861068725586"><ele></ele><time>2013-8-5T23:10:29Z</time></trkpt>
<trkpt lat="46.2394828796387" lon="7.29858112335205"><ele></ele><time>2013-8-5T23:10:32Z</time></trkpt>
<trkpt lat="46.2394676208496" lon="7.29855012893677"><ele></ele><time>2013-8-5T23:10:35Z</time></trkpt>
<trkpt lat="46.2394523620606" lon="7.29851675033569"><ele></ele><time>2013-8-5T23:10:38Z</time></trkpt>
<trkpt lat="46.2394371032715" lon="7.29848623275757"><ele></ele><time>2013-8-5T23:10:41Z</time></trkpt>
<trkpt lat="46.2393951416016" lon="7.29839563369751"><ele></ele><time>2013-8-5T23:10:44Z</time></trkpt>
<trkpt lat="46.2393798828125" lon="7.29836750030518"><ele></ele><time>2013-8-5T23:10:47Z</time></trkpt>
<trkpt lat="46.2393646240234" lon="7.29833841323852"><ele></ele><time>2013-8-5T23:10:50Z</time></trkpt>
<trkpt lat="46.2393531799316" lon="7.29830980300903"><ele></ele><time>2013-8-5T23:10:53Z</time></trkpt>
<trkpt lat="46.2393379211426" lon="7.29827833175659"><ele></ele><time>2013-8-5T23:10:56Z</time></trkpt>
<trkpt lat="46.2393226623535" lon="7.29825067520142"><ele></ele><time>2013-8-5T23:10:59Z</time></trkpt>
<trkpt lat="46.2392997741699" lon="7.29818916320801"><ele></ele><time>2013-8-5T23:11:2Z</time></trkpt>
<trkpt lat="46.2392845153809" lon="7.29815769195557"><ele></ele><time>2013-8-5T23:11:5Z</time></trkpt>
<trkpt lat="46.2392692565918" lon="7.29812717437744"><ele></ele><time>2013-8-5T23:11:8Z</time></trkpt>
<trkpt lat="46.2392539978027" lon="7.29809665679932"><ele></ele><time>2013-8-5T23:11:11Z</time></trkpt>
<trkpt lat="46.2392387390137" lon="7.29806661605835"><ele></ele><time>2013-8-5T23:11:14Z</time></trkpt>
<trkpt lat="46.2392082214356" lon="7.29800891876221"><ele></ele><time>2013-8-5T23:11:17Z</time></trkpt>
<trkpt lat="46.2391662597656" lon="7.29791164398193"><ele></ele><time>2013-8-5T23:11:20Z</time></trkpt>
<trkpt lat="46.2391548156738" lon="7.29788064956665"><ele></ele><time>2013-8-5T23:11:23Z</time></trkpt>
<trkpt lat="46.2391395568848" lon="7.29785060882568"><ele></ele><time>2013-8-5T23:11:26Z</time></trkpt>
<trkpt lat="46.2391204833984" lon="7.29782199859619"><ele></ele><time>2013-8-5T23:11:29Z</time></trkpt>
<trkpt lat="46.239086151123" lon="7.29776334762573"><ele></ele><time>2013-8-5T23:11:32Z</time></trkpt>
<trkpt lat="46.2389450073242" lon="7.29753684997559"><ele></ele><time>2013-8-5T23:11:35Z</time></trkpt>
<trkpt lat="46.2389068603516" lon="7.2974853515625"><ele></ele><time>2013-8-5T23:11:38Z</time></trkpt>
<trkpt lat="46.238883972168" lon="7.29745674133301"><ele></ele><time>2013-8-5T23:11:41Z</time></trkpt>
<trkpt lat="46.2388648986816" lon="7.29742765426636"><ele></ele><time>2013-8-5T23:11:44Z</time></trkpt>
<trkpt lat="46.2388458251953" lon="7.29739809036255"><ele></ele><time>2013-8-5T23:11:47Z</time></trkpt>
<trkpt lat="46.2388229370117" lon="7.29736995697022"><ele></ele><time>2013-8-5T23:11:50Z</time></trkpt>
<trkpt lat="46.2387428283691" lon="7.29724836349487"><ele></ele><time>2013-8-5T23:11:53Z</time></trkpt>
<trkpt lat="46.2386207580566" lon="7.2970700263977"><ele></ele><time>2013-8-5T23:11:56Z</time></trkpt>
<trkpt lat="46.2386054992676" lon="7.29704093933106"><ele></ele><time>2013-8-5T23:11:59Z</time></trkpt>
<trkpt lat="46.2385902404785" lon="7.29701280593872"><ele></ele><time>2013-8-5T23:12:2Z</time></trkpt>
<trkpt lat="46.2385749816894" lon="7.29698181152344"><ele></ele><time>2013-8-5T23:12:5Z</time></trkpt>
<trkpt lat="46.2385597229004" lon="7.29695224761963"><ele></ele><time>2013-8-5T23:12:8Z</time></trkpt>
<trkpt lat="46.2384300231934" lon="7.29674816131592"><ele></ele><time>2013-8-5T23:12:11Z</time></trkpt>
<trkpt lat="46.2384147644043" lon="7.29672145843506"><ele></ele><time>2013-8-5T23:12:14Z</time></trkpt>
<trkpt lat="46.238395690918" lon="7.29669618606567"><ele></ele><time>2013-8-5T23:12:17Z</time></trkpt>
<trkpt lat="46.2383728027344" lon="7.29667234420776"><ele></ele><time>2013-8-5T23:12:20Z</time></trkpt>
<trkpt lat="46.2383499145508" lon="7.29664659500122"><ele></ele><time>2013-8-5T23:12:23Z</time></trkpt>
<trkpt lat="46.2382659912109" lon="7.29655456542969"><ele></ele><time>2013-8-5T23:12:26Z</time></trkpt>
<trkpt lat="46.238208770752" lon="7.29648685455322"><ele></ele><time>2013-8-5T23:12:29Z</time></trkpt>
<trkpt lat="46.2381935119629" lon="7.29645729064941"><ele></ele><time>2013-8-5T23:12:32Z</time></trkpt>
<trkpt lat="46.2381744384766" lon="7.29643058776856"><ele></ele><time>2013-8-5T23:12:35Z</time></trkpt>
<trkpt lat="46.2381591796875" lon="7.29640197753906"><ele></ele><time>2013-8-5T23:12:38Z</time></trkpt>
<trkpt lat="46.2381439208984" lon="7.2963695526123"><ele></ele><time>2013-8-5T23:12:41Z</time></trkpt>
<trkpt lat="46.2380867004394" lon="7.29628944396973"><ele></ele><time>2013-8-5T23:12:44Z</time></trkpt>
<trkpt lat="46.2380676269531" lon="7.29626369476318"><ele></ele><time>2013-8-5T23:12:47Z</time></trkpt>
<trkpt lat="46.2380485534668" lon="7.29623794555664"><ele></ele><time>2013-8-5T23:12:50Z</time></trkpt>
<trkpt lat="46.2380294799805" lon="7.29621362686157"><ele></ele><time>2013-8-5T23:12:53Z</time></trkpt>
<trkpt lat="46.2380142211914" lon="7.2961893081665"><ele></ele><time>2013-8-5T23:12:56Z</time></trkpt>
<trkpt lat="46.237979888916" lon="7.29613971710205"><ele></ele><time>2013-8-5T23:12:59Z</time></trkpt>
<trkpt lat="46.2379608154297" lon="7.29611349105835"><ele></ele><time>2013-8-5T23:13:2Z</time></trkpt>
<trkpt lat="46.2379455566406" lon="7.29608583450317"><ele></ele><time>2013-8-5T23:13:5Z</time></trkpt>
<trkpt lat="46.2379302978516" lon="7.296058177948"><ele></ele><time>2013-8-5T23:13:8Z</time></trkpt>
<trkpt lat="46.2379150390625" lon="7.29602956771851"><ele></ele><time>2013-8-5T23:13:11Z</time></trkpt>
<trkpt lat="46.2378768920898" lon="7.29597187042236"><ele></ele><time>2013-8-5T23:13:14Z</time></trkpt>
<trkpt lat="46.2378120422363" lon="7.2958607673645"><ele></ele><time>2013-8-5T23:13:17Z</time></trkpt>
<trkpt lat="46.2378005981445" lon="7.29583168029785"><ele></ele><time>2013-8-5T23:13:20Z</time></trkpt>
<trkpt lat="46.2377853393555" lon="7.29580163955688"><ele></ele><time>2013-8-5T23:13:23Z</time></trkpt>
<trkpt lat="46.2377700805664" lon="7.29577207565308"><ele></ele><time>2013-8-5T23:13:26Z</time></trkpt>
<trkpt lat="46.2377548217773" lon="7.29574394226074"><ele></ele><time>2013-8-5T23:13:29Z</time></trkpt>
<trkpt lat="46.2376899719238" lon="7.29560136795044"><ele></ele><time>2013-8-5T23:13:32Z</time></trkpt>
<trkpt lat="46.237678527832" lon="7.29557275772095"><ele></ele><time>2013-8-5T23:13:35Z</time></trkpt>
<trkpt lat="46.2376670837402" lon="7.29554414749146"><ele></ele><time>2013-8-5T23:13:38Z</time></trkpt>
<trkpt lat="46.2376556396484" lon="7.2955117225647"><ele></ele><time>2013-8-5T23:13:41Z</time></trkpt>
<trkpt lat="46.2376403808594" lon="7.29548072814941"><ele></ele><time>2013-8-5T23:13:44Z</time></trkpt>
<trkpt lat="46.2375755310059" lon="7.29533386230469"><ele></ele><time>2013-8-5T23:13:47Z</time></trkpt>
<trkpt lat="46.2375640869141" lon="7.29530143737793"><ele></ele><time>2013-8-5T23:13:50Z</time></trkpt>
<trkpt lat="46.2375526428223" lon="7.29527044296265"><ele></ele><time>2013-8-5T23:13:53Z</time></trkpt>
<trkpt lat="46.2375450134277" lon="7.29523944854736"><ele></ele><time>2013-8-5T23:13:56Z</time></trkpt>
<trkpt lat="46.2375335693359" lon="7.29520845413208"><ele></ele><time>2013-8-5T23:13:59Z</time></trkpt>
<trkpt lat="46.2374992370606" lon="7.29511404037476"><ele></ele><time>2013-8-5T23:14:2Z</time></trkpt>
<trkpt lat="46.2374877929688" lon="7.29508256912232"><ele></ele><time>2013-8-5T23:14:5Z</time></trkpt>
<trkpt lat="46.2374725341797" lon="7.29505109786987"><ele></ele><time>2013-8-5T23:14:8Z</time></trkpt>
<trkpt lat="46.2374610900879" lon="7.29502201080322"><ele></ele><time>2013-8-5T23:14:11Z</time></trkpt>
<trkpt lat="46.2373962402344" lon="7.29483032226562"><ele></ele><time>2013-8-5T23:14:14Z</time></trkpt>
<trkpt lat="46.237377166748" lon="7.2947678565979"><ele></ele><time>2013-8-5T23:14:17Z</time></trkpt>
<trkpt lat="46.2373657226562" lon="7.29473733901978"><ele></ele><time>2013-8-5T23:14:20Z</time></trkpt>
<trkpt lat="46.2373580932617" lon="7.29470348358154"><ele></ele><time>2013-8-5T23:14:23Z</time></trkpt>
<trkpt lat="46.2373466491699" lon="7.2946720123291"><ele></ele><time>2013-8-5T23:14:26Z</time></trkpt>
<trkpt lat="46.2373390197754" lon="7.2946400642395"><ele></ele><time>2013-8-5T23:14:29Z</time></trkpt>
<trkpt lat="46.2373123168945" lon="7.29454326629639"><ele></ele><time>2013-8-5T23:14:32Z</time></trkpt>
<trkpt lat="46.2373046875" lon="7.29450702667236"><ele></ele><time>2013-8-5T23:14:35Z</time></trkpt>
<trkpt lat="46.2372970581055" lon="7.29447174072266"><ele></ele><time>2013-8-5T23:14:38Z</time></trkpt>
<trkpt lat="46.2372856140137" lon="7.29443740844726"><ele></ele><time>2013-8-5T23:14:41Z</time></trkpt>
<trkpt lat="46.2372817993164" lon="7.29440116882324"><ele></ele><time>2013-8-5T23:14:44Z</time></trkpt>
<trkpt lat="46.2372741699219" lon="7.2943639755249"><ele></ele><time>2013-8-5T23:14:47Z</time></trkpt>
<trkpt lat="46.2372703552246" lon="7.29432773590088"><ele></ele><time>2013-8-5T23:14:50Z</time></trkpt>
<trkpt lat="46.2372665405273" lon="7.29429292678833"><ele></ele><time>2013-8-5T23:14:53Z</time></trkpt>
<trkpt lat="46.2372627258301" lon="7.29425859451294"><ele></ele><time>2013-8-5T23:14:56Z</time></trkpt>
<trkpt lat="46.2372550964356" lon="7.29422187805176"><ele></ele><time>2013-8-5T23:14:59Z</time></trkpt>
<trkpt lat="46.237232208252" lon="7.29399871826172"><ele></ele><time>2013-8-5T23:15:2Z</time></trkpt>
<trkpt lat="46.237232208252" lon="7.29389333724976"><ele></ele><time>2013-8-5T23:15:5Z</time></trkpt>
<trkpt lat="46.2372398376465" lon="7.29382181167602"><ele></ele><time>2013-8-5T23:15:8Z</time></trkpt>
<trkpt lat="46.2372398376465" lon="7.293785572052"><ele></ele><time>2013-8-5T23:15:11Z</time></trkpt>
<trkpt lat="46.2372436523438" lon="7.29374885559082"><ele></ele><time>2013-8-5T23:15:14Z</time></trkpt>
<trkpt lat="46.237247467041" lon="7.29371404647827"><ele></ele><time>2013-8-5T23:15:17Z</time></trkpt>
<trkpt lat="46.2372512817383" lon="7.29367828369141"><ele></ele><time>2013-8-5T23:15:20Z</time></trkpt>
<trkpt lat="46.2372589111328" lon="7.29360580444336"><ele></ele><time>2013-8-5T23:15:23Z</time></trkpt>
<trkpt lat="46.2372894287109" lon="7.29343891143799"><ele></ele><time>2013-8-5T23:15:26Z</time></trkpt>
<trkpt lat="46.2373085021973" lon="7.29337024688721"><ele></ele><time>2013-8-5T23:15:29Z</time></trkpt>
<trkpt lat="46.2373199462891" lon="7.29333734512329"><ele></ele><time>2013-8-5T23:15:32Z</time></trkpt>
<trkpt lat="46.2374076843262" lon="7.29308080673218"><ele></ele><time>2013-8-5T23:15:35Z</time></trkpt>
<trkpt lat="46.237419128418" lon="7.29305171966553"><ele></ele><time>2013-8-5T23:15:38Z</time></trkpt>
<trkpt lat="46.237434387207" lon="7.29302024841309"><ele></ele><time>2013-8-5T23:15:41Z</time></trkpt>
<trkpt lat="46.2374496459961" lon="7.29299259185791"><ele></ele><time>2013-8-5T23:15:44Z</time></trkpt>
<trkpt lat="46.2374649047852" lon="7.29296350479126"><ele></ele><time>2013-8-5T23:15:47Z</time></trkpt>
<trkpt lat="46.2375144958496" lon="7.2928729057312"><ele></ele><time>2013-8-5T23:15:50Z</time></trkpt>
<trkpt lat="46.2375297546387" lon="7.29284572601318"><ele></ele><time>2013-8-5T23:15:53Z</time></trkpt>
<trkpt lat="46.2375450134277" lon="7.29281854629517"><ele></ele><time>2013-8-5T23:15:56Z</time></trkpt>
<trkpt lat="46.2375640869141" lon="7.29279470443726"><ele></ele><time>2013-8-5T23:15:59Z</time></trkpt>
<trkpt lat="46.2375869750977" lon="7.2927680015564"><ele></ele><time>2013-8-5T23:16:2Z</time></trkpt>
<trkpt lat="46.2376403808594" lon="7.29270601272583"><ele></ele><time>2013-8-5T23:16:5Z</time></trkpt>
<trkpt lat="46.2377662658691" lon="7.29257726669312"><ele></ele><time>2013-8-5T23:16:8Z</time></trkpt>
<trkpt lat="46.2377891540527" lon="7.29255962371826"><ele></ele><time>2013-8-5T23:16:11Z</time></trkpt>
<trkpt lat="46.2378120422363" lon="7.29254293441772"><ele></ele><time>2013-8-5T23:16:14Z</time></trkpt>
<trkpt lat="46.2378349304199" lon="7.2925271987915"><ele></ele><time>2013-8-5T23:16:17Z</time></trkpt>
<trkpt lat="46.2378540039062" lon="7.29251194000244"><ele></ele><time>2013-8-5T23:16:20Z</time></trkpt>
<trkpt lat="46.2378768920898" lon="7.29249954223633"><ele></ele><time>2013-8-5T23:16:23Z</time></trkpt>
<trkpt lat="46.2378997802734" lon="7.29248476028442"><ele></ele><time>2013-8-5T23:16:26Z</time></trkpt>
<trkpt lat="46.2379188537598" lon="7.29246997833252"><ele></ele><time>2013-8-5T23:16:29Z</time></trkpt>
<trkpt lat="46.2379417419434" lon="7.29245567321777"><ele></ele><time>2013-8-5T23:16:32Z</time></trkpt>
<trkpt lat="46.237964630127" lon="7.29244041442871"><ele></ele><time>2013-8-5T23:16:35Z</time></trkpt>
<trkpt lat="46.2379875183106" lon="7.29242753982544"><ele></ele><time>2013-8-5T23:16:38Z</time></trkpt>
<trkpt lat="46.2381744384766" lon="7.29232406616211"><ele></ele><time>2013-8-5T23:16:41Z</time></trkpt>
<trkpt lat="46.2381935119629" lon="7.2923092842102"><ele></ele><time>2013-8-5T23:16:44Z</time></trkpt>
<trkpt lat="46.2382164001465" lon="7.29229211807251"><ele></ele><time>2013-8-5T23:16:47Z</time></trkpt>
<trkpt lat="46.2382354736328" lon="7.29227304458618"><ele></ele><time>2013-8-5T23:16:50Z</time></trkpt>
<trkpt lat="46.2382545471191" lon="7.29225254058838"><ele></ele><time>2013-8-5T23:16:53Z</time></trkpt>
<trkpt lat="46.2383193969727" lon="7.292160987854"><ele></ele><time>2013-8-5T23:16:56Z</time></trkpt>
<trkpt lat="46.2383346557617" lon="7.29213666915894"><ele></ele><time>2013-8-5T23:16:59Z</time></trkpt>
<trkpt lat="46.2383499145508" lon="7.29211091995239"><ele></ele><time>2013-8-5T23:17:2Z</time></trkpt>
<trkpt lat="46.2383613586426" lon="7.29208087921143"><ele></ele><time>2013-8-5T23:17:5Z</time></trkpt>
<trkpt lat="46.2383689880371" lon="7.29204893112183"><ele></ele><time>2013-8-5T23:17:8Z</time></trkpt>
<trkpt lat="46.2383804321289" lon="7.29201650619507"><ele></ele><time>2013-8-5T23:17:11Z</time></trkpt>
<trkpt lat="46.2383918762207" lon="7.29198408126831"><ele></ele><time>2013-8-5T23:17:14Z</time></trkpt>
<trkpt lat="46.2384033203125" lon="7.2919487953186"><ele></ele><time>2013-8-5T23:17:17Z</time></trkpt>
<trkpt lat="46.2384071350098" lon="7.29191255569458"><ele></ele><time>2013-8-5T23:17:20Z</time></trkpt>
<trkpt lat="46.2384147644043" lon="7.29187250137329"><ele></ele><time>2013-8-5T23:17:23Z</time></trkpt>
<trkpt lat="46.2384262084961" lon="7.2917366027832"><ele></ele><time>2013-8-5T23:17:26Z</time></trkpt>
<trkpt lat="46.2383766174316" lon="7.29144906997681"><ele></ele><time>2013-8-5T23:17:29Z</time></trkpt>
<trkpt lat="46.23828125" lon="7.29127216339111"><ele></ele><time>2013-8-5T23:17:32Z</time></trkpt>
<trkpt lat="46.2382659912109" lon="7.29124164581299"><ele></ele><time>2013-8-5T23:17:35Z</time></trkpt>
<trkpt lat="46.2382507324219" lon="7.29120922088623"><ele></ele><time>2013-8-5T23:17:38Z</time></trkpt>
<trkpt lat="46.2382316589356" lon="7.29117727279663"><ele></ele><time>2013-8-5T23:17:41Z</time></trkpt>
<trkpt lat="46.2382125854492" lon="7.29114437103272"><ele></ele><time>2013-8-5T23:17:44Z</time></trkpt>
<trkpt lat="46.2381248474121" lon="7.29095840454102"><ele></ele><time>2013-8-5T23:17:47Z</time></trkpt>
<trkpt lat="46.2380332946777" lon="7.29070234298706"><ele></ele><time>2013-8-5T23:17:50Z</time></trkpt>
<trkpt lat="46.2380218505859" lon="7.29065608978272"><ele></ele><time>2013-8-5T23:17:53Z</time></trkpt>
<trkpt lat="46.2380027770996" lon="7.29061222076416"><ele></ele><time>2013-8-5T23:17:56Z</time></trkpt>
<trkpt lat="46.2379913330078" lon="7.29056310653686"><ele></ele><time>2013-8-5T23:17:59Z</time></trkpt>
<trkpt lat="46.237979888916" lon="7.29051542282104"><ele></ele><time>2013-8-5T23:18:2Z</time></trkpt>
<trkpt lat="46.237964630127" lon="7.29047012329102"><ele></ele><time>2013-8-5T23:18:5Z</time></trkpt>
<trkpt lat="46.2379493713379" lon="7.29042673110962"><ele></ele><time>2013-8-5T23:18:8Z</time></trkpt>
<trkpt lat="46.2379417419434" lon="7.2903208732605"><ele></ele><time>2013-8-5T23:18:11Z</time></trkpt>
<trkpt lat="46.2379531860352" lon="7.29006004333496"><ele></ele><time>2013-8-5T23:18:14Z</time></trkpt>
<trkpt lat="46.2380332946777" lon="7.28970623016357"><ele></ele><time>2013-8-5T23:18:17Z</time></trkpt>
<trkpt lat="46.2380027770996" lon="7.28939342498779"><ele></ele><time>2013-8-5T23:18:20Z</time></trkpt>
<trkpt lat="46.237964630127" lon="7.28921699523926"><ele></ele><time>2013-8-5T23:18:23Z</time></trkpt>
<trkpt lat="46.2379531860352" lon="7.28903484344482"><ele></ele><time>2013-8-5T23:18:26Z</time></trkpt>
<trkpt lat="46.2379302978516" lon="7.28869247436524"><ele></ele><time>2013-8-5T23:18:29Z</time></trkpt>
<trkpt lat="46.2379035949707" lon="7.28850984573364"><ele></ele><time>2013-8-5T23:18:32Z</time></trkpt>
<trkpt lat="46.2378997802734" lon="7.28846597671509"><ele></ele><time>2013-8-5T23:18:35Z</time></trkpt>
<trkpt lat="46.2378921508789" lon="7.2884259223938"><ele></ele><time>2013-8-5T23:18:38Z</time></trkpt>
<trkpt lat="46.2378883361816" lon="7.28838109970093"><ele></ele><time>2013-8-5T23:18:41Z</time></trkpt>
<trkpt lat="46.2378845214844" lon="7.28833627700806"><ele></ele><time>2013-8-5T23:18:44Z</time></trkpt>
<trkpt lat="46.2378692626953" lon="7.28821134567261"><ele></ele><time>2013-8-5T23:18:47Z</time></trkpt>
<trkpt lat="46.237865447998" lon="7.28816652297974"><ele></ele><time>2013-8-5T23:18:50Z</time></trkpt>
<trkpt lat="46.2378578186035" lon="7.28812408447266"><ele></ele><time>2013-8-5T23:18:53Z</time></trkpt>
<trkpt lat="46.2378540039062" lon="7.2880802154541"><ele></ele><time>2013-8-5T23:18:56Z</time></trkpt>
<trkpt lat="46.237850189209" lon="7.28803396224976"><ele></ele><time>2013-8-5T23:18:59Z</time></trkpt>
<trkpt lat="46.2378425598144" lon="7.28794717788696"><ele></ele><time>2013-8-5T23:19:2Z</time></trkpt>
<trkpt lat="46.2378196716309" lon="7.2878246307373"><ele></ele><time>2013-8-5T23:19:5Z</time></trkpt>
<trkpt lat="46.2378082275391" lon="7.28778791427612"><ele></ele><time>2013-8-5T23:19:8Z</time></trkpt>
<trkpt lat="46.2377967834473" lon="7.28775453567505"><ele></ele><time>2013-8-5T23:19:11Z</time></trkpt>
<trkpt lat="46.2377815246582" lon="7.28772020339966"><ele></ele><time>2013-8-5T23:19:14Z</time></trkpt>
<trkpt lat="46.2377662658691" lon="7.28768730163574"><ele></ele><time>2013-8-5T23:19:17Z</time></trkpt>
<trkpt lat="46.2377052307129" lon="7.28753995895386"><ele></ele><time>2013-8-5T23:19:20Z</time></trkpt>
<trkpt lat="46.2376861572266" lon="7.28750419616699"><ele></ele><time>2013-8-5T23:19:23Z</time></trkpt>
<trkpt lat="46.237663269043" lon="7.28746891021728"><ele></ele><time>2013-8-5T23:19:26Z</time></trkpt>
<trkpt lat="46.2376441955566" lon="7.28743600845337"><ele></ele><time>2013-8-5T23:19:29Z</time></trkpt>
<trkpt lat="46.2376289367676" lon="7.2873945236206"><ele></ele><time>2013-8-5T23:19:32Z</time></trkpt>
<trkpt lat="46.2375564575195" lon="7.28724479675293"><ele></ele><time>2013-8-5T23:19:35Z</time></trkpt>
<trkpt lat="46.2375373840332" lon="7.2872109413147"><ele></ele><time>2013-8-5T23:19:38Z</time></trkpt>
<trkpt lat="46.2375183105469" lon="7.28717613220215"><ele></ele><time>2013-8-5T23:19:41Z</time></trkpt>
<trkpt lat="46.2375030517578" lon="7.28714370727539"><ele></ele><time>2013-8-5T23:19:44Z</time></trkpt>
<trkpt lat="46.2374877929688" lon="7.28710985183716"><ele></ele><time>2013-8-5T23:19:47Z</time></trkpt>
<trkpt lat="46.2374000549316" lon="7.28691005706787"><ele></ele><time>2013-8-5T23:19:50Z</time></trkpt>
<trkpt lat="46.2373847961426" lon="7.28687572479248"><ele></ele><time>2013-8-5T23:19:53Z</time></trkpt>
<trkpt lat="46.2373695373535" lon="7.28684234619141"><ele></ele><time>2013-8-5T23:19:56Z</time></trkpt>
<trkpt lat="46.2373542785644" lon="7.28680992126465"><ele></ele><time>2013-8-5T23:19:59Z</time></trkpt>
<trkpt lat="46.2373390197754" lon="7.28677988052368"><ele></ele><time>2013-8-5T23:20:2Z</time></trkpt>
<trkpt lat="46.2372550964356" lon="7.28660774230957"><ele></ele><time>2013-8-5T23:20:5Z</time></trkpt>
<trkpt lat="46.2372398376465" lon="7.28657150268555"><ele></ele><time>2013-8-5T23:20:8Z</time></trkpt>
<trkpt lat="46.2372283935547" lon="7.28653573989868"><ele></ele><time>2013-8-5T23:20:11Z</time></trkpt>
<trkpt lat="46.2372207641602" lon="7.2864990234375"><ele></ele><time>2013-8-5T23:20:14Z</time></trkpt>
<trkpt lat="46.2372093200684" lon="7.28646183013916"><ele></ele><time>2013-8-5T23:20:17Z</time></trkpt>
<trkpt lat="46.2371978759766" lon="7.28641891479492"><ele></ele><time>2013-8-5T23:20:20Z</time></trkpt>
<trkpt lat="46.2371673583984" lon="7.28629016876221"><ele></ele><time>2013-8-5T23:20:23Z</time></trkpt>
<trkpt lat="46.2370948791504" lon="7.285973072052"><ele></ele><time>2013-8-5T23:20:26Z</time></trkpt>
<trkpt lat="46.237060546875" lon="7.28577423095703"><ele></ele><time>2013-8-5T23:20:29Z</time></trkpt>
<trkpt lat="46.2370262145996" lon="7.28556537628174"><ele></ele><time>2013-8-5T23:20:32Z</time></trkpt>
<trkpt lat="46.2370223999023" lon="7.28551197052002"><ele></ele><time>2013-8-5T23:20:35Z</time></trkpt>
<trkpt lat="46.2370223999023" lon="7.28545713424683"><ele></ele><time>2013-8-5T23:20:38Z</time></trkpt>
<trkpt lat="46.2370262145996" lon="7.285400390625"><ele></ele><time>2013-8-5T23:20:41Z</time></trkpt>
<trkpt lat="46.2370338439941" lon="7.2853422164917"><ele></ele><time>2013-8-5T23:20:44Z</time></trkpt>
<trkpt lat="46.2370376586914" lon="7.28528118133545"><ele></ele><time>2013-8-5T23:20:47Z</time></trkpt>
<trkpt lat="46.2370414733887" lon="7.28522491455078"><ele></ele><time>2013-8-5T23:20:50Z</time></trkpt>
<trkpt lat="46.2370758056641" lon="7.28484582901001"><ele></ele><time>2013-8-5T23:20:53Z</time></trkpt>
<trkpt lat="46.2370948791504" lon="7.28446817398071"><ele></ele><time>2013-8-5T23:20:56Z</time></trkpt>
<trkpt lat="46.2370872497559" lon="7.28413677215576"><ele></ele><time>2013-8-5T23:20:59Z</time></trkpt>
<trkpt lat="46.2370910644531" lon="7.28402471542358"><ele></ele><time>2013-8-5T23:21:2Z</time></trkpt>
<trkpt lat="46.2370872497559" lon="7.28362894058228"><ele></ele><time>2013-8-5T23:21:5Z</time></trkpt>
<trkpt lat="46.2370834350586" lon="7.28357315063476"><ele></ele><time>2013-8-5T23:21:8Z</time></trkpt>
<trkpt lat="46.2370414733887" lon="7.28305149078369"><ele></ele><time>2013-8-5T23:21:11Z</time></trkpt>
<trkpt lat="46.2370376586914" lon="7.28299188613892"><ele></ele><time>2013-8-5T23:21:14Z</time></trkpt>
<trkpt lat="46.2370262145996" lon="7.28293371200562"><ele></ele><time>2013-8-5T23:21:17Z</time></trkpt>
<trkpt lat="46.2370185852051" lon="7.28287363052368"><ele></ele><time>2013-8-5T23:21:20Z</time></trkpt>
<trkpt lat="46.2370109558106" lon="7.28281497955322"><ele></ele><time>2013-8-5T23:21:23Z</time></trkpt>
<trkpt lat="46.237003326416" lon="7.28270101547241"><ele></ele><time>2013-8-5T23:21:26Z</time></trkpt>
<trkpt lat="46.2369918823242" lon="7.28257942199707"><ele></ele><time>2013-8-5T23:21:29Z</time></trkpt>
<trkpt lat="46.2369575500488" lon="7.28220701217651"><ele></ele><time>2013-8-5T23:21:32Z</time></trkpt>
<trkpt lat="46.2369041442871" lon="7.28197002410889"><ele></ele><time>2013-8-5T23:21:35Z</time></trkpt>
<trkpt lat="46.2368583679199" lon="7.2817964553833"><ele></ele><time>2013-8-5T23:21:38Z</time></trkpt>
<trkpt lat="46.2367973327637" lon="7.28158569335938"><ele></ele><time>2013-8-5T23:21:41Z</time></trkpt>
<trkpt lat="46.2367858886719" lon="7.28153562545776"><ele></ele><time>2013-8-5T23:21:44Z</time></trkpt>
<trkpt lat="46.2367744445801" lon="7.28148698806763"><ele></ele><time>2013-8-5T23:21:47Z</time></trkpt>
<trkpt lat="46.2367668151856" lon="7.28143930435181"><ele></ele><time>2013-8-5T23:21:50Z</time></trkpt>
<trkpt lat="46.2367668151856" lon="7.28139162063599"><ele></ele><time>2013-8-5T23:21:53Z</time></trkpt>
<trkpt lat="46.2368125915527" lon="7.28123188018799"><ele></ele><time>2013-8-5T23:21:56Z</time></trkpt>
<trkpt lat="46.2368278503418" lon="7.28119468688965"><ele></ele><time>2013-8-5T23:21:59Z</time></trkpt>
<trkpt lat="46.2368507385254" lon="7.28115320205688"><ele></ele><time>2013-8-5T23:22:2Z</time></trkpt>
<trkpt lat="46.2368659973144" lon="7.28111362457275"><ele></ele><time>2013-8-5T23:22:5Z</time></trkpt>
<trkpt lat="46.2368774414062" lon="7.28107404708862"><ele></ele><time>2013-8-5T23:22:8Z</time></trkpt>
<trkpt lat="46.2369041442871" lon="7.28099870681763"><ele></ele><time>2013-8-5T23:22:11Z</time></trkpt>
<trkpt lat="46.2369384765625" lon="7.28092002868652"><ele></ele><time>2013-8-5T23:22:14Z</time></trkpt>
<trkpt lat="46.2369537353516" lon="7.28088712692261"><ele></ele><time>2013-8-5T23:22:17Z</time></trkpt>
<trkpt lat="46.2369651794434" lon="7.28084945678711"><ele></ele><time>2013-8-5T23:22:20Z</time></trkpt>
<trkpt lat="46.2369804382324" lon="7.28080701828003"><ele></ele><time>2013-8-5T23:22:23Z</time></trkpt>
<trkpt lat="46.2369995117188" lon="7.28076553344726"><ele></ele><time>2013-8-5T23:22:26Z</time></trkpt>
<trkpt lat="46.2370338439941" lon="7.28065395355225"><ele></ele><time>2013-8-5T23:22:29Z</time></trkpt>
<trkpt lat="46.2370491027832" lon="7.28061628341675"><ele></ele><time>2013-8-5T23:22:32Z</time></trkpt>
<trkpt lat="46.2370758056641" lon="7.28054046630859"><ele></ele><time>2013-8-5T23:22:35Z</time></trkpt>
<trkpt lat="46.2370910644531" lon="7.28050136566162"><ele></ele><time>2013-8-5T23:22:38Z</time></trkpt>
<trkpt lat="46.2371101379394" lon="7.2804651260376"><ele></ele><time>2013-8-5T23:22:41Z</time></trkpt>
<trkpt lat="46.2371253967285" lon="7.28042984008789"><ele></ele><time>2013-8-5T23:22:44Z</time></trkpt>
<trkpt lat="46.2371406555176" lon="7.28039646148682"><ele></ele><time>2013-8-5T23:22:47Z</time></trkpt>
<trkpt lat="46.2371826171875" lon="7.2802562713623"><ele></ele><time>2013-8-5T23:22:50Z</time></trkpt>
<trkpt lat="46.2371864318848" lon="7.28021383285522"><ele></ele><time>2013-8-5T23:22:53Z</time></trkpt>
<trkpt lat="46.237190246582" lon="7.28017520904541"><ele></ele><time>2013-8-5T23:22:56Z</time></trkpt>
<trkpt lat="46.237190246582" lon="7.28013563156128"><ele></ele><time>2013-8-5T23:22:59Z</time></trkpt>
<trkpt lat="46.2371826171875" lon="7.28009653091431"><ele></ele><time>2013-8-5T23:23:2Z</time></trkpt>
<trkpt lat="46.2371482849121" lon="7.27999687194824"><ele></ele><time>2013-8-5T23:23:5Z</time></trkpt>
<trkpt lat="46.237117767334" lon="7.27992916107178"><ele></ele><time>2013-8-5T23:23:8Z</time></trkpt>
<trkpt lat="46.2371025085449" lon="7.27989625930786"><ele></ele><time>2013-8-5T23:23:11Z</time></trkpt>
<trkpt lat="46.2370910644531" lon="7.27986431121826"><ele></ele><time>2013-8-5T23:23:14Z</time></trkpt>
<trkpt lat="46.2370758056641" lon="7.2798342704773"><ele></ele><time>2013-8-5T23:23:17Z</time></trkpt>
<trkpt lat="46.2370643615723" lon="7.27980661392212"><ele></ele><time>2013-8-5T23:23:20Z</time></trkpt>
<trkpt lat="46.2370376586914" lon="7.27974271774292"><ele></ele><time>2013-8-5T23:23:23Z</time></trkpt>
<trkpt lat="46.2370185852051" lon="7.27967214584351"><ele></ele><time>2013-8-5T23:23:26Z</time></trkpt>
<trkpt lat="46.2370109558106" lon="7.27963352203369"><ele></ele><time>2013-8-5T23:23:29Z</time></trkpt>
<trkpt lat="46.2369995117188" lon="7.27959632873535"><ele></ele><time>2013-8-5T23:23:32Z</time></trkpt>
<trkpt lat="46.2369918823242" lon="7.27955770492554"><ele></ele><time>2013-8-5T23:23:35Z</time></trkpt>
<trkpt lat="46.2369842529297" lon="7.2795205116272"><ele></ele><time>2013-8-5T23:23:38Z</time></trkpt>
<trkpt lat="46.2369766235352" lon="7.27948522567749"><ele></ele><time>2013-8-5T23:23:41Z</time></trkpt>
<trkpt lat="46.2369384765625" lon="7.27930927276611"><ele></ele><time>2013-8-5T23:23:44Z</time></trkpt>
<trkpt lat="46.236930847168" lon="7.27927303314209"><ele></ele><time>2013-8-5T23:23:47Z</time></trkpt>
<trkpt lat="46.2369232177734" lon="7.27923631668091"><ele></ele><time>2013-8-5T23:23:50Z</time></trkpt>
<trkpt lat="46.2369155883789" lon="7.27919816970825"><ele></ele><time>2013-8-5T23:23:53Z</time></trkpt>
<trkpt lat="46.236873626709" lon="7.27899599075317"><ele></ele><time>2013-8-5T23:23:56Z</time></trkpt>
<trkpt lat="46.2368659973144" lon="7.27896165847778"><ele></ele><time>2013-8-5T23:23:59Z</time></trkpt>
<trkpt lat="46.2368583679199" lon="7.27892827987671"><ele></ele><time>2013-8-5T23:24:2Z</time></trkpt>
<trkpt lat="46.2368507385254" lon="7.27889251708984"><ele></ele><time>2013-8-5T23:24:5Z</time></trkpt>
<trkpt lat="46.2368469238281" lon="7.27885675430298"><ele></ele><time>2013-8-5T23:24:8Z</time></trkpt>
<trkpt lat="46.2368087768555" lon="7.27868747711182"><ele></ele><time>2013-8-5T23:24:11Z</time></trkpt>
<trkpt lat="46.2368011474609" lon="7.2786545753479"><ele></ele><time>2013-8-5T23:24:14Z</time></trkpt>
<trkpt lat="46.2367973327637" lon="7.27862453460693"><ele></ele><time>2013-8-5T23:24:17Z</time></trkpt>
<trkpt lat="46.2367897033691" lon="7.2785906791687"><ele></ele><time>2013-8-5T23:24:20Z</time></trkpt>
<trkpt lat="46.2367820739746" lon="7.27855777740478"><ele></ele><time>2013-8-5T23:24:23Z</time></trkpt>
<trkpt lat="46.2367668151856" lon="7.27845764160156"><ele></ele><time>2013-8-5T23:24:26Z</time></trkpt>
<trkpt lat="46.2367553710938" lon="7.27842283248901"><ele></ele><time>2013-8-5T23:24:29Z</time></trkpt>
<trkpt lat="46.2367515563965" lon="7.27838516235352"><ele></ele><time>2013-8-5T23:24:32Z</time></trkpt>
<trkpt lat="46.236743927002" lon="7.27835083007812"><ele></ele><time>2013-8-5T23:24:35Z</time></trkpt>
<trkpt lat="46.2367172241211" lon="7.27826023101807"><ele></ele><time>2013-8-5T23:24:38Z</time></trkpt>
<trkpt lat="46.236686706543" lon="7.27816343307495"><ele></ele><time>2013-8-5T23:24:41Z</time></trkpt>
<trkpt lat="46.2366790771484" lon="7.27813339233398"><ele></ele><time>2013-8-5T23:24:44Z</time></trkpt>
<trkpt lat="46.2366676330566" lon="7.27810382843018"><ele></ele><time>2013-8-5T23:24:47Z</time></trkpt>
<trkpt lat="46.2366561889648" lon="7.27807569503784"><ele></ele><time>2013-8-5T23:24:50Z</time></trkpt>
<trkpt lat="46.2366485595703" lon="7.27804899215698"><ele></ele><time>2013-8-5T23:24:53Z</time></trkpt>
<trkpt lat="46.2366256713867" lon="7.27799272537232"><ele></ele><time>2013-8-5T23:24:56Z</time></trkpt>
<trkpt lat="46.2365646362305" lon="7.27785682678223"><ele></ele><time>2013-8-5T23:24:59Z</time></trkpt>
<trkpt lat="46.2365493774414" lon="7.27782917022705"><ele></ele><time>2013-8-5T23:25:2Z</time></trkpt>
<trkpt lat="46.2365341186523" lon="7.27780103683472"><ele></ele><time>2013-8-5T23:25:5Z</time></trkpt>
<trkpt lat="46.2365264892578" lon="7.27777481079102"><ele></ele><time>2013-8-5T23:25:8Z</time></trkpt>
<trkpt lat="46.236515045166" lon="7.27774906158447"><ele></ele><time>2013-8-5T23:25:11Z</time></trkpt>
<trkpt lat="46.2364654541016" lon="7.27764701843262"><ele></ele><time>2013-8-5T23:25:14Z</time></trkpt>
<trkpt lat="46.2364540100098" lon="7.27761936187744"><ele></ele><time>2013-8-5T23:25:17Z</time></trkpt>
<trkpt lat="46.236442565918" lon="7.27759265899658"><ele></ele><time>2013-8-5T23:25:20Z</time></trkpt>
<trkpt lat="46.2364311218262" lon="7.27756690979004"><ele></ele><time>2013-8-5T23:25:23Z</time></trkpt>
<trkpt lat="46.2364158630371" lon="7.27754020690918"><ele></ele><time>2013-8-5T23:25:26Z</time></trkpt>
<trkpt lat="46.2364044189453" lon="7.277512550354"><ele></ele><time>2013-8-5T23:25:29Z</time></trkpt>
<trkpt lat="46.2363777160644" lon="7.27743434906006"><ele></ele><time>2013-8-5T23:25:32Z</time></trkpt>
<trkpt lat="46.2363662719727" lon="7.27741241455078"><ele></ele><time>2013-8-5T23:25:35Z</time></trkpt>
<trkpt lat="46.2363510131836" lon="7.27738904953003"><ele></ele><time>2013-8-5T23:25:38Z</time></trkpt>
<trkpt lat="46.2363433837891" lon="7.27736282348633"><ele></ele><time>2013-8-5T23:25:41Z</time></trkpt>
<trkpt lat="46.236328125" lon="7.27733421325684"><ele></ele><time>2013-8-5T23:25:44Z</time></trkpt>
<trkpt lat="46.2363052368164" lon="7.27727794647217"><ele></ele><time>2013-8-5T23:25:47Z</time></trkpt>
<trkpt lat="46.2362747192383" lon="7.27718448638916"><ele></ele><time>2013-8-5T23:25:50Z</time></trkpt>
<trkpt lat="46.2362632751465" lon="7.27715682983398"><ele></ele><time>2013-8-5T23:25:53Z</time></trkpt>
<trkpt lat="46.2362518310547" lon="7.27713012695312"><ele></ele><time>2013-8-5T23:25:56Z</time></trkpt>
<trkpt lat="46.2362442016602" lon="7.27710199356079"><ele></ele><time>2013-8-5T23:25:59Z</time></trkpt>
<trkpt lat="46.2362327575684" lon="7.27707147598267"><ele></ele><time>2013-8-5T23:26:2Z</time></trkpt>
<trkpt lat="46.2362098693848" lon="7.27696466445923"><ele></ele><time>2013-8-5T23:26:5Z</time></trkpt>
<trkpt lat="46.2362022399902" lon="7.27692699432373"><ele></ele><time>2013-8-5T23:26:8Z</time></trkpt>
<trkpt lat="46.236198425293" lon="7.27688980102539"><ele></ele><time>2013-8-5T23:26:11Z</time></trkpt>
<trkpt lat="46.2361946105957" lon="7.27685308456421"><ele></ele><time>2013-8-5T23:26:14Z</time></trkpt>
<trkpt lat="46.2361831665039" lon="7.27668571472168"><ele></ele><time>2013-8-5T23:26:17Z</time></trkpt>
<trkpt lat="46.2361793518066" lon="7.2766523361206"><ele></ele><time>2013-8-5T23:26:20Z</time></trkpt>
<trkpt lat="46.2361755371094" lon="7.27661895751953"><ele></ele><time>2013-8-5T23:26:23Z</time></trkpt>
<trkpt lat="46.2361717224121" lon="7.2765851020813"><ele></ele><time>2013-8-5T23:26:26Z</time></trkpt>
<trkpt lat="46.2361717224121" lon="7.27655506134033"><ele></ele><time>2013-8-5T23:26:29Z</time></trkpt>
<trkpt lat="46.2361679077148" lon="7.27639722824097"><ele></ele><time>2013-8-5T23:26:32Z</time></trkpt>
<trkpt lat="46.2361640930176" lon="7.27636575698852"><ele></ele><time>2013-8-5T23:26:35Z</time></trkpt>
<trkpt lat="46.2361640930176" lon="7.27633237838745"><ele></ele><time>2013-8-5T23:26:38Z</time></trkpt>
<trkpt lat="46.2361640930176" lon="7.27630043029785"><ele></ele><time>2013-8-5T23:26:41Z</time></trkpt>
<trkpt lat="46.2361640930176" lon="7.27626991271973"><ele></ele><time>2013-8-5T23:26:44Z</time></trkpt>
<trkpt lat="46.236156463623" lon="7.27614498138428"><ele></ele><time>2013-8-5T23:26:47Z</time></trkpt>
<trkpt lat="46.236156463623" lon="7.27611494064331"><ele></ele><time>2013-8-5T23:26:50Z</time></trkpt>
<trkpt lat="46.236156463623" lon="7.27608394622803"><ele></ele><time>2013-8-5T23:26:53Z</time></trkpt>
<trkpt lat="46.236156463623" lon="7.27605390548706"><ele></ele><time>2013-8-5T23:26:56Z</time></trkpt>
<trkpt lat="46.236156463623" lon="7.27602338790894"><ele></ele><time>2013-8-5T23:26:59Z</time></trkpt>
<trkpt lat="46.2361488342285" lon="7.27593183517456"><ele></ele><time>2013-8-5T23:27:2Z</time></trkpt>
<trkpt lat="46.2361335754394" lon="7.27584314346314"><ele></ele><time>2013-8-5T23:27:5Z</time></trkpt>
<trkpt lat="46.2361335754394" lon="7.27581405639648"><ele></ele><time>2013-8-5T23:27:8Z</time></trkpt>
<trkpt lat="46.2361259460449" lon="7.27578496932983"><ele></ele><time>2013-8-5T23:27:11Z</time></trkpt>
<trkpt lat="46.2361183166504" lon="7.27575302124024"><ele></ele><time>2013-8-5T23:27:14Z</time></trkpt>
<trkpt lat="46.2361145019531" lon="7.27572250366211"><ele></ele><time>2013-8-5T23:27:17Z</time></trkpt>
<trkpt lat="46.236083984375" lon="7.27563858032226"><ele></ele><time>2013-8-5T23:27:20Z</time></trkpt>
<trkpt lat="46.2360382080078" lon="7.27553558349609"><ele></ele><time>2013-8-5T23:27:23Z</time></trkpt>
<trkpt lat="46.236026763916" lon="7.27551078796387"><ele></ele><time>2013-8-5T23:27:26Z</time></trkpt>
<trkpt lat="46.2360229492188" lon="7.27548742294312"><ele></ele><time>2013-8-5T23:27:29Z</time></trkpt>
<trkpt lat="46.2360191345215" lon="7.27546215057373"><ele></ele><time>2013-8-5T23:27:32Z</time></trkpt>
<trkpt lat="46.2360153198242" lon="7.2754373550415"><ele></ele><time>2013-8-5T23:27:35Z</time></trkpt>
<trkpt lat="46.2360038757324" lon="7.27538156509399"><ele></ele><time>2013-8-5T23:27:38Z</time></trkpt>
<trkpt lat="46.2359962463379" lon="7.27535343170166"><ele></ele><time>2013-8-5T23:27:41Z</time></trkpt>
<trkpt lat="46.2359886169434" lon="7.27529001235962"><ele></ele><time>2013-8-5T23:27:44Z</time></trkpt>
<trkpt lat="46.2359924316406" lon="7.27525806427002"><ele></ele><time>2013-8-5T23:27:47Z</time></trkpt>
<trkpt lat="46.2360038757324" lon="7.2751989364624"><ele></ele><time>2013-8-5T23:27:50Z</time></trkpt>
<trkpt lat="46.2360191345215" lon="7.27508115768433"><ele></ele><time>2013-8-5T23:27:53Z</time></trkpt>
<trkpt lat="46.2360191345215" lon="7.27505254745483"><ele></ele><time>2013-8-5T23:27:56Z</time></trkpt>
<trkpt lat="46.2360343933106" lon="7.27497959136963"><ele></ele><time>2013-8-5T23:27:59Z</time></trkpt>
<trkpt lat="46.2360153198242" lon="7.27484846115112"><ele></ele><time>2013-8-5T23:28:2Z</time></trkpt>
<trkpt lat="46.2359886169434" lon="7.27479076385498"><ele></ele><time>2013-8-5T23:28:5Z</time></trkpt>
<trkpt lat="46.2358818054199" lon="7.2747597694397"><ele></ele><time>2013-8-5T23:28:8Z</time></trkpt>
<trkpt lat="46.2358512878418" lon="7.27476263046265"><ele></ele><time>2013-8-5T23:28:11Z</time></trkpt>
<trkpt lat="46.2357139587402" lon="7.27476406097412"><ele></ele><time>2013-8-5T23:28:14Z</time></trkpt>
<trkpt lat="46.2356834411621" lon="7.2747597694397"><ele></ele><time>2013-8-5T23:28:17Z</time></trkpt>
<trkpt lat="46.2356567382812" lon="7.27474880218506"><ele></ele><time>2013-8-5T23:28:20Z</time></trkpt>
<trkpt lat="46.2356300354004" lon="7.27473545074463"><ele></ele><time>2013-8-5T23:28:23Z</time></trkpt>
<trkpt lat="46.2355995178223" lon="7.27472496032715"><ele></ele><time>2013-8-5T23:28:26Z</time></trkpt>
<trkpt lat="46.2355728149414" lon="7.27471113204956"><ele></ele><time>2013-8-5T23:28:29Z</time></trkpt>
<trkpt lat="46.2355422973633" lon="7.27469539642334"><ele></ele><time>2013-8-5T23:28:32Z</time></trkpt>
<trkpt lat="46.2355155944824" lon="7.27467203140259"><ele></ele><time>2013-8-5T23:28:35Z</time></trkpt>
<trkpt lat="46.2354927062988" lon="7.27464580535889"><ele></ele><time>2013-8-5T23:28:38Z</time></trkpt>
<trkpt lat="46.235408782959" lon="7.27454280853272"><ele></ele><time>2013-8-5T23:28:41Z</time></trkpt>
<trkpt lat="46.2353935241699" lon="7.27451515197754"><ele></ele><time>2013-8-5T23:28:44Z</time></trkpt>
<trkpt lat="46.2353706359863" lon="7.27449226379394"><ele></ele><time>2013-8-5T23:28:47Z</time></trkpt>
<trkpt lat="46.2353477478027" lon="7.27446413040161"><ele></ele><time>2013-8-5T23:28:50Z</time></trkpt>
<trkpt lat="46.2353248596191" lon="7.27443552017212"><ele></ele><time>2013-8-5T23:28:53Z</time></trkpt>
<trkpt lat="46.2351989746094" lon="7.27426242828369"><ele></ele><time>2013-8-5T23:28:56Z</time></trkpt>
<trkpt lat="46.2351760864258" lon="7.27423715591431"><ele></ele><time>2013-8-5T23:28:59Z</time></trkpt>
<trkpt lat="46.2351608276367" lon="7.2742109298706"><ele></ele><time>2013-8-5T23:29:2Z</time></trkpt>
<trkpt lat="46.2351379394531" lon="7.2741847038269"><ele></ele><time>2013-8-5T23:29:5Z</time></trkpt>
<trkpt lat="46.2351226806641" lon="7.27415227890015"><ele></ele><time>2013-8-5T23:29:8Z</time></trkpt>
<trkpt lat="46.2350463867188" lon="7.27397060394287"><ele></ele><time>2013-8-5T23:29:11Z</time></trkpt>
<trkpt lat="46.235034942627" lon="7.27392816543579"><ele></ele><time>2013-8-5T23:29:14Z</time></trkpt>
<trkpt lat="46.2350234985352" lon="7.2738766670227"><ele></ele><time>2013-8-5T23:29:17Z</time></trkpt>
<trkpt lat="46.2350120544434" lon="7.2738299369812"><ele></ele><time>2013-8-5T23:29:20Z</time></trkpt>
<trkpt lat="46.2350044250488" lon="7.27378463745117"><ele></ele><time>2013-8-5T23:29:23Z</time></trkpt>
<trkpt lat="46.2349967956543" lon="7.27373886108398"><ele></ele><time>2013-8-5T23:29:26Z</time></trkpt>
<trkpt lat="46.2349586486816" lon="7.27361488342285"><ele></ele><time>2013-8-5T23:29:29Z</time></trkpt>
<trkpt lat="46.2349433898926" lon="7.27357196807861"><ele></ele><time>2013-8-5T23:29:32Z</time></trkpt>
<trkpt lat="46.2349281311035" lon="7.27353382110596"><ele></ele><time>2013-8-5T23:29:35Z</time></trkpt>
<trkpt lat="46.2349128723144" lon="7.27349948883057"><ele></ele><time>2013-8-5T23:29:38Z</time></trkpt>
<trkpt lat="46.2348937988281" lon="7.27346849441528"><ele></ele><time>2013-8-5T23:29:41Z</time></trkpt>
<trkpt lat="46.2347946166992" lon="7.27328491210938"><ele></ele><time>2013-8-5T23:29:44Z</time></trkpt>
<trkpt lat="46.2347755432129" lon="7.27324438095093"><ele></ele><time>2013-8-5T23:29:47Z</time></trkpt>
<trkpt lat="46.2347602844238" lon="7.27320003509522"><ele></ele><time>2013-8-5T23:29:50Z</time></trkpt>
<trkpt lat="46.2347412109375" lon="7.27315950393677"><ele></ele><time>2013-8-5T23:29:53Z</time></trkpt>
<trkpt lat="46.2347259521484" lon="7.27312135696411"><ele></ele><time>2013-8-5T23:29:56Z</time></trkpt>
<trkpt lat="46.2346954345703" lon="7.27304553985596"><ele></ele><time>2013-8-5T23:29:59Z</time></trkpt>
<trkpt lat="46.2346801757812" lon="7.27300548553467"><ele></ele><time>2013-8-5T23:30:2Z</time></trkpt>
<trkpt lat="46.2346687316894" lon="7.27296924591064"><ele></ele><time>2013-8-5T23:30:5Z</time></trkpt>
<trkpt lat="46.2346534729004" lon="7.2729320526123"><ele></ele><time>2013-8-5T23:30:8Z</time></trkpt>
<trkpt lat="46.2346382141113" lon="7.27289056777954"><ele></ele><time>2013-8-5T23:30:11Z</time></trkpt>
<trkpt lat="46.2346000671387" lon="7.27276468276978"><ele></ele><time>2013-8-5T23:30:14Z</time></trkpt>
<trkpt lat="46.2345848083496" lon="7.27272748947144"><ele></ele><time>2013-8-5T23:30:17Z</time></trkpt>
<trkpt lat="46.2345695495606" lon="7.27269077301025"><ele></ele><time>2013-8-5T23:30:20Z</time></trkpt>
<trkpt lat="46.2345542907715" lon="7.27265357971191"><ele></ele><time>2013-8-5T23:30:23Z</time></trkpt>
<trkpt lat="46.2345428466797" lon="7.27261352539062"><ele></ele><time>2013-8-5T23:30:26Z</time></trkpt>
<trkpt lat="46.2344665527344" lon="7.27237224578857"><ele></ele><time>2013-8-5T23:30:29Z</time></trkpt>
<trkpt lat="46.2344627380371" lon="7.27233123779297"><ele></ele><time>2013-8-5T23:30:32Z</time></trkpt>
<trkpt lat="46.234447479248" lon="7.27229166030884"><ele></ele><time>2013-8-5T23:30:35Z</time></trkpt>
<trkpt lat="46.2344398498535" lon="7.27225065231323"><ele></ele><time>2013-8-5T23:30:38Z</time></trkpt>
<trkpt lat="46.2344398498535" lon="7.27221298217774"><ele></ele><time>2013-8-5T23:30:41Z</time></trkpt>
<trkpt lat="46.234432220459" lon="7.27213668823242"><ele></ele><time>2013-8-5T23:30:44Z</time></trkpt>
<trkpt lat="46.2344360351562" lon="7.27206039428711"><ele></ele><time>2013-8-5T23:30:47Z</time></trkpt>
<trkpt lat="46.2344398498535" lon="7.27202272415161"><ele></ele><time>2013-8-5T23:30:50Z</time></trkpt>
<trkpt lat="46.2344436645508" lon="7.27198505401611"><ele></ele><time>2013-8-5T23:30:53Z</time></trkpt>
<trkpt lat="46.234447479248" lon="7.27194213867188"><ele></ele><time>2013-8-5T23:30:56Z</time></trkpt>
<trkpt lat="46.2344551086426" lon="7.27190017700195"><ele></ele><time>2013-8-5T23:30:59Z</time></trkpt>
<trkpt lat="46.2344627380371" lon="7.2718653678894"><ele></ele><time>2013-8-5T23:31:2Z</time></trkpt>
<trkpt lat="46.2345085144043" lon="7.27170372009277"><ele></ele><time>2013-8-5T23:31:5Z</time></trkpt>
<trkpt lat="46.2345161437988" lon="7.27167129516602"><ele></ele><time>2013-8-5T23:31:8Z</time></trkpt>
<trkpt lat="46.2345275878906" lon="7.27163648605347"><ele></ele><time>2013-8-5T23:31:11Z</time></trkpt>
<trkpt lat="46.2345352172852" lon="7.27160358428955"><ele></ele><time>2013-8-5T23:31:14Z</time></trkpt>
<trkpt lat="46.2345428466797" lon="7.27157258987427"><ele></ele><time>2013-8-5T23:31:17Z</time></trkpt>
<trkpt lat="46.2345657348633" lon="7.27136898040772"><ele></ele><time>2013-8-5T23:31:20Z</time></trkpt>
<trkpt lat="46.2345657348633" lon="7.27133560180664"><ele></ele><time>2013-8-5T23:31:23Z</time></trkpt>
<trkpt lat="46.234561920166" lon="7.27129936218262"><ele></ele><time>2013-8-5T23:31:26Z</time></trkpt>
<trkpt lat="46.2345542907715" lon="7.27126502990723"><ele></ele><time>2013-8-5T23:31:29Z</time></trkpt>
<trkpt lat="46.2345504760742" lon="7.2712287902832"><ele></ele><time>2013-8-5T23:31:32Z</time></trkpt>
<trkpt lat="46.2345237731934" lon="7.27108383178711"><ele></ele><time>2013-8-5T23:31:35Z</time></trkpt>
<trkpt lat="46.234504699707" lon="7.27093839645386"><ele></ele><time>2013-8-5T23:31:38Z</time></trkpt>
<trkpt lat="46.2345085144043" lon="7.2709059715271"><ele></ele><time>2013-8-5T23:31:41Z</time></trkpt>
<trkpt lat="46.2345237731934" lon="7.27087450027466"><ele></ele><time>2013-8-5T23:31:44Z</time></trkpt>
<trkpt lat="46.2345428466797" lon="7.27086305618286"><ele></ele><time>2013-8-5T23:31:47Z</time></trkpt>
<trkpt lat="46.2345657348633" lon="7.27086400985718"><ele></ele><time>2013-8-5T23:31:50Z</time></trkpt>
<trkpt lat="46.2345886230469" lon="7.27087354660034"><ele></ele><time>2013-8-5T23:31:53Z</time></trkpt>
<trkpt lat="46.2346267700195" lon="7.27091789245606"><ele></ele><time>2013-8-5T23:31:56Z</time></trkpt>
<trkpt lat="46.2346687316894" lon="7.27104949951172"><ele></ele><time>2013-8-5T23:31:59Z</time></trkpt>
<trkpt lat="46.234676361084" lon="7.27108383178711"><ele></ele><time>2013-8-5T23:32:2Z</time></trkpt>
<trkpt lat="46.2346801757812" lon="7.27111768722534"><ele></ele><time>2013-8-5T23:32:5Z</time></trkpt>
<trkpt lat="46.2346878051758" lon="7.27115058898926"><ele></ele><time>2013-8-5T23:32:8Z</time></trkpt>
<trkpt lat="46.2346954345703" lon="7.27118253707886"><ele></ele><time>2013-8-5T23:32:11Z</time></trkpt>
<trkpt lat="46.2347564697266" lon="7.27140188217163"><ele></ele><time>2013-8-5T23:32:14Z</time></trkpt>
<trkpt lat="46.2347602844238" lon="7.27143383026123"><ele></ele><time>2013-8-5T23:32:17Z</time></trkpt>
<trkpt lat="46.2347679138184" lon="7.27146768569946"><ele></ele><time>2013-8-5T23:32:20Z</time></trkpt>
<trkpt lat="46.2347717285156" lon="7.27150011062622"><ele></ele><time>2013-8-5T23:32:23Z</time></trkpt>
<trkpt lat="46.2347793579102" lon="7.27153396606445"><ele></ele><time>2013-8-5T23:32:26Z</time></trkpt>
<trkpt lat="46.2347984313965" lon="7.27162313461304"><ele></ele><time>2013-8-5T23:32:29Z</time></trkpt>
<trkpt lat="46.2348403930664" lon="7.27181816101074"><ele></ele><time>2013-8-5T23:32:32Z</time></trkpt>
<trkpt lat="46.2348480224609" lon="7.27184772491455"><ele></ele><time>2013-8-5T23:32:35Z</time></trkpt>
<trkpt lat="46.2348594665527" lon="7.27187538146973"><ele></ele><time>2013-8-5T23:32:38Z</time></trkpt>
<trkpt lat="46.2348709106445" lon="7.27190351486206"><ele></ele><time>2013-8-5T23:32:41Z</time></trkpt>
<trkpt lat="46.2348861694336" lon="7.27193355560303"><ele></ele><time>2013-8-5T23:32:44Z</time></trkpt>
<trkpt lat="46.2349891662598" lon="7.27210474014282"><ele></ele><time>2013-8-5T23:32:47Z</time></trkpt>
<trkpt lat="46.2350082397461" lon="7.27212953567505"><ele></ele><time>2013-8-5T23:32:50Z</time></trkpt>
<trkpt lat="46.2350311279297" lon="7.27215003967285"><ele></ele><time>2013-8-5T23:32:53Z</time></trkpt>
<trkpt lat="46.235050201416" lon="7.27216958999634"><ele></ele><time>2013-8-5T23:32:56Z</time></trkpt>
<trkpt lat="46.2350692749023" lon="7.27219009399414"><ele></ele><time>2013-8-5T23:32:59Z</time></trkpt>
<trkpt lat="46.2351417541504" lon="7.2722806930542"><ele></ele><time>2013-8-5T23:33:2Z</time></trkpt>
<trkpt lat="46.2351913452148" lon="7.2723593711853"><ele></ele><time>2013-8-5T23:33:5Z</time></trkpt>
<trkpt lat="46.2352027893066" lon="7.2723913192749"><ele></ele><time>2013-8-5T23:33:8Z</time></trkpt>
<trkpt lat="46.2352142333984" lon="7.27242422103882"><ele></ele><time>2013-8-5T23:33:11Z</time></trkpt>
<trkpt lat="46.2352256774902" lon="7.27245855331421"><ele></ele><time>2013-8-5T23:33:14Z</time></trkpt>
<trkpt lat="46.2352447509766" lon="7.27252388000488"><ele></ele><time>2013-8-5T23:33:17Z</time></trkpt>
<trkpt lat="46.2352523803711" lon="7.27255868911743"><ele></ele><time>2013-8-5T23:33:20Z</time></trkpt>
<trkpt lat="46.235279083252" lon="7.27266120910644"><ele></ele><time>2013-8-5T23:33:23Z</time></trkpt>
<trkpt lat="46.2352905273438" lon="7.27269506454468"><ele></ele><time>2013-8-5T23:33:26Z</time></trkpt>
<trkpt lat="46.2353019714356" lon="7.27272748947144"><ele></ele><time>2013-8-5T23:33:29Z</time></trkpt>
<trkpt lat="46.2353096008301" lon="7.27276039123535"><ele></ele><time>2013-8-5T23:33:32Z</time></trkpt>
<trkpt lat="46.2353210449219" lon="7.27279329299927"><ele></ele><time>2013-8-5T23:33:35Z</time></trkpt>
<trkpt lat="46.2353324890137" lon="7.27282810211182"><ele></ele><time>2013-8-5T23:33:38Z</time></trkpt>
<trkpt lat="46.2353782653809" lon="7.27301216125488"><ele></ele><time>2013-8-5T23:33:41Z</time></trkpt>
<trkpt lat="46.2353897094727" lon="7.27304077148438"><ele></ele><time>2013-8-5T23:33:44Z</time></trkpt>
<trkpt lat="46.2354011535644" lon="7.27306985855102"><ele></ele><time>2013-8-5T23:33:47Z</time></trkpt>
<trkpt lat="46.2354164123535" lon="7.27309608459473"><ele></ele><time>2013-8-5T23:33:50Z</time></trkpt>
<trkpt lat="46.2354278564453" lon="7.2731237411499"><ele></ele><time>2013-8-5T23:33:53Z</time></trkpt>
<trkpt lat="46.2354431152344" lon="7.27314949035644"><ele></ele><time>2013-8-5T23:33:56Z</time></trkpt>
<trkpt lat="46.2354736328125" lon="7.27320432662964"><ele></ele><time>2013-8-5T23:33:59Z</time></trkpt>
<trkpt lat="46.2355499267578" lon="7.27330875396728"><ele></ele><time>2013-8-5T23:34:2Z</time></trkpt>
<trkpt lat="46.2355690002441" lon="7.2733302116394"><ele></ele><time>2013-8-5T23:34:5Z</time></trkpt>
<trkpt lat="46.2355880737305" lon="7.27334976196289"><ele></ele><time>2013-8-5T23:34:8Z</time></trkpt>
<trkpt lat="46.2356071472168" lon="7.27336931228638"><ele></ele><time>2013-8-5T23:34:11Z</time></trkpt>
<trkpt lat="46.2356262207031" lon="7.27338933944702"><ele></ele><time>2013-8-5T23:34:14Z</time></trkpt>
<trkpt lat="46.2357902526856" lon="7.27347803115845"><ele></ele><time>2013-8-5T23:34:17Z</time></trkpt>
<trkpt lat="46.2358207702637" lon="7.27348136901856"><ele></ele><time>2013-8-5T23:34:20Z</time></trkpt>
<trkpt lat="46.2358474731445" lon="7.27347803115845"><ele></ele><time>2013-8-5T23:34:23Z</time></trkpt>
<trkpt lat="46.2358741760254" lon="7.27347040176392"><ele></ele><time>2013-8-5T23:34:26Z</time></trkpt>
<trkpt lat="46.2359008789062" lon="7.27345418930054"><ele></ele><time>2013-8-5T23:34:29Z</time></trkpt>
<trkpt lat="46.2359199523926" lon="7.27343225479126"><ele></ele><time>2013-8-5T23:34:32Z</time></trkpt>
<trkpt lat="46.2359809875488" lon="7.27325296401978"><ele></ele><time>2013-8-5T23:34:35Z</time></trkpt>
<trkpt lat="46.2359390258789" lon="7.27305221557617"><ele></ele><time>2013-8-5T23:34:38Z</time></trkpt>
<trkpt lat="46.2359199523926" lon="7.27296447753906"><ele></ele><time>2013-8-5T23:34:41Z</time></trkpt>
<trkpt lat="46.235912322998" lon="7.2729229927063"><ele></ele><time>2013-8-5T23:34:44Z</time></trkpt>
<trkpt lat="46.2359046936035" lon="7.27287769317627"><ele></ele><time>2013-8-5T23:34:47Z</time></trkpt>
<trkpt lat="46.235897064209" lon="7.27283096313476"><ele></ele><time>2013-8-5T23:34:50Z</time></trkpt>
<trkpt lat="46.2358894348144" lon="7.27278327941894"><ele></ele><time>2013-8-5T23:34:53Z</time></trkpt>
<trkpt lat="46.2358856201172" lon="7.2727313041687"><ele></ele><time>2013-8-5T23:34:56Z</time></trkpt>
<trkpt lat="46.2358703613281" lon="7.27229404449463"><ele></ele><time>2013-8-5T23:34:59Z</time></trkpt>
<trkpt lat="46.2358627319336" lon="7.27201652526856"><ele></ele><time>2013-8-5T23:35:2Z</time></trkpt>
<trkpt lat="46.2358474731445" lon="7.27191114425659"><ele></ele><time>2013-8-5T23:35:5Z</time></trkpt>
<trkpt lat="46.2358207702637" lon="7.27175855636597"><ele></ele><time>2013-8-5T23:35:8Z</time></trkpt>
<trkpt lat="46.2358131408691" lon="7.27170896530151"><ele></ele><time>2013-8-5T23:35:11Z</time></trkpt>
<trkpt lat="46.2358016967773" lon="7.27166318893433"><ele></ele><time>2013-8-5T23:35:14Z</time></trkpt>
<trkpt lat="46.2357940673828" lon="7.27161550521851"><ele></ele><time>2013-8-5T23:35:17Z</time></trkpt>
<trkpt lat="46.2357864379883" lon="7.27156686782837"><ele></ele><time>2013-8-5T23:35:20Z</time></trkpt>
<trkpt lat="46.2357788085938" lon="7.27151870727539"><ele></ele><time>2013-8-5T23:35:23Z</time></trkpt>
<trkpt lat="46.2357749938965" lon="7.27123975753784"><ele></ele><time>2013-8-5T23:35:26Z</time></trkpt>
<trkpt lat="46.235782623291" lon="7.27119636535644"><ele></ele><time>2013-8-5T23:35:29Z</time></trkpt>
<trkpt lat="46.2357902526856" lon="7.27115249633789"><ele></ele><time>2013-8-5T23:35:32Z</time></trkpt>
<trkpt lat="46.2357978820801" lon="7.27110862731934"><ele></ele><time>2013-8-5T23:35:35Z</time></trkpt>
<trkpt lat="46.2358016967773" lon="7.27106189727783"><ele></ele><time>2013-8-5T23:35:38Z</time></trkpt>
<trkpt lat="46.2358093261719" lon="7.2710165977478"><ele></ele><time>2013-8-5T23:35:41Z</time></trkpt>
<trkpt lat="46.23583984375" lon="7.27073860168457"><ele></ele><time>2013-8-5T23:35:44Z</time></trkpt>
<trkpt lat="46.2358627319336" lon="7.27062225341797"><ele></ele><time>2013-8-5T23:35:47Z</time></trkpt>
<trkpt lat="46.2358856201172" lon="7.27060031890869"><ele></ele><time>2013-8-5T23:35:50Z</time></trkpt>
<trkpt lat="46.235912322998" lon="7.27059555053711"><ele></ele><time>2013-8-5T23:35:53Z</time></trkpt>
<trkpt lat="46.2359390258789" lon="7.27060079574585"><ele></ele><time>2013-8-5T23:35:56Z</time></trkpt>
<trkpt lat="46.2359619140625" lon="7.27061462402344"><ele></ele><time>2013-8-5T23:35:59Z</time></trkpt>
<trkpt lat="46.2359848022461" lon="7.27063894271851"><ele></ele><time>2013-8-5T23:36:2Z</time></trkpt>
<trkpt lat="46.2360076904297" lon="7.27066421508789"><ele></ele><time>2013-8-5T23:36:5Z</time></trkpt>
<trkpt lat="46.2360458374023" lon="7.27071762084961"><ele></ele><time>2013-8-5T23:36:8Z</time></trkpt>
<trkpt lat="46.2360649108887" lon="7.27074432373047"><ele></ele><time>2013-8-5T23:36:11Z</time></trkpt>
<trkpt lat="46.2360763549805" lon="7.27076864242554"><ele></ele><time>2013-8-5T23:36:14Z</time></trkpt>
<trkpt lat="46.2360916137695" lon="7.27079677581787"><ele></ele><time>2013-8-5T23:36:17Z</time></trkpt>
<trkpt lat="46.2361068725586" lon="7.27082633972168"><ele></ele><time>2013-8-5T23:36:20Z</time></trkpt>
<trkpt lat="46.2361602783203" lon="7.2709264755249"><ele></ele><time>2013-8-5T23:36:23Z</time></trkpt>
<trkpt lat="46.2361793518066" lon="7.27096176147461"><ele></ele><time>2013-8-5T23:36:26Z</time></trkpt>
<trkpt lat="46.2361946105957" lon="7.27099800109863"><ele></ele><time>2013-8-5T23:36:29Z</time></trkpt>
<trkpt lat="46.2362098693848" lon="7.27102947235107"><ele></ele><time>2013-8-5T23:36:32Z</time></trkpt>
<trkpt lat="46.2362289428711" lon="7.2710599899292"><ele></ele><time>2013-8-5T23:36:35Z</time></trkpt>
<trkpt lat="46.2362594604492" lon="7.27112579345703"><ele></ele><time>2013-8-5T23:36:38Z</time></trkpt>
<trkpt lat="46.2362785339356" lon="7.27115821838379"><ele></ele><time>2013-8-5T23:36:41Z</time></trkpt>
<trkpt lat="46.2362976074219" lon="7.27118444442749"><ele></ele><time>2013-8-5T23:36:44Z</time></trkpt>
<trkpt lat="46.2363166809082" lon="7.27121114730835"><ele></ele><time>2013-8-5T23:36:47Z</time></trkpt>
<trkpt lat="46.2363319396973" lon="7.27123594284058"><ele></ele><time>2013-8-5T23:36:50Z</time></trkpt>
<trkpt lat="46.2363815307617" lon="7.27129173278809"><ele></ele><time>2013-8-5T23:36:53Z</time></trkpt>
<trkpt lat="46.236400604248" lon="7.27128601074219"><ele></ele><time>2013-8-5T23:36:56Z</time></trkpt>
<trkpt lat="46.2364196777344" lon="7.27127599716186"><ele></ele><time>2013-8-5T23:36:59Z</time></trkpt>
<trkpt lat="46.236442565918" lon="7.2712607383728"><ele></ele><time>2013-8-5T23:37:2Z</time></trkpt>
<trkpt lat="46.2364692687988" lon="7.27123355865478"><ele></ele><time>2013-8-5T23:37:5Z</time></trkpt>
<trkpt lat="46.2364845275879" lon="7.27119827270508"><ele></ele><time>2013-8-5T23:37:8Z</time></trkpt>
<trkpt lat="46.236499786377" lon="7.27115869522095"><ele></ele><time>2013-8-5T23:37:11Z</time></trkpt>
<trkpt lat="46.2365684509277" lon="7.27106714248657"><ele></ele><time>2013-8-5T23:37:14Z</time></trkpt>
<trkpt lat="46.2365951538086" lon="7.2710542678833"><ele></ele><time>2013-8-5T23:37:17Z</time></trkpt>
<trkpt lat="46.2366218566894" lon="7.27103662490845"><ele></ele><time>2013-8-5T23:37:20Z</time></trkpt>
<trkpt lat="46.236644744873" lon="7.27101421356201"><ele></ele><time>2013-8-5T23:37:23Z</time></trkpt>
<trkpt lat="46.2366714477539" lon="7.27099847793579"><ele></ele><time>2013-8-5T23:37:26Z</time></trkpt>
<trkpt lat="46.2366981506348" lon="7.27098369598389"><ele></ele><time>2013-8-5T23:37:29Z</time></trkpt>
<trkpt lat="46.2367210388184" lon="7.27096796035767"><ele></ele><time>2013-8-5T23:37:32Z</time></trkpt>
<trkpt lat="46.236743927002" lon="7.27095031738281"><ele></ele><time>2013-8-5T23:37:35Z</time></trkpt>
<trkpt lat="46.2367630004883" lon="7.27092981338501"><ele></ele><time>2013-8-5T23:37:38Z</time></trkpt>
<trkpt lat="46.2367820739746" lon="7.27090978622436"><ele></ele><time>2013-8-5T23:37:41Z</time></trkpt>
<trkpt lat="46.2367973327637" lon="7.27088785171509"><ele></ele><time>2013-8-5T23:37:44Z</time></trkpt>
<trkpt lat="46.2368316650391" lon="7.27080154418945"><ele></ele><time>2013-8-5T23:37:47Z</time></trkpt>
<trkpt lat="46.2368469238281" lon="7.2707691192627"><ele></ele><time>2013-8-5T23:37:50Z</time></trkpt>
<trkpt lat="46.2368545532227" lon="7.2707347869873"><ele></ele><time>2013-8-5T23:37:53Z</time></trkpt>
<trkpt lat="46.2368621826172" lon="7.27070236206055"><ele></ele><time>2013-8-5T23:37:56Z</time></trkpt>
<trkpt lat="46.2368698120117" lon="7.27067041397095"><ele></ele><time>2013-8-5T23:37:59Z</time></trkpt>
<trkpt lat="46.236873626709" lon="7.27063941955566"><ele></ele><time>2013-8-5T23:38:2Z</time></trkpt>
<trkpt lat="46.236873626709" lon="7.27060604095459"><ele></ele><time>2013-8-5T23:38:5Z</time></trkpt>
<trkpt lat="46.2368545532227" lon="7.27046823501587"><ele></ele><time>2013-8-5T23:38:8Z</time></trkpt>
<trkpt lat="46.2368469238281" lon="7.27044200897217"><ele></ele><time>2013-8-5T23:38:11Z</time></trkpt>
<trkpt lat="46.2368392944336" lon="7.27041482925415"><ele></ele><time>2013-8-5T23:38:14Z</time></trkpt>
<trkpt lat="46.2368316650391" lon="7.27038908004761"><ele></ele><time>2013-8-5T23:38:17Z</time></trkpt>
<trkpt lat="46.2368240356445" lon="7.27036380767822"><ele></ele><time>2013-8-5T23:38:20Z</time></trkpt>
<trkpt lat="46.2367858886719" lon="7.27025651931763"><ele></ele><time>2013-8-5T23:38:23Z</time></trkpt>
<trkpt lat="46.236759185791" lon="7.27017498016357"><ele></ele><time>2013-8-5T23:38:26Z</time></trkpt>
<trkpt lat="46.2367477416992" lon="7.27014493942261"><ele></ele><time>2013-8-5T23:38:29Z</time></trkpt>
<trkpt lat="46.2367324829102" lon="7.27009057998657"><ele></ele><time>2013-8-5T23:38:32Z</time></trkpt>
<trkpt lat="46.2367095947266" lon="7.27002620697022"><ele></ele><time>2013-8-5T23:38:35Z</time></trkpt>
<trkpt lat="46.236701965332" lon="7.27000570297241"><ele></ele><time>2013-8-5T23:38:38Z</time></trkpt>
<trkpt lat="46.2366905212402" lon="7.26998519897461"><ele></ele><time>2013-8-5T23:38:41Z</time></trkpt>
<trkpt lat="46.2366828918457" lon="7.26996183395386"><ele></ele><time>2013-8-5T23:38:44Z</time></trkpt>
<trkpt lat="46.2366638183594" lon="7.2699122428894"><ele></ele><time>2013-8-5T23:38:47Z</time></trkpt>
<trkpt lat="46.2366523742676" lon="7.26989126205444"><ele></ele><time>2013-8-5T23:38:50Z</time></trkpt>
<trkpt lat="46.2366409301758" lon="7.26986598968506"><ele></ele><time>2013-8-5T23:38:53Z</time></trkpt>
<trkpt lat="46.236629486084" lon="7.26984262466431"><ele></ele><time>2013-8-5T23:38:56Z</time></trkpt>
<trkpt lat="46.2366180419922" lon="7.26981973648071"><ele></ele><time>2013-8-5T23:38:59Z</time></trkpt>
<trkpt lat="46.2365989685059" lon="7.26976346969604"><ele></ele><time>2013-8-5T23:39:2Z</time></trkpt>
<trkpt lat="46.2365875244141" lon="7.26974201202393"><ele></ele><time>2013-8-5T23:39:5Z</time></trkpt>
<trkpt lat="46.236572265625" lon="7.26972484588623"><ele></ele><time>2013-8-5T23:39:8Z</time></trkpt>
<trkpt lat="46.2365608215332" lon="7.26970481872559"><ele></ele><time>2013-8-5T23:39:11Z</time></trkpt>
<trkpt lat="46.2365493774414" lon="7.26968336105347"><ele></ele><time>2013-8-5T23:39:14Z</time></trkpt>
<trkpt lat="46.2365379333496" lon="7.26965999603272"><ele></ele><time>2013-8-5T23:39:17Z</time></trkpt>
<trkpt lat="46.2365226745606" lon="7.2696418762207"><ele></ele><time>2013-8-5T23:39:20Z</time></trkpt>
<trkpt lat="46.2364540100098" lon="7.2695689201355"><ele></ele><time>2013-8-5T23:39:23Z</time></trkpt>
<trkpt lat="46.2364387512207" lon="7.26955127716064"><ele></ele><time>2013-8-5T23:39:26Z</time></trkpt>
<trkpt lat="46.2364273071289" lon="7.26952981948852"><ele></ele><time>2013-8-5T23:39:29Z</time></trkpt>
<trkpt lat="46.2364120483398" lon="7.26950979232788"><ele></ele><time>2013-8-5T23:39:32Z</time></trkpt>
<trkpt lat="46.2363967895508" lon="7.26949167251587"><ele></ele><time>2013-8-5T23:39:35Z</time></trkpt>
<trkpt lat="46.2363395690918" lon="7.26941394805908"><ele></ele><time>2013-8-5T23:39:38Z</time></trkpt>
<trkpt lat="46.236328125" lon="7.26939582824707"><ele></ele><time>2013-8-5T23:39:41Z</time></trkpt>
<trkpt lat="46.2363128662109" lon="7.26937770843506"><ele></ele><time>2013-8-5T23:39:44Z</time></trkpt>
<trkpt lat="46.2363014221191" lon="7.26935482025146"><ele></ele><time>2013-8-5T23:39:47Z</time></trkpt>
<trkpt lat="46.2362899780273" lon="7.26933097839356"><ele></ele><time>2013-8-5T23:39:50Z</time></trkpt>
<trkpt lat="46.2362785339356" lon="7.26930952072144"><ele></ele><time>2013-8-5T23:39:53Z</time></trkpt>
<trkpt lat="46.2362632751465" lon="7.26928806304932"><ele></ele><time>2013-8-5T23:39:56Z</time></trkpt>
<trkpt lat="46.2362480163574" lon="7.26926612854004"><ele></ele><time>2013-8-5T23:39:59Z</time></trkpt>
<trkpt lat="46.2362098693848" lon="7.26919603347778"><ele></ele><time>2013-8-5T23:40:2Z</time></trkpt>
<trkpt lat="46.236198425293" lon="7.26916885375976"><ele></ele><time>2013-8-5T23:40:5Z</time></trkpt>
<trkpt lat="46.2361869812012" lon="7.26914501190186"><ele></ele><time>2013-8-5T23:40:8Z</time></trkpt>
<trkpt lat="46.2361679077148" lon="7.26912117004394"><ele></ele><time>2013-8-5T23:40:11Z</time></trkpt>
<trkpt lat="46.2361602783203" lon="7.26909828186035"><ele></ele><time>2013-8-5T23:40:14Z</time></trkpt>
<trkpt lat="46.2361183166504" lon="7.2690224647522"><ele></ele><time>2013-8-5T23:40:17Z</time></trkpt>
<trkpt lat="46.2361068725586" lon="7.26900148391724"><ele></ele><time>2013-8-5T23:40:20Z</time></trkpt>
<trkpt lat="46.2360916137695" lon="7.26897954940796"><ele></ele><time>2013-8-5T23:40:23Z</time></trkpt>
<trkpt lat="46.2360763549805" lon="7.26895904541016"><ele></ele><time>2013-8-5T23:40:26Z</time></trkpt>
<trkpt lat="46.2360610961914" lon="7.26893758773804"><ele></ele><time>2013-8-5T23:40:29Z</time></trkpt>
<trkpt lat="46.236011505127" lon="7.26885175704956"><ele></ele><time>2013-8-5T23:40:32Z</time></trkpt>
<trkpt lat="46.2359924316406" lon="7.26883125305176"><ele></ele><time>2013-8-5T23:40:35Z</time></trkpt>
<trkpt lat="46.2359771728516" lon="7.26880693435669"><ele></ele><time>2013-8-5T23:40:38Z</time></trkpt>
<trkpt lat="46.2359619140625" lon="7.26878499984741"><ele></ele><time>2013-8-5T23:40:41Z</time></trkpt>
<trkpt lat="46.2359504699707" lon="7.26876449584961"><ele></ele><time>2013-8-5T23:40:44Z</time></trkpt>
<trkpt lat="46.2359390258789" lon="7.26874685287476"><ele></ele><time>2013-8-5T23:40:47Z</time></trkpt>
<trkpt lat="46.2359275817871" lon="7.26872301101685"><ele></ele><time>2013-8-5T23:40:50Z</time></trkpt>
<trkpt lat="46.2359161376953" lon="7.26870346069336"><ele></ele><time>2013-8-5T23:40:53Z</time></trkpt>
<trkpt lat="46.2359085083008" lon="7.26868009567261"><ele></ele><time>2013-8-5T23:40:56Z</time></trkpt>
<trkpt lat="46.2358932495117" lon="7.26865673065186"><ele></ele><time>2013-8-5T23:40:59Z</time></trkpt>
<trkpt lat="46.2358818054199" lon="7.26862716674805"><ele></ele><time>2013-8-5T23:41:2Z</time></trkpt>
<trkpt lat="46.2358703613281" lon="7.26860237121582"><ele></ele><time>2013-8-5T23:41:5Z</time></trkpt>
<trkpt lat="46.2358589172363" lon="7.26857757568359"><ele></ele><time>2013-8-5T23:41:8Z</time></trkpt>
<trkpt lat="46.2358169555664" lon="7.26850366592407"><ele></ele><time>2013-8-5T23:41:11Z</time></trkpt>
<trkpt lat="46.2358093261719" lon="7.268479347229"><ele></ele><time>2013-8-5T23:41:14Z</time></trkpt>
<trkpt lat="46.2357978820801" lon="7.26845598220825"><ele></ele><time>2013-8-5T23:41:17Z</time></trkpt>
<trkpt lat="46.2357902526856" lon="7.26842880249024"><ele></ele><time>2013-8-5T23:41:20Z</time></trkpt>
<trkpt lat="46.2357788085938" lon="7.26840686798096"><ele></ele><time>2013-8-5T23:41:23Z</time></trkpt>
<trkpt lat="46.235767364502" lon="7.26838302612305"><ele></ele><time>2013-8-5T23:41:26Z</time></trkpt>
<trkpt lat="46.2357406616211" lon="7.26832246780396"><ele></ele><time>2013-8-5T23:41:29Z</time></trkpt>
<trkpt lat="46.235725402832" lon="7.26829624176025"><ele></ele><time>2013-8-5T23:41:32Z</time></trkpt>
<trkpt lat="46.2357139587402" lon="7.26826906204224"><ele></ele><time>2013-8-5T23:41:35Z</time></trkpt>
<trkpt lat="46.2357025146484" lon="7.26824378967285"><ele></ele><time>2013-8-5T23:41:38Z</time></trkpt>
<trkpt lat="46.2356910705566" lon="7.26821804046631"><ele></ele><time>2013-8-5T23:41:41Z</time></trkpt>
<trkpt lat="46.235652923584" lon="7.26812267303467"><ele></ele><time>2013-8-5T23:41:44Z</time></trkpt>
<trkpt lat="46.2356414794922" lon="7.26809883117676"><ele></ele><time>2013-8-5T23:41:47Z</time></trkpt>
<trkpt lat="46.2356338500977" lon="7.26807117462158"><ele></ele><time>2013-8-5T23:41:50Z</time></trkpt>
<trkpt lat="46.2356262207031" lon="7.26804304122925"><ele></ele><time>2013-8-5T23:41:53Z</time></trkpt>
<trkpt lat="46.2356185913086" lon="7.26801443099976"><ele></ele><time>2013-8-5T23:41:56Z</time></trkpt>
<trkpt lat="46.2355880737305" lon="7.267906665802"><ele></ele><time>2013-8-5T23:41:59Z</time></trkpt>
<trkpt lat="46.2355804443359" lon="7.26788520812988"><ele></ele><time>2013-8-5T23:42:2Z</time></trkpt>
<trkpt lat="46.2355728149414" lon="7.26786136627197"><ele></ele><time>2013-8-5T23:42:5Z</time></trkpt>
<trkpt lat="46.2355613708496" lon="7.26783561706543"><ele></ele><time>2013-8-5T23:42:8Z</time></trkpt>
<trkpt lat="46.2355499267578" lon="7.26780986785889"><ele></ele><time>2013-8-5T23:42:11Z</time></trkpt>
<trkpt lat="46.2355079650879" lon="7.26770162582398"><ele></ele><time>2013-8-5T23:42:14Z</time></trkpt>
<trkpt lat="46.2354965209961" lon="7.26767587661743"><ele></ele><time>2013-8-5T23:42:17Z</time></trkpt>
<trkpt lat="46.2354850769043" lon="7.26764678955078"><ele></ele><time>2013-8-5T23:42:20Z</time></trkpt>
<trkpt lat="46.2354736328125" lon="7.2676191329956"><ele></ele><time>2013-8-5T23:42:23Z</time></trkpt>
<trkpt lat="46.235466003418" lon="7.26759433746338"><ele></ele><time>2013-8-5T23:42:26Z</time></trkpt>
<trkpt lat="46.235424041748" lon="7.26750564575195"><ele></ele><time>2013-8-5T23:42:29Z</time></trkpt>
<trkpt lat="46.235408782959" lon="7.26748180389404"><ele></ele><time>2013-8-5T23:42:32Z</time></trkpt>
<trkpt lat="46.2354049682617" lon="7.26746225357056"><ele></ele><time>2013-8-5T23:42:35Z</time></trkpt>
<trkpt lat="46.2353935241699" lon="7.26743268966675"><ele></ele><time>2013-8-5T23:42:38Z</time></trkpt>
<trkpt lat="46.2353820800781" lon="7.26740407943726"><ele></ele><time>2013-8-5T23:42:41Z</time></trkpt>
<trkpt lat="46.2353515625" lon="7.26733732223511"><ele></ele><time>2013-8-5T23:42:44Z</time></trkpt>
<trkpt lat="46.2353401184082" lon="7.26731395721436"><ele></ele><time>2013-8-5T23:42:47Z</time></trkpt>
<trkpt lat="46.2353286743164" lon="7.26729249954224"><ele></ele><time>2013-8-5T23:42:50Z</time></trkpt>
<trkpt lat="46.2353210449219" lon="7.26726579666138"><ele></ele><time>2013-8-5T23:42:53Z</time></trkpt>
<trkpt lat="46.2353057861328" lon="7.26721429824829"><ele></ele><time>2013-8-5T23:42:56Z</time></trkpt>
<trkpt lat="46.235294342041" lon="7.26717901229858"><ele></ele><time>2013-8-5T23:42:59Z</time></trkpt>
<trkpt lat="46.2352752685547" lon="7.2671332359314"><ele></ele><time>2013-8-5T23:43:2Z</time></trkpt>
<trkpt lat="46.2352600097656" lon="7.26710557937622"><ele></ele><time>2013-8-5T23:43:5Z</time></trkpt>
<trkpt lat="46.2352447509766" lon="7.26708889007568"><ele></ele><time>2013-8-5T23:43:8Z</time></trkpt>
<trkpt lat="46.2352294921875" lon="7.26707029342651"><ele></ele><time>2013-8-5T23:43:11Z</time></trkpt>
<trkpt lat="46.2351570129394" lon="7.26693677902222"><ele></ele><time>2013-8-5T23:43:14Z</time></trkpt>
<trkpt lat="46.2351417541504" lon="7.26691436767578"><ele></ele><time>2013-8-5T23:43:17Z</time></trkpt>
<trkpt lat="46.2351303100586" lon="7.26688718795776"><ele></ele><time>2013-8-5T23:43:20Z</time></trkpt>
<trkpt lat="46.2351226806641" lon="7.26686096191406"><ele></ele><time>2013-8-5T23:43:23Z</time></trkpt>
<trkpt lat="46.2351112365723" lon="7.26683330535889"><ele></ele><time>2013-8-5T23:43:26Z</time></trkpt>
<trkpt lat="46.2350616455078" lon="7.2667407989502"><ele></ele><time>2013-8-5T23:43:29Z</time></trkpt>
<trkpt lat="46.2350425720215" lon="7.26672267913818"><ele></ele><time>2013-8-5T23:43:32Z</time></trkpt>
<trkpt lat="46.2350273132324" lon="7.26670217514038"><ele></ele><time>2013-8-5T23:43:35Z</time></trkpt>
<trkpt lat="46.2350120544434" lon="7.26668357849121"><ele></ele><time>2013-8-5T23:43:38Z</time></trkpt>
<trkpt lat="46.2349967956543" lon="7.26666259765625"><ele></ele><time>2013-8-5T23:43:41Z</time></trkpt>
<trkpt lat="46.2349815368652" lon="7.2666392326355"><ele></ele><time>2013-8-5T23:43:44Z</time></trkpt>
<trkpt lat="46.2349281311035" lon="7.26655292510986"><ele></ele><time>2013-8-5T23:43:47Z</time></trkpt>
<trkpt lat="46.2349128723144" lon="7.26653003692627"><ele></ele><time>2013-8-5T23:43:50Z</time></trkpt>
<trkpt lat="46.2348976135254" lon="7.26650762557983"><ele></ele><time>2013-8-5T23:43:53Z</time></trkpt>
<trkpt lat="46.2348823547363" lon="7.26648759841919"><ele></ele><time>2013-8-5T23:43:56Z</time></trkpt>
<trkpt lat="46.2348098754883" lon="7.26638841629028"><ele></ele><time>2013-8-5T23:43:59Z</time></trkpt>
<trkpt lat="46.2348022460938" lon="7.26636266708374"><ele></ele><time>2013-8-5T23:44:2Z</time></trkpt>
<trkpt lat="46.2347946166992" lon="7.26633501052856"><ele></ele><time>2013-8-5T23:44:5Z</time></trkpt>
<trkpt lat="46.2347755432129" lon="7.2663164138794"><ele></ele><time>2013-8-5T23:44:8Z</time></trkpt>
<trkpt lat="46.2347640991211" lon="7.26629400253296"><ele></ele><time>2013-8-5T23:44:11Z</time></trkpt>
<trkpt lat="46.2347221374512" lon="7.26623249053955"><ele></ele><time>2013-8-5T23:44:14Z</time></trkpt>
<trkpt lat="46.2347068786621" lon="7.26621389389038"><ele></ele><time>2013-8-5T23:44:17Z</time></trkpt>
<trkpt lat="46.234691619873" lon="7.26619529724121"><ele></ele><time>2013-8-5T23:44:20Z</time></trkpt>
<trkpt lat="46.234676361084" lon="7.26617574691772"><ele></ele><time>2013-8-5T23:44:23Z</time></trkpt>
<trkpt lat="46.2346687316894" lon="7.26615333557129"><ele></ele><time>2013-8-5T23:44:26Z</time></trkpt>
<trkpt lat="46.2346572875977" lon="7.26613187789917"><ele></ele><time>2013-8-5T23:44:29Z</time></trkpt>
<trkpt lat="46.2346076965332" lon="7.26603031158447"><ele></ele><time>2013-8-5T23:44:32Z</time></trkpt>
<trkpt lat="46.2346000671387" lon="7.26600456237793"><ele></ele><time>2013-8-5T23:44:35Z</time></trkpt>
<trkpt lat="46.2345924377441" lon="7.26597690582275"><ele></ele><time>2013-8-5T23:44:38Z</time></trkpt>
<trkpt lat="46.2345809936523" lon="7.26595592498779"><ele></ele><time>2013-8-5T23:44:41Z</time></trkpt>
<trkpt lat="46.2345504760742" lon="7.26587963104248"><ele></ele><time>2013-8-5T23:44:44Z</time></trkpt>
<trkpt lat="46.2345428466797" lon="7.26585531234741"><ele></ele><time>2013-8-5T23:44:47Z</time></trkpt>
<trkpt lat="46.2345352172852" lon="7.26583242416382"><ele></ele><time>2013-8-5T23:44:50Z</time></trkpt>
<trkpt lat="46.2345237731934" lon="7.26581001281738"><ele></ele><time>2013-8-5T23:44:53Z</time></trkpt>
<trkpt lat="46.2345161437988" lon="7.26578378677368"><ele></ele><time>2013-8-5T23:44:56Z</time></trkpt>
<trkpt lat="46.234489440918" lon="7.2657060623169"><ele></ele><time>2013-8-5T23:44:59Z</time></trkpt>
<trkpt lat="46.2344703674316" lon="7.26565504074097"><ele></ele><time>2013-8-5T23:45:2Z</time></trkpt>
<trkpt lat="46.2344589233398" lon="7.26563024520874"><ele></ele><time>2013-8-5T23:45:5Z</time></trkpt>
<trkpt lat="46.2344512939453" lon="7.26560306549072"><ele></ele><time>2013-8-5T23:45:8Z</time></trkpt>
<trkpt lat="46.2344436645508" lon="7.26557636260986"><ele></ele><time>2013-8-5T23:45:11Z</time></trkpt>
<trkpt lat="46.2344360351562" lon="7.26555299758911"><ele></ele><time>2013-8-5T23:45:14Z</time></trkpt>
<trkpt lat="46.2344169616699" lon="7.26550197601318"><ele></ele><time>2013-8-5T23:45:17Z</time></trkpt>
<trkpt lat="46.2344017028809" lon="7.26544284820557"><ele></ele><time>2013-8-5T23:45:20Z</time></trkpt>
<trkpt lat="46.2343940734863" lon="7.26541566848755"><ele></ele><time>2013-8-5T23:45:23Z</time></trkpt>
<trkpt lat="46.2343864440918" lon="7.26538705825806"><ele></ele><time>2013-8-5T23:45:26Z</time></trkpt>
<trkpt lat="46.234375" lon="7.26535987854004"><ele></ele><time>2013-8-5T23:45:29Z</time></trkpt>
<trkpt lat="46.2343406677246" lon="7.26525115966797"><ele></ele><time>2013-8-5T23:45:32Z</time></trkpt>
<trkpt lat="46.2343254089356" lon="7.26519966125488"><ele></ele><time>2013-8-5T23:45:35Z</time></trkpt>
<trkpt lat="46.2343139648438" lon="7.26517581939697"><ele></ele><time>2013-8-5T23:45:38Z</time></trkpt>
<trkpt lat="46.2343063354492" lon="7.2651481628418"><ele></ele><time>2013-8-5T23:45:41Z</time></trkpt>
<trkpt lat="46.234302520752" lon="7.26512050628662"><ele></ele><time>2013-8-5T23:45:44Z</time></trkpt>
<trkpt lat="46.2342910766602" lon="7.26509761810303"><ele></ele><time>2013-8-5T23:45:47Z</time></trkpt>
<trkpt lat="46.2342758178711" lon="7.26507806777954"><ele></ele><time>2013-8-5T23:45:50Z</time></trkpt>
<trkpt lat="46.2342338562012" lon="7.26498126983643"><ele></ele><time>2013-8-5T23:45:53Z</time></trkpt>
<trkpt lat="46.2342185974121" lon="7.26496315002441"><ele></ele><time>2013-8-5T23:45:56Z</time></trkpt>
<trkpt lat="46.2342071533203" lon="7.26493644714356"><ele></ele><time>2013-8-5T23:45:59Z</time></trkpt>
<trkpt lat="46.2341995239258" lon="7.2649097442627"><ele></ele><time>2013-8-5T23:46:2Z</time></trkpt>
<trkpt lat="46.234188079834" lon="7.26488733291626"><ele></ele><time>2013-8-5T23:46:5Z</time></trkpt>
<trkpt lat="46.2341156005859" lon="7.26475286483765"><ele></ele><time>2013-8-5T23:46:8Z</time></trkpt>
<trkpt lat="46.2341003417969" lon="7.26473379135132"><ele></ele><time>2013-8-5T23:46:11Z</time></trkpt>
<trkpt lat="46.2340888977051" lon="7.26471090316772"><ele></ele><time>2013-8-5T23:46:14Z</time></trkpt>
<trkpt lat="46.234073638916" lon="7.26469087600708"><ele></ele><time>2013-8-5T23:46:17Z</time></trkpt>
<trkpt lat="46.2340393066406" lon="7.26464891433716"><ele></ele><time>2013-8-5T23:46:20Z</time></trkpt>
<trkpt lat="46.2340240478516" lon="7.26462888717651"><ele></ele><time>2013-8-5T23:46:23Z</time></trkpt>
<trkpt lat="46.2340087890625" lon="7.26460838317871"><ele></ele><time>2013-8-5T23:46:26Z</time></trkpt>
<trkpt lat="46.2339935302734" lon="7.26458787918091"><ele></ele><time>2013-8-5T23:46:29Z</time></trkpt>
<trkpt lat="46.2339820861816" lon="7.2645697593689"><ele></ele><time>2013-8-5T23:46:32Z</time></trkpt>
<trkpt lat="46.233959197998" lon="7.26452589035034"><ele></ele><time>2013-8-5T23:46:35Z</time></trkpt>
<trkpt lat="46.233943939209" lon="7.26450347900391"><ele></ele><time>2013-8-5T23:46:38Z</time></trkpt>
<trkpt lat="46.2339324951172" lon="7.26447677612305"><ele></ele><time>2013-8-5T23:46:41Z</time></trkpt>
<trkpt lat="46.2339172363281" lon="7.26445531845093"><ele></ele><time>2013-8-5T23:46:44Z</time></trkpt>
<trkpt lat="46.2339019775391" lon="7.26443147659302"><ele></ele><time>2013-8-5T23:46:47Z</time></trkpt>
<trkpt lat="46.2338218688965" lon="7.26431369781494"><ele></ele><time>2013-8-5T23:46:50Z</time></trkpt>
<trkpt lat="46.2338104248047" lon="7.26429319381714"><ele></ele><time>2013-8-5T23:46:53Z</time></trkpt>
<trkpt lat="46.2337951660156" lon="7.26427459716797"><ele></ele><time>2013-8-5T23:46:56Z</time></trkpt>
<trkpt lat="46.2337799072266" lon="7.26425075531006"><ele></ele><time>2013-8-5T23:46:59Z</time></trkpt>
<trkpt lat="46.2337646484375" lon="7.26422834396362"><ele></ele><time>2013-8-5T23:47:2Z</time></trkpt>
<trkpt lat="46.2336845397949" lon="7.26411867141724"><ele></ele><time>2013-8-5T23:47:5Z</time></trkpt>
<trkpt lat="46.2336692810059" lon="7.26409721374512"><ele></ele><time>2013-8-5T23:47:8Z</time></trkpt>
<trkpt lat="46.2336578369141" lon="7.26407527923584"><ele></ele><time>2013-8-5T23:47:11Z</time></trkpt>
<trkpt lat="46.233642578125" lon="7.26405811309814"><ele></ele><time>2013-8-5T23:47:14Z</time></trkpt>
<trkpt lat="46.2336235046387" lon="7.26404237747192"><ele></ele><time>2013-8-5T23:47:17Z</time></trkpt>
<trkpt lat="46.2335510253906" lon="7.26397705078125"><ele></ele><time>2013-8-5T23:47:20Z</time></trkpt>
<trkpt lat="46.2335319519043" lon="7.26396131515503"><ele></ele><time>2013-8-5T23:47:23Z</time></trkpt>
<trkpt lat="46.2335166931152" lon="7.26394510269165"><ele></ele><time>2013-8-5T23:47:26Z</time></trkpt>
<trkpt lat="46.2335014343262" lon="7.26392698287964"><ele></ele><time>2013-8-5T23:47:29Z</time></trkpt>
<trkpt lat="46.2334823608398" lon="7.26391124725342"><ele></ele><time>2013-8-5T23:47:32Z</time></trkpt>
<trkpt lat="46.2334327697754" lon="7.26387453079224"><ele></ele><time>2013-8-5T23:47:35Z</time></trkpt>
<trkpt lat="46.2333946228027" lon="7.26384544372559"><ele></ele><time>2013-8-5T23:47:38Z</time></trkpt>
<trkpt lat="46.2333755493164" lon="7.26382780075073"><ele></ele><time>2013-8-5T23:47:41Z</time></trkpt>
<trkpt lat="46.2333564758301" lon="7.2638111114502"><ele></ele><time>2013-8-5T23:47:44Z</time></trkpt>
<trkpt lat="46.233341217041" lon="7.26379632949829"><ele></ele><time>2013-8-5T23:47:47Z</time></trkpt>
<trkpt lat="46.233325958252" lon="7.26378107070923"><ele></ele><time>2013-8-5T23:47:50Z</time></trkpt>
<trkpt lat="46.2333068847656" lon="7.26376485824585"><ele></ele><time>2013-8-5T23:47:53Z</time></trkpt>
<trkpt lat="46.2332572937012" lon="7.26372003555298"><ele></ele><time>2013-8-5T23:47:56Z</time></trkpt>
<trkpt lat="46.2332382202148" lon="7.26370811462402"><ele></ele><time>2013-8-5T23:47:59Z</time></trkpt>
<trkpt lat="46.2332191467285" lon="7.26369619369507"><ele></ele><time>2013-8-5T23:48:2Z</time></trkpt>
<trkpt lat="46.2332000732422" lon="7.26368188858032"><ele></ele><time>2013-8-5T23:48:5Z</time></trkpt>
<trkpt lat="46.2331848144531" lon="7.2636661529541"><ele></ele><time>2013-8-5T23:48:8Z</time></trkpt>
<trkpt lat="46.2331275939941" lon="7.26362228393555"><ele></ele><time>2013-8-5T23:48:11Z</time></trkpt>
<trkpt lat="46.2331123352051" lon="7.26360321044922"><ele></ele><time>2013-8-5T23:48:14Z</time></trkpt>
<trkpt lat="46.2330932617188" lon="7.26358127593994"><ele></ele><time>2013-8-5T23:48:17Z</time></trkpt>
<trkpt lat="46.2330741882324" lon="7.26356506347656"><ele></ele><time>2013-8-5T23:48:20Z</time></trkpt>
<trkpt lat="46.2330589294434" lon="7.26355266571045"><ele></ele><time>2013-8-5T23:48:23Z</time></trkpt>
<trkpt lat="46.2329940795898" lon="7.2634654045105"><ele></ele><time>2013-8-5T23:48:26Z</time></trkpt>
<trkpt lat="46.2329711914062" lon="7.26344060897827"><ele></ele><time>2013-8-5T23:48:29Z</time></trkpt>
<trkpt lat="46.2329521179199" lon="7.26341676712036"><ele></ele><time>2013-8-5T23:48:32Z</time></trkpt>
<trkpt lat="46.2329406738281" lon="7.26339149475098"><ele></ele><time>2013-8-5T23:48:35Z</time></trkpt>
<trkpt lat="46.2329292297363" lon="7.26336860656738"><ele></ele><time>2013-8-5T23:48:38Z</time></trkpt>
<trkpt lat="46.2328948974609" lon="7.26332902908325"><ele></ele><time>2013-8-5T23:48:41Z</time></trkpt>
<trkpt lat="46.2328681945801" lon="7.26328659057617"><ele></ele><time>2013-8-5T23:48:44Z</time></trkpt>
<trkpt lat="46.2328567504883" lon="7.26326036453247"><ele></ele><time>2013-8-5T23:48:47Z</time></trkpt>
<trkpt lat="46.2328414916992" lon="7.2632360458374"><ele></ele><time>2013-8-5T23:48:50Z</time></trkpt>
<trkpt lat="46.2328338623047" lon="7.2632098197937"><ele></ele><time>2013-8-5T23:48:53Z</time></trkpt>
<trkpt lat="46.2328224182129" lon="7.26318836212158"><ele></ele><time>2013-8-5T23:48:56Z</time></trkpt>
<trkpt lat="46.2328071594238" lon="7.26316261291504"><ele></ele><time>2013-8-5T23:48:59Z</time></trkpt>
<trkpt lat="46.232780456543" lon="7.26311349868774"><ele></ele><time>2013-8-5T23:49:2Z</time></trkpt>
<trkpt lat="46.2327651977539" lon="7.26308965682983"><ele></ele><time>2013-8-5T23:49:5Z</time></trkpt>
<trkpt lat="46.2327499389648" lon="7.26306867599487"><ele></ele><time>2013-8-5T23:49:8Z</time></trkpt>
<trkpt lat="46.2327346801758" lon="7.26304721832275"><ele></ele><time>2013-8-5T23:49:11Z</time></trkpt>
<trkpt lat="46.2326965332031" lon="7.26297616958618"><ele></ele><time>2013-8-5T23:49:14Z</time></trkpt>
<trkpt lat="46.2326812744141" lon="7.26295375823975"><ele></ele><time>2013-8-5T23:49:17Z</time></trkpt>
<trkpt lat="46.2326698303223" lon="7.26293039321899"><ele></ele><time>2013-8-5T23:49:20Z</time></trkpt>
<trkpt lat="46.2326545715332" lon="7.26290702819824"><ele></ele><time>2013-8-5T23:49:23Z</time></trkpt>
<trkpt lat="46.2326431274414" lon="7.26288270950317"><ele></ele><time>2013-8-5T23:49:26Z</time></trkpt>
<trkpt lat="46.232608795166" lon="7.26281356811524"><ele></ele><time>2013-8-5T23:49:29Z</time></trkpt>
<trkpt lat="46.2325859069824" lon="7.26276683807373"><ele></ele><time>2013-8-5T23:49:32Z</time></trkpt>
<trkpt lat="46.2325706481934" lon="7.26274347305298"><ele></ele><time>2013-8-5T23:49:35Z</time></trkpt>
<trkpt lat="46.2325553894043" lon="7.2627215385437"><ele></ele><time>2013-8-5T23:49:38Z</time></trkpt>
<trkpt lat="46.2325401306152" lon="7.26270198822022"><ele></ele><time>2013-8-5T23:49:41Z</time></trkpt>
<trkpt lat="46.2325286865234" lon="7.26268100738525"><ele></ele><time>2013-8-5T23:49:44Z</time></trkpt>
<trkpt lat="46.232494354248" lon="7.26264572143555"><ele></ele><time>2013-8-5T23:49:47Z</time></trkpt>
<trkpt lat="46.2324447631836" lon="7.26258134841919"><ele></ele><time>2013-8-5T23:49:50Z</time></trkpt>
<trkpt lat="46.2324295043945" lon="7.26256036758423"><ele></ele><time>2013-8-5T23:49:53Z</time></trkpt>
<trkpt lat="46.2324142456055" lon="7.26253747940064"><ele></ele><time>2013-8-5T23:49:56Z</time></trkpt>
<trkpt lat="46.2323989868164" lon="7.26251554489136"><ele></ele><time>2013-8-5T23:49:59Z</time></trkpt>
<trkpt lat="46.2323303222656" lon="7.26244068145752"><ele></ele><time>2013-8-5T23:50:2Z</time></trkpt>
<trkpt lat="46.2323112487793" lon="7.26242160797119"><ele></ele><time>2013-8-5T23:50:5Z</time></trkpt>
<trkpt lat="46.2322959899902" lon="7.26240348815918"><ele></ele><time>2013-8-5T23:50:8Z</time></trkpt>
<trkpt lat="46.2322807312012" lon="7.26238584518433"><ele></ele><time>2013-8-5T23:50:11Z</time></trkpt>
<trkpt lat="46.2322654724121" lon="7.26236820220947"><ele></ele><time>2013-8-5T23:50:14Z</time></trkpt>
<trkpt lat="46.2322158813477" lon="7.26231050491333"><ele></ele><time>2013-8-5T23:50:17Z</time></trkpt>
<trkpt lat="46.2322006225586" lon="7.26228761672974"><ele></ele><time>2013-8-5T23:50:20Z</time></trkpt>
<trkpt lat="46.2321815490723" lon="7.26226663589478"><ele></ele><time>2013-8-5T23:50:23Z</time></trkpt>
<trkpt lat="46.2321624755859" lon="7.2622504234314"><ele></ele><time>2013-8-5T23:50:26Z</time></trkpt>
<trkpt lat="46.2321510314941" lon="7.26223468780518"><ele></ele><time>2013-8-5T23:50:29Z</time></trkpt>
<trkpt lat="46.2320938110352" lon="7.26215553283691"><ele></ele><time>2013-8-5T23:50:32Z</time></trkpt>
<trkpt lat="46.2320823669434" lon="7.26213121414185"><ele></ele><time>2013-8-5T23:50:35Z</time></trkpt>
<trkpt lat="46.2320671081543" lon="7.26210832595825"><ele></ele><time>2013-8-5T23:50:38Z</time></trkpt>
<trkpt lat="46.2320556640625" lon="7.26208353042602"><ele></ele><time>2013-8-5T23:50:41Z</time></trkpt>
<trkpt lat="46.2320404052734" lon="7.26206350326538"><ele></ele><time>2013-8-5T23:50:44Z</time></trkpt>
<trkpt lat="46.2320251464844" lon="7.26204586029053"><ele></ele><time>2013-8-5T23:50:47Z</time></trkpt>
<trkpt lat="46.2319755554199" lon="7.26195764541626"><ele></ele><time>2013-8-5T23:50:50Z</time></trkpt>
<trkpt lat="46.2319488525391" lon="7.26190805435181"><ele></ele><time>2013-8-5T23:50:53Z</time></trkpt>
<trkpt lat="46.2319488525391" lon="7.26190805435181"><ele></ele><time>2013-8-5T23:50:56Z</time></trkpt>
<trkpt lat="46.2319221496582" lon="7.26184844970703"><ele></ele><time>2013-8-5T23:50:59Z</time></trkpt>
<trkpt lat="46.231876373291" lon="7.26175546646118"><ele></ele><time>2013-8-5T23:51:2Z</time></trkpt>
<trkpt lat="46.231861114502" lon="7.26173067092896"><ele></ele><time>2013-8-5T23:51:5Z</time></trkpt>
<trkpt lat="46.2318496704102" lon="7.2617073059082"><ele></ele><time>2013-8-5T23:51:8Z</time></trkpt>
<trkpt lat="46.2318382263184" lon="7.26168584823608"><ele></ele><time>2013-8-5T23:51:11Z</time></trkpt>
<trkpt lat="46.2318267822266" lon="7.26166105270386"><ele></ele><time>2013-8-5T23:51:14Z</time></trkpt>
<trkpt lat="46.2317848205566" lon="7.26159381866455"><ele></ele><time>2013-8-5T23:51:17Z</time></trkpt>
<trkpt lat="46.2317733764648" lon="7.26156902313232"><ele></ele><time>2013-8-5T23:51:20Z</time></trkpt>
<trkpt lat="46.231761932373" lon="7.26154136657715"><ele></ele><time>2013-8-5T23:51:23Z</time></trkpt>
<trkpt lat="46.2317504882812" lon="7.26151371002197"><ele></ele><time>2013-8-5T23:51:26Z</time></trkpt>
<trkpt lat="46.2317390441894" lon="7.26149034500122"><ele></ele><time>2013-8-5T23:51:29Z</time></trkpt>
<trkpt lat="46.2316856384277" lon="7.26139736175537"><ele></ele><time>2013-8-5T23:51:32Z</time></trkpt>
<trkpt lat="46.2316741943359" lon="7.26137638092041"><ele></ele><time>2013-8-5T23:51:35Z</time></trkpt>
<trkpt lat="46.2316627502441" lon="7.26135540008545"><ele></ele><time>2013-8-5T23:51:38Z</time></trkpt>
<trkpt lat="46.2316513061523" lon="7.26133155822754"><ele></ele><time>2013-8-5T23:51:41Z</time></trkpt>
<trkpt lat="46.2316360473633" lon="7.26130723953247"><ele></ele><time>2013-8-5T23:51:44Z</time></trkpt>
<trkpt lat="46.2315826416016" lon="7.26122045516968"><ele></ele><time>2013-8-5T23:51:47Z</time></trkpt>
<trkpt lat="46.231575012207" lon="7.26120519638062"><ele></ele><time>2013-8-5T23:51:50Z</time></trkpt>
<trkpt lat="46.2315673828125" lon="7.2611813545227"><ele></ele><time>2013-8-5T23:51:53Z</time></trkpt>
<trkpt lat="46.2315559387207" lon="7.26115655899048"><ele></ele><time>2013-8-5T23:51:56Z</time></trkpt>
<trkpt lat="46.2315406799316" lon="7.26113653182983"><ele></ele><time>2013-8-5T23:51:59Z</time></trkpt>
<trkpt lat="46.231517791748" lon="7.26109313964844"><ele></ele><time>2013-8-5T23:52:2Z</time></trkpt>
<trkpt lat="46.231502532959" lon="7.26107454299927"><ele></ele><time>2013-8-5T23:52:5Z</time></trkpt>
<trkpt lat="46.2314872741699" lon="7.26105403900146"><ele></ele><time>2013-8-5T23:52:8Z</time></trkpt>
<trkpt lat="46.2314720153809" lon="7.26103258132935"><ele></ele><time>2013-8-5T23:52:11Z</time></trkpt>
<trkpt lat="46.2314529418945" lon="7.26100873947144"><ele></ele><time>2013-8-5T23:52:14Z</time></trkpt>
<trkpt lat="46.2314414978027" lon="7.26098299026489"><ele></ele><time>2013-8-5T23:52:17Z</time></trkpt>
<trkpt lat="46.2314224243164" lon="7.26095676422119"><ele></ele><time>2013-8-5T23:52:20Z</time></trkpt>
<trkpt lat="46.2313957214356" lon="7.26091003417969"><ele></ele><time>2013-8-5T23:52:23Z</time></trkpt>
<trkpt lat="46.231388092041" lon="7.26088333129883"><ele></ele><time>2013-8-5T23:52:26Z</time></trkpt>
<trkpt lat="46.231372833252" lon="7.26085710525513"><ele></ele><time>2013-8-5T23:52:29Z</time></trkpt>
<trkpt lat="46.2313613891602" lon="7.26082944869995"><ele></ele><time>2013-8-5T23:52:32Z</time></trkpt>
<trkpt lat="46.2313461303711" lon="7.26080417633057"><ele></ele><time>2013-8-5T23:52:35Z</time></trkpt>
<trkpt lat="46.2313385009766" lon="7.26077938079834"><ele></ele><time>2013-8-5T23:52:38Z</time></trkpt>
<trkpt lat="46.2312850952148" lon="7.26067495346069"><ele></ele><time>2013-8-5T23:52:41Z</time></trkpt>
<trkpt lat="46.2312774658203" lon="7.26064825057983"><ele></ele><time>2013-8-5T23:52:44Z</time></trkpt>
<trkpt lat="46.2312660217285" lon="7.26061820983887"><ele></ele><time>2013-8-5T23:52:47Z</time></trkpt>
<trkpt lat="46.2312545776367" lon="7.26059150695801"><ele></ele><time>2013-8-5T23:52:50Z</time></trkpt>
<trkpt lat="46.2312469482422" lon="7.26056480407715"><ele></ele><time>2013-8-5T23:52:53Z</time></trkpt>
<trkpt lat="46.2312355041504" lon="7.26053714752197"><ele></ele><time>2013-8-5T23:52:56Z</time></trkpt>
<trkpt lat="46.2312164306641" lon="7.26047897338867"><ele></ele><time>2013-8-5T23:52:59Z</time></trkpt>
<trkpt lat="46.231201171875" lon="7.26045179367065"><ele></ele><time>2013-8-5T23:53:2Z</time></trkpt>
<trkpt lat="46.2311897277832" lon="7.26042652130127"><ele></ele><time>2013-8-5T23:53:5Z</time></trkpt>
<trkpt lat="46.2311744689941" lon="7.26040172576904"><ele></ele><time>2013-8-5T23:53:8Z</time></trkpt>
<trkpt lat="46.2311668395996" lon="7.2603759765625"><ele></ele><time>2013-8-5T23:53:11Z</time></trkpt>
<trkpt lat="46.2311477661133" lon="7.26032400131226"><ele></ele><time>2013-8-5T23:53:14Z</time></trkpt>
<trkpt lat="46.2311363220215" lon="7.26029443740845"><ele></ele><time>2013-8-5T23:53:17Z</time></trkpt>
<trkpt lat="46.2311248779297" lon="7.26026439666748"><ele></ele><time>2013-8-5T23:53:20Z</time></trkpt>
<trkpt lat="46.2311134338379" lon="7.26023435592651"><ele></ele><time>2013-8-5T23:53:23Z</time></trkpt>
<trkpt lat="46.2311058044434" lon="7.26020240783691"><ele></ele><time>2013-8-5T23:53:26Z</time></trkpt>
<trkpt lat="46.2310829162598" lon="7.26014089584351"><ele></ele><time>2013-8-5T23:53:29Z</time></trkpt>
<trkpt lat="46.2310752868652" lon="7.26011180877686"><ele></ele><time>2013-8-5T23:53:32Z</time></trkpt>
<trkpt lat="46.2310676574707" lon="7.26008033752441"><ele></ele><time>2013-8-5T23:53:35Z</time></trkpt>
<trkpt lat="46.2310600280762" lon="7.26005172729492"><ele></ele><time>2013-8-5T23:53:38Z</time></trkpt>
<trkpt lat="46.2310523986816" lon="7.26002216339111"><ele></ele><time>2013-8-5T23:53:41Z</time></trkpt>
<trkpt lat="46.2310371398926" lon="7.25992822647095"><ele></ele><time>2013-8-5T23:53:44Z</time></trkpt>
<trkpt lat="46.2310180664062" lon="7.25980472564697"><ele></ele><time>2013-8-5T23:53:47Z</time></trkpt>
<trkpt lat="46.2310066223144" lon="7.25977611541748"><ele></ele><time>2013-8-5T23:53:50Z</time></trkpt>
<trkpt lat="46.2309989929199" lon="7.25974702835083"><ele></ele><time>2013-8-5T23:53:53Z</time></trkpt>
<trkpt lat="46.2309951782227" lon="7.25971746444702"><ele></ele><time>2013-8-5T23:53:56Z</time></trkpt>
<trkpt lat="46.2309761047363" lon="7.25956678390503"><ele></ele><time>2013-8-5T23:53:59Z</time></trkpt>
<trkpt lat="46.2309684753418" lon="7.25953722000122"><ele></ele><time>2013-8-5T23:54:2Z</time></trkpt>
<trkpt lat="46.2309646606445" lon="7.25950622558594"><ele></ele><time>2013-8-5T23:54:5Z</time></trkpt>
<trkpt lat="46.23095703125" lon="7.25947523117065"><ele></ele><time>2013-8-5T23:54:8Z</time></trkpt>
<trkpt lat="46.2309494018555" lon="7.25944423675537"><ele></ele><time>2013-8-5T23:54:11Z</time></trkpt>
<trkpt lat="46.2309379577637" lon="7.25933694839478"><ele></ele><time>2013-8-5T23:54:14Z</time></trkpt>
<trkpt lat="46.2309379577637" lon="7.25927591323852"><ele></ele><time>2013-8-5T23:54:17Z</time></trkpt>
<trkpt lat="46.2309379577637" lon="7.2592453956604"><ele></ele><time>2013-8-5T23:54:20Z</time></trkpt>
<trkpt lat="46.2309417724609" lon="7.25921440124512"><ele></ele><time>2013-8-5T23:54:23Z</time></trkpt>
<trkpt lat="46.2309417724609" lon="7.25918388366699"><ele></ele><time>2013-8-5T23:54:26Z</time></trkpt>
<trkpt lat="46.2309455871582" lon="7.25915431976318"><ele></ele><time>2013-8-5T23:54:29Z</time></trkpt>
<trkpt lat="46.2309608459473" lon="7.25913095474243"><ele></ele><time>2013-8-5T23:54:32Z</time></trkpt>
<trkpt lat="46.2309913635254" lon="7.25909948348999"><ele></ele><time>2013-8-5T23:54:35Z</time></trkpt>
<trkpt lat="46.2310104370117" lon="7.25909185409546"><ele></ele><time>2013-8-5T23:54:38Z</time></trkpt>
<trkpt lat="46.2310333251953" lon="7.25908708572388"><ele></ele><time>2013-8-5T23:54:41Z</time></trkpt>
<trkpt lat="46.2310562133789" lon="7.25908422470093"><ele></ele><time>2013-8-5T23:54:44Z</time></trkpt>
<trkpt lat="46.2311172485352" lon="7.25907564163208"><ele></ele><time>2013-8-5T23:54:47Z</time></trkpt>
<trkpt lat="46.2311668395996" lon="7.25909090042114"><ele></ele><time>2013-8-5T23:54:50Z</time></trkpt>
<trkpt lat="46.2311897277832" lon="7.25908422470093"><ele></ele><time>2013-8-5T23:54:53Z</time></trkpt>
<trkpt lat="46.2312088012695" lon="7.25908422470093"><ele></ele><time>2013-8-5T23:54:56Z</time></trkpt>
<trkpt lat="46.2312316894531" lon="7.25908184051514"><ele></ele><time>2013-8-5T23:54:59Z</time></trkpt>
<trkpt lat="46.2312545776367" lon="7.25908803939819"><ele></ele><time>2013-8-5T23:55:2Z</time></trkpt>
<trkpt lat="46.2313423156738" lon="7.25907850265503"><ele></ele><time>2013-8-5T23:55:5Z</time></trkpt>
<trkpt lat="46.2313652038574" lon="7.2590742111206"><ele></ele><time>2013-8-5T23:55:8Z</time></trkpt>
<trkpt lat="46.2313842773438" lon="7.25907516479492"><ele></ele><time>2013-8-5T23:55:11Z</time></trkpt>
<trkpt lat="46.2314033508301" lon="7.25908041000366"><ele></ele><time>2013-8-5T23:55:14Z</time></trkpt>
<trkpt lat="46.2314186096191" lon="7.25908708572388"><ele></ele><time>2013-8-5T23:55:17Z</time></trkpt>
<trkpt lat="46.2314834594727" lon="7.25908899307251"><ele></ele><time>2013-8-5T23:55:20Z</time></trkpt>
<trkpt lat="46.2315444946289" lon="7.2590651512146"><ele></ele><time>2013-8-5T23:55:23Z</time></trkpt>
<trkpt lat="46.2315673828125" lon="7.25906181335449"><ele></ele><time>2013-8-5T23:55:26Z</time></trkpt>
<trkpt lat="46.2315864562988" lon="7.2590537071228"><ele></ele><time>2013-8-5T23:55:29Z</time></trkpt>
<trkpt lat="46.2316055297852" lon="7.2590389251709"><ele></ele><time>2013-8-5T23:55:32Z</time></trkpt>
<trkpt lat="46.2316856384277" lon="7.25900650024414"><ele></ele><time>2013-8-5T23:55:35Z</time></trkpt>
<trkpt lat="46.2317276000977" lon="7.2589955329895"><ele></ele><time>2013-8-5T23:55:38Z</time></trkpt>
<trkpt lat="46.2317504882812" lon="7.25900220870972"><ele></ele><time>2013-8-5T23:55:41Z</time></trkpt>
<trkpt lat="46.2317733764648" lon="7.25901126861572"><ele></ele><time>2013-8-5T23:55:44Z</time></trkpt>
<trkpt lat="46.2317924499512" lon="7.25901460647583"><ele></ele><time>2013-8-5T23:55:47Z</time></trkpt>
<trkpt lat="46.2318153381348" lon="7.25901937484741"><ele></ele><time>2013-8-5T23:55:50Z</time></trkpt>
<trkpt lat="46.2318840026856" lon="7.25902795791626"><ele></ele><time>2013-8-5T23:55:53Z</time></trkpt>
<trkpt lat="46.2319068908691" lon="7.25903081893921"><ele></ele><time>2013-8-5T23:55:56Z</time></trkpt>
<trkpt lat="46.2319297790527" lon="7.259033203125"><ele></ele><time>2013-8-5T23:55:59Z</time></trkpt>
<trkpt lat="46.2319488525391" lon="7.25903224945068"><ele></ele><time>2013-8-5T23:56:2Z</time></trkpt>
<trkpt lat="46.2319679260254" lon="7.25903463363648"><ele></ele><time>2013-8-5T23:56:5Z</time></trkpt>
<trkpt lat="46.2320289611816" lon="7.25905513763428"><ele></ele><time>2013-8-5T23:56:8Z</time></trkpt>
<trkpt lat="46.2320518493652" lon="7.25905752182007"><ele></ele><time>2013-8-5T23:56:11Z</time></trkpt>
<trkpt lat="46.2320709228516" lon="7.25906085968018"><ele></ele><time>2013-8-5T23:56:14Z</time></trkpt>
<trkpt lat="46.2320938110352" lon="7.25906133651733"><ele></ele><time>2013-8-5T23:56:17Z</time></trkpt>
<trkpt lat="46.2321624755859" lon="7.25904655456543"><ele></ele><time>2013-8-5T23:56:20Z</time></trkpt>
<trkpt lat="46.2321815490723" lon="7.25904130935669"><ele></ele><time>2013-8-5T23:56:23Z</time></trkpt>
<trkpt lat="46.2322006225586" lon="7.25904512405396"><ele></ele><time>2013-8-5T23:56:26Z</time></trkpt>
<trkpt lat="46.2322158813477" lon="7.25905084609985"><ele></ele><time>2013-8-5T23:56:29Z</time></trkpt>
<trkpt lat="46.2322387695312" lon="7.259033203125"><ele></ele><time>2013-8-5T23:56:32Z</time></trkpt>
<trkpt lat="46.2322998046875" lon="7.25897979736328"><ele></ele><time>2013-8-5T23:56:35Z</time></trkpt>
<trkpt lat="46.2323150634766" lon="7.25896406173706"><ele></ele><time>2013-8-5T23:56:38Z</time></trkpt>
<trkpt lat="46.2323341369629" lon="7.25894355773926"><ele></ele><time>2013-8-5T23:56:41Z</time></trkpt>
<trkpt lat="46.2323455810547" lon="7.25892019271851"><ele></ele><time>2013-8-5T23:56:44Z</time></trkpt>
<trkpt lat="46.2323608398438" lon="7.2588939666748"><ele></ele><time>2013-8-5T23:56:47Z</time></trkpt>
<trkpt lat="46.2323722839356" lon="7.25886297225952"><ele></ele><time>2013-8-5T23:56:50Z</time></trkpt>
<trkpt lat="46.2324409484863" lon="7.25866174697876"><ele></ele><time>2013-8-5T23:56:53Z</time></trkpt>
<trkpt lat="46.2325172424316" lon="7.25856924057007"><ele></ele><time>2013-8-5T23:56:56Z</time></trkpt>
<trkpt lat="46.232536315918" lon="7.25855827331543"><ele></ele><time>2013-8-5T23:56:59Z</time></trkpt>
<trkpt lat="46.2325592041016" lon="7.25854682922363"><ele></ele><time>2013-8-5T23:57:2Z</time></trkpt>
<trkpt lat="46.2325820922852" lon="7.25853729248047"><ele></ele><time>2013-8-5T23:57:5Z</time></trkpt>
<trkpt lat="46.2327308654785" lon="7.25849342346191"><ele></ele><time>2013-8-5T23:57:8Z</time></trkpt>
<trkpt lat="46.2327537536621" lon="7.2584810256958"><ele></ele><time>2013-8-5T23:57:11Z</time></trkpt>
<trkpt lat="46.232780456543" lon="7.25847387313843"><ele></ele><time>2013-8-5T23:57:14Z</time></trkpt>
<trkpt lat="46.2327995300293" lon="7.25846862792969"><ele></ele><time>2013-8-5T23:57:17Z</time></trkpt>
<trkpt lat="46.2328186035156" lon="7.25845623016357"><ele></ele><time>2013-8-5T23:57:20Z</time></trkpt>
<trkpt lat="46.2328872680664" lon="7.25842666625976"><ele></ele><time>2013-8-5T23:57:23Z</time></trkpt>
<trkpt lat="46.2329635620117" lon="7.25840997695923"><ele></ele><time>2013-8-5T23:57:26Z</time></trkpt>
<trkpt lat="46.2330284118652" lon="7.25839376449585"><ele></ele><time>2013-8-5T23:57:29Z</time></trkpt>
<trkpt lat="46.233097076416" lon="7.25836992263794"><ele></ele><time>2013-8-5T23:57:32Z</time></trkpt>
<trkpt lat="46.2331314086914" lon="7.25835800170898"><ele></ele><time>2013-8-5T23:57:35Z</time></trkpt>
<trkpt lat="46.2331619262695" lon="7.2583441734314"><ele></ele><time>2013-8-5T23:57:38Z</time></trkpt>
<trkpt lat="46.2331886291504" lon="7.25833415985107"><ele></ele><time>2013-8-5T23:57:41Z</time></trkpt>
<trkpt lat="46.2332649230957" lon="7.25831365585327"><ele></ele><time>2013-8-5T23:57:44Z</time></trkpt>
<trkpt lat="46.2334976196289" lon="7.25831699371338"><ele></ele><time>2013-8-5T23:57:47Z</time></trkpt>
<trkpt lat="46.2336235046387" lon="7.25834512710571"><ele></ele><time>2013-8-5T23:57:50Z</time></trkpt>
<trkpt lat="46.2336921691894" lon="7.25835847854614"><ele></ele><time>2013-8-5T23:57:53Z</time></trkpt>
<trkpt lat="46.2337226867676" lon="7.25837564468384"><ele></ele><time>2013-8-5T23:57:56Z</time></trkpt>
<trkpt lat="46.2337493896484" lon="7.25837898254394"><ele></ele><time>2013-8-5T23:57:59Z</time></trkpt>
<trkpt lat="46.2337799072266" lon="7.25838375091553"><ele></ele><time>2013-8-5T23:58:2Z</time></trkpt>
<trkpt lat="46.2338104248047" lon="7.25839376449585"><ele></ele><time>2013-8-5T23:58:5Z</time></trkpt>
<trkpt lat="46.2339210510254" lon="7.25840091705322"><ele></ele><time>2013-8-5T23:58:8Z</time></trkpt>
<trkpt lat="46.2340393066406" lon="7.2584981918335"><ele></ele><time>2013-8-5T23:58:11Z</time></trkpt>
<trkpt lat="46.234058380127" lon="7.25853586196899"><ele></ele><time>2013-8-5T23:58:14Z</time></trkpt>
<trkpt lat="46.2340812683106" lon="7.25857019424438"><ele></ele><time>2013-8-5T23:58:17Z</time></trkpt>
<trkpt lat="46.2341003417969" lon="7.25861072540283"><ele></ele><time>2013-8-5T23:58:20Z</time></trkpt>
<trkpt lat="46.2341156005859" lon="7.25865125656128"><ele></ele><time>2013-8-5T23:58:23Z</time></trkpt>
<trkpt lat="46.2341728210449" lon="7.25875997543335"><ele></ele><time>2013-8-5T23:58:26Z</time></trkpt>
<trkpt lat="46.2342224121094" lon="7.25882005691528"><ele></ele><time>2013-8-5T23:58:29Z</time></trkpt>
<trkpt lat="46.2342529296875" lon="7.25884437561035"><ele></ele><time>2013-8-5T23:58:32Z</time></trkpt>
<trkpt lat="46.2342910766602" lon="7.25887441635132"><ele></ele><time>2013-8-5T23:58:35Z</time></trkpt>
<trkpt lat="46.2343254089356" lon="7.25889492034912"><ele></ele><time>2013-8-5T23:58:38Z</time></trkpt>
<trkpt lat="46.2343597412109" lon="7.25890779495239"><ele></ele><time>2013-8-5T23:58:41Z</time></trkpt>
<trkpt lat="46.2344741821289" lon="7.25894594192505"><ele></ele><time>2013-8-5T23:58:44Z</time></trkpt>
<trkpt lat="46.2345695495606" lon="7.2589864730835"><ele></ele><time>2013-8-5T23:58:47Z</time></trkpt>
<trkpt lat="46.2346000671387" lon="7.25900173187256"><ele></ele><time>2013-8-5T23:58:50Z</time></trkpt>
<trkpt lat="46.2346305847168" lon="7.25901460647583"><ele></ele><time>2013-8-5T23:58:53Z</time></trkpt>
<trkpt lat="46.2346611022949" lon="7.25902318954468"><ele></ele><time>2013-8-5T23:58:56Z</time></trkpt>
<trkpt lat="46.2347717285156" lon="7.25904750823975"><ele></ele><time>2013-8-5T23:58:59Z</time></trkpt>
<trkpt lat="46.2348289489746" lon="7.25903558731079"><ele></ele><time>2013-8-5T23:59:2Z</time></trkpt>
<trkpt lat="46.2348556518555" lon="7.25902557373047"><ele></ele><time>2013-8-5T23:59:5Z</time></trkpt>
<trkpt lat="46.2348785400391" lon="7.25901746749878"><ele></ele><time>2013-8-5T23:59:8Z</time></trkpt>
<trkpt lat="46.2349090576172" lon="7.25899982452393"><ele></ele><time>2013-8-5T23:59:11Z</time></trkpt>
<trkpt lat="46.2349433898926" lon="7.25898170471191"><ele></ele><time>2013-8-5T23:59:14Z</time></trkpt>
<trkpt lat="46.2350006103516" lon="7.25893974304199"><ele></ele><time>2013-8-5T23:59:17Z</time></trkpt>
<trkpt lat="46.2350807189941" lon="7.25887393951416"><ele></ele><time>2013-8-5T23:59:20Z</time></trkpt>
<trkpt lat="46.2351112365723" lon="7.25885677337646"><ele></ele><time>2013-8-5T23:59:23Z</time></trkpt>
<trkpt lat="46.2351455688477" lon="7.25884056091309"><ele></ele><time>2013-8-5T23:59:26Z</time></trkpt>
<trkpt lat="46.2351722717285" lon="7.25883102416992"><ele></ele><time>2013-8-5T23:59:29Z</time></trkpt>
<trkpt lat="46.2352066040039" lon="7.2588300704956"><ele></ele><time>2013-8-5T23:59:32Z</time></trkpt>
<trkpt lat="46.2354736328125" lon="7.25887155532837"><ele></ele><time>2013-8-5T23:59:35Z</time></trkpt>
<trkpt lat="46.2356834411621" lon="7.25901651382446"><ele></ele><time>2013-8-5T23:59:38Z</time></trkpt>
<trkpt lat="46.23583984375" lon="7.25908279418945"><ele></ele><time>2013-8-5T23:59:41Z</time></trkpt>
<trkpt lat="46.2359046936035" lon="7.2590651512146"><ele></ele><time>2013-8-5T23:59:44Z</time></trkpt>
<trkpt lat="46.2360496520996" lon="7.25911283493042"><ele></ele><time>2013-8-5T23:59:47Z</time></trkpt>
<trkpt lat="46.2360877990723" lon="7.25913572311401"><ele></ele><time>2013-8-5T23:59:50Z</time></trkpt>
<trkpt lat="46.2361221313477" lon="7.25915002822876"><ele></ele><time>2013-8-5T23:59:53Z</time></trkpt>
<trkpt lat="46.2361640930176" lon="7.25915670394898"><ele></ele><time>2013-8-5T23:59:56Z</time></trkpt>
<trkpt lat="46.2362060546875" lon="7.25914764404297"><ele></ele><time>2013-8-5T23:59:59Z</time></trkpt>
<trkpt lat="46.2362442016602" lon="7.25911903381348"><ele></ele><time>2013-8-6T0:0:2Z</time></trkpt>
<trkpt lat="46.236400604248" lon="7.25902509689331"><ele></ele><time>2013-8-6T0:0:5Z</time></trkpt>
<trkpt lat="46.2366065979004" lon="7.25906276702881"><ele></ele><time>2013-8-6T0:0:8Z</time></trkpt>
<trkpt lat="46.2366523742676" lon="7.2590742111206"><ele></ele><time>2013-8-6T0:0:11Z</time></trkpt>
<trkpt lat="46.2367286682129" lon="7.25909471511841"><ele></ele><time>2013-8-6T0:0:14Z</time></trkpt>
<trkpt lat="46.2368431091309" lon="7.25912284851074"><ele></ele><time>2013-8-6T0:0:17Z</time></trkpt>
<trkpt lat="46.2371063232422" lon="7.2591814994812"><ele></ele><time>2013-8-6T0:0:20Z</time></trkpt>
<trkpt lat="46.2372817993164" lon="7.25922632217407"><ele></ele><time>2013-8-6T0:0:23Z</time></trkpt>
<trkpt lat="46.2374801635742" lon="7.25927543640137"><ele></ele><time>2013-8-6T0:0:26Z</time></trkpt>
<trkpt lat="46.2375564575195" lon="7.25929546356201"><ele></ele><time>2013-8-6T0:0:29Z</time></trkpt>
<trkpt lat="46.2376823425293" lon="7.25927352905274"><ele></ele><time>2013-8-6T0:0:32Z</time></trkpt>
<trkpt lat="46.237720489502" lon="7.2592568397522"><ele></ele><time>2013-8-6T0:0:35Z</time></trkpt>
<trkpt lat="46.2378997802734" lon="7.25921583175659"><ele></ele><time>2013-8-6T0:0:38Z</time></trkpt>
<trkpt lat="46.2379989624023" lon="7.25920677185059"><ele></ele><time>2013-8-6T0:0:41Z</time></trkpt>
<trkpt lat="46.2380447387695" lon="7.25921583175659"><ele></ele><time>2013-8-6T0:0:44Z</time></trkpt>
<trkpt lat="46.2382392883301" lon="7.25929355621338"><ele></ele><time>2013-8-6T0:0:47Z</time></trkpt>
<trkpt lat="46.2382888793945" lon="7.25931930541992"><ele></ele><time>2013-8-6T0:0:50Z</time></trkpt>
<trkpt lat="46.2383422851562" lon="7.25934410095215"><ele></ele><time>2013-8-6T0:0:53Z</time></trkpt>
<trkpt lat="46.2383918762207" lon="7.25937128067017"><ele></ele><time>2013-8-6T0:0:56Z</time></trkpt>
<trkpt lat="46.2385940551758" lon="7.25945234298706"><ele></ele><time>2013-8-6T0:0:59Z</time></trkpt>
<trkpt lat="46.2389488220215" lon="7.25954866409302"><ele></ele><time>2013-8-6T0:1:2Z</time></trkpt>
<trkpt lat="46.239185333252" lon="7.25961256027222"><ele></ele><time>2013-8-6T0:1:5Z</time></trkpt>
<trkpt lat="46.2395286560059" lon="7.25966691970825"><ele></ele><time>2013-8-6T0:1:8Z</time></trkpt>
<trkpt lat="46.2398452758789" lon="7.25965929031372"><ele></ele><time>2013-8-6T0:1:11Z</time></trkpt>
<trkpt lat="46.2401161193848" lon="7.25956678390503"><ele></ele><time>2013-8-6T0:1:14Z</time></trkpt>
<trkpt lat="46.2401580810547" lon="7.25953912734985"><ele></ele><time>2013-8-6T0:1:17Z</time></trkpt>
<trkpt lat="46.240306854248" lon="7.2593936920166"><ele></ele><time>2013-8-6T0:1:20Z</time></trkpt>
<trkpt lat="46.2404136657715" lon="7.25933980941772"><ele></ele><time>2013-8-6T0:1:23Z</time></trkpt>
<trkpt lat="46.2404556274414" lon="7.25932502746582"><ele></ele><time>2013-8-6T0:1:26Z</time></trkpt>
<trkpt lat="46.2404861450195" lon="7.2593355178833"><ele></ele><time>2013-8-6T0:1:29Z</time></trkpt>
<trkpt lat="46.2405204772949" lon="7.2593502998352"><ele></ele><time>2013-8-6T0:1:32Z</time></trkpt>
<trkpt lat="46.2405548095703" lon="7.25935792922974"><ele></ele><time>2013-8-6T0:1:35Z</time></trkpt>
<trkpt lat="46.2406730651856" lon="7.25933980941772"><ele></ele><time>2013-8-6T0:1:38Z</time></trkpt>
<trkpt lat="46.2407035827637" lon="7.2593207359314"><ele></ele><time>2013-8-6T0:1:41Z</time></trkpt>
<trkpt lat="46.2407264709473" lon="7.25928926467896"><ele></ele><time>2013-8-6T0:1:44Z</time></trkpt>
<trkpt lat="46.2407531738281" lon="7.25926876068115"><ele></ele><time>2013-8-6T0:1:47Z</time></trkpt>
<trkpt lat="46.240779876709" lon="7.25922966003418"><ele></ele><time>2013-8-6T0:1:50Z</time></trkpt>
<trkpt lat="46.2408065795898" lon="7.25919675827026"><ele></ele><time>2013-8-6T0:1:53Z</time></trkpt>
<trkpt lat="46.240909576416" lon="7.25908279418945"><ele></ele><time>2013-8-6T0:1:56Z</time></trkpt>
<trkpt lat="46.2409400939941" lon="7.2590503692627"><ele></ele><time>2013-8-6T0:1:59Z</time></trkpt>
<trkpt lat="46.2409629821777" lon="7.25901651382446"><ele></ele><time>2013-8-6T0:2:2Z</time></trkpt>
<trkpt lat="46.2409896850586" lon="7.25898694992065"><ele></ele><time>2013-8-6T0:2:5Z</time></trkpt>
<trkpt lat="46.2410163879394" lon="7.25896310806274"><ele></ele><time>2013-8-6T0:2:8Z</time></trkpt>
<trkpt lat="46.2411346435547" lon="7.25888872146606"><ele></ele><time>2013-8-6T0:2:11Z</time></trkpt>
<trkpt lat="46.2411956787109" lon="7.25885725021362"><ele></ele><time>2013-8-6T0:2:14Z</time></trkpt>
<trkpt lat="46.2412261962891" lon="7.25884342193604"><ele></ele><time>2013-8-6T0:2:17Z</time></trkpt>
<trkpt lat="46.2412567138672" lon="7.25883722305298"><ele></ele><time>2013-8-6T0:2:20Z</time></trkpt>
<trkpt lat="46.241283416748" lon="7.25882482528686"><ele></ele><time>2013-8-6T0:2:23Z</time></trkpt>
<trkpt lat="46.2413635253906" lon="7.25883436203003"><ele></ele><time>2013-8-6T0:2:26Z</time></trkpt>
<trkpt lat="46.2414245605469" lon="7.25881099700928"><ele></ele><time>2013-8-6T0:2:29Z</time></trkpt>
<trkpt lat="46.2415008544922" lon="7.25876712799072"><ele></ele><time>2013-8-6T0:2:32Z</time></trkpt>
<trkpt lat="46.2416076660156" lon="7.25868463516235"><ele></ele><time>2013-8-6T0:2:35Z</time></trkpt>
<trkpt lat="46.2416648864746" lon="7.25860929489136"><ele></ele><time>2013-8-6T0:2:38Z</time></trkpt>
<trkpt lat="46.2417449951172" lon="7.25849533081055"><ele></ele><time>2013-8-6T0:2:41Z</time></trkpt>
<trkpt lat="46.2418365478516" lon="7.25833988189697"><ele></ele><time>2013-8-6T0:2:44Z</time></trkpt>
<trkpt lat="46.2418937683106" lon="7.25824689865112"><ele></ele><time>2013-8-6T0:2:47Z</time></trkpt>
<trkpt lat="46.2419624328613" lon="7.2581672668457"><ele></ele><time>2013-8-6T0:2:50Z</time></trkpt>
<trkpt lat="46.2420501708984" lon="7.25814151763916"><ele></ele><time>2013-8-6T0:2:53Z</time></trkpt>
<trkpt lat="46.242130279541" lon="7.25815677642822"><ele></ele><time>2013-8-6T0:2:56Z</time></trkpt>
<trkpt lat="46.2422027587891" lon="7.25815153121948"><ele></ele><time>2013-8-6T0:2:59Z</time></trkpt>
<trkpt lat="46.2422370910644" lon="7.25814580917358"><ele></ele><time>2013-8-6T0:3:2Z</time></trkpt>
<trkpt lat="46.2422714233398" lon="7.25814914703369"><ele></ele><time>2013-8-6T0:3:5Z</time></trkpt>
<trkpt lat="46.2422981262207" lon="7.25815486907959"><ele></ele><time>2013-8-6T0:3:8Z</time></trkpt>
<trkpt lat="46.2423286437988" lon="7.25815773010254"><ele></ele><time>2013-8-6T0:3:11Z</time></trkpt>
<trkpt lat="46.2423553466797" lon="7.25817108154297"><ele></ele><time>2013-8-6T0:3:14Z</time></trkpt>
<trkpt lat="46.2423820495606" lon="7.25818824768066"><ele></ele><time>2013-8-6T0:3:17Z</time></trkpt>
<trkpt lat="46.2424774169922" lon="7.25823259353638"><ele></ele><time>2013-8-6T0:3:20Z</time></trkpt>
<trkpt lat="46.2424964904785" lon="7.25823926925659"><ele></ele><time>2013-8-6T0:3:23Z</time></trkpt>
<trkpt lat="46.2425193786621" lon="7.25823974609375"><ele></ele><time>2013-8-6T0:3:26Z</time></trkpt>
<trkpt lat="46.2425422668457" lon="7.25825786590576"><ele></ele><time>2013-8-6T0:3:29Z</time></trkpt>
<trkpt lat="46.2425575256348" lon="7.25827121734619"><ele></ele><time>2013-8-6T0:3:32Z</time></trkpt>
<trkpt lat="46.2425765991211" lon="7.25826930999756"><ele></ele><time>2013-8-6T0:3:35Z</time></trkpt>
<trkpt lat="46.2426338195801" lon="7.25828218460083"><ele></ele><time>2013-8-6T0:3:38Z</time></trkpt>
<trkpt lat="46.2426528930664" lon="7.25828170776367"><ele></ele><time>2013-8-6T0:3:41Z</time></trkpt>
<trkpt lat="46.24267578125" lon="7.25827598571777"><ele></ele><time>2013-8-6T0:3:44Z</time></trkpt>
<trkpt lat="46.2426986694336" lon="7.25827360153198"><ele></ele><time>2013-8-6T0:3:47Z</time></trkpt>
<trkpt lat="46.242748260498" lon="7.2582859992981"><ele></ele><time>2013-8-6T0:3:50Z</time></trkpt>
<trkpt lat="46.2427635192871" lon="7.25828218460083"><ele></ele><time>2013-8-6T0:3:53Z</time></trkpt>
<trkpt lat="46.2427787780762" lon="7.2582859992981"><ele></ele><time>2013-8-6T0:3:56Z</time></trkpt>
<trkpt lat="46.2427978515625" lon="7.25827932357788"><ele></ele><time>2013-8-6T0:3:59Z</time></trkpt>
<trkpt lat="46.2428283691406" lon="7.25827074050903"><ele></ele><time>2013-8-6T0:4:2Z</time></trkpt>
<trkpt lat="46.2428703308106" lon="7.25827264785767"><ele></ele><time>2013-8-6T0:4:5Z</time></trkpt>
<trkpt lat="46.2430076599121" lon="7.25822925567627"><ele></ele><time>2013-8-6T0:4:8Z</time></trkpt>
<trkpt lat="46.2430305480957" lon="7.25822639465332"><ele></ele><time>2013-8-6T0:4:11Z</time></trkpt>
<trkpt lat="46.2430534362793" lon="7.25822353363037"><ele></ele><time>2013-8-6T0:4:14Z</time></trkpt>
<trkpt lat="46.2430763244629" lon="7.25822496414185"><ele></ele><time>2013-8-6T0:4:17Z</time></trkpt>
<trkpt lat="46.2431831359863" lon="7.25829029083252"><ele></ele><time>2013-8-6T0:4:20Z</time></trkpt>
<trkpt lat="46.2432136535644" lon="7.25831842422485"><ele></ele><time>2013-8-6T0:4:23Z</time></trkpt>
<trkpt lat="46.2432403564453" lon="7.2583475112915"><ele></ele><time>2013-8-6T0:4:26Z</time></trkpt>
<trkpt lat="46.2432670593262" lon="7.25837993621826"><ele></ele><time>2013-8-6T0:4:29Z</time></trkpt>
<trkpt lat="46.243293762207" lon="7.25841045379639"><ele></ele><time>2013-8-6T0:4:32Z</time></trkpt>
<trkpt lat="46.2433166503906" lon="7.25844097137451"><ele></ele><time>2013-8-6T0:4:35Z</time></trkpt>
<trkpt lat="46.2433891296387" lon="7.2585186958313"><ele></ele><time>2013-8-6T0:4:38Z</time></trkpt>
<trkpt lat="46.2434158325195" lon="7.25853824615478"><ele></ele><time>2013-8-6T0:4:41Z</time></trkpt>
<trkpt lat="46.2434387207031" lon="7.25855350494385"><ele></ele><time>2013-8-6T0:4:44Z</time></trkpt>
<trkpt lat="46.2434616088867" lon="7.25857067108154"><ele></ele><time>2013-8-6T0:4:47Z</time></trkpt>
<trkpt lat="46.243480682373" lon="7.25858974456787"><ele></ele><time>2013-8-6T0:4:50Z</time></trkpt>
<trkpt lat="46.243579864502" lon="7.25864171981812"><ele></ele><time>2013-8-6T0:4:53Z</time></trkpt>
<trkpt lat="46.2436027526856" lon="7.25864696502686"><ele></ele><time>2013-8-6T0:4:56Z</time></trkpt>
<trkpt lat="46.2436256408691" lon="7.25864696502686"><ele></ele><time>2013-8-6T0:4:59Z</time></trkpt>
<trkpt lat="46.2436447143555" lon="7.25863981246948"><ele></ele><time>2013-8-6T0:5:2Z</time></trkpt>
<trkpt lat="46.2436676025391" lon="7.25863170623779"><ele></ele><time>2013-8-6T0:5:5Z</time></trkpt>
<trkpt lat="46.2437133789062" lon="7.25860595703125"><ele></ele><time>2013-8-6T0:5:8Z</time></trkpt>
<trkpt lat="46.2437362670898" lon="7.25858211517334"><ele></ele><time>2013-8-6T0:5:11Z</time></trkpt>
<trkpt lat="46.2437744140625" lon="7.25853776931763"><ele></ele><time>2013-8-6T0:5:14Z</time></trkpt>
<trkpt lat="46.2437934875488" lon="7.25851678848267"><ele></ele><time>2013-8-6T0:5:17Z</time></trkpt>
<trkpt lat="46.2438049316406" lon="7.25849342346191"><ele></ele><time>2013-8-6T0:5:20Z</time></trkpt>
<trkpt lat="46.2438163757324" lon="7.25846815109253"><ele></ele><time>2013-8-6T0:5:23Z</time></trkpt>
<trkpt lat="46.2438316345215" lon="7.25844383239746"><ele></ele><time>2013-8-6T0:5:26Z</time></trkpt>
<trkpt lat="46.2439155578613" lon="7.25832509994507"><ele></ele><time>2013-8-6T0:5:29Z</time></trkpt>
<trkpt lat="46.2439918518066" lon="7.25804758071899"><ele></ele><time>2013-8-6T0:5:32Z</time></trkpt>
<trkpt lat="46.2440032958984" lon="7.25772476196289"><ele></ele><time>2013-8-6T0:5:35Z</time></trkpt>
<trkpt lat="46.2440032958984" lon="7.2576732635498"><ele></ele><time>2013-8-6T0:5:38Z</time></trkpt>
<trkpt lat="46.2440071105957" lon="7.2576174736023"><ele></ele><time>2013-8-6T0:5:41Z</time></trkpt>
<trkpt lat="46.2440071105957" lon="7.25756168365478"><ele></ele><time>2013-8-6T0:5:44Z</time></trkpt>
<trkpt lat="46.2440414428711" lon="7.25731897354126"><ele></ele><time>2013-8-6T0:5:47Z</time></trkpt>
<trkpt lat="46.244068145752" lon="7.25723075866699"><ele></ele><time>2013-8-6T0:5:50Z</time></trkpt>
<trkpt lat="46.2441482543945" lon="7.25709056854248"><ele></ele><time>2013-8-6T0:5:53Z</time></trkpt>
<trkpt lat="46.2441825866699" lon="7.25702524185181"><ele></ele><time>2013-8-6T0:5:56Z</time></trkpt>
<trkpt lat="46.2442779541016" lon="7.25686550140381"><ele></ele><time>2013-8-6T0:5:59Z</time></trkpt>
<trkpt lat="46.2442970275879" lon="7.2568302154541"><ele></ele><time>2013-8-6T0:6:2Z</time></trkpt>
<trkpt lat="46.2443199157715" lon="7.25679159164429"><ele></ele><time>2013-8-6T0:6:5Z</time></trkpt>
<trkpt lat="46.2443428039551" lon="7.25676012039185"><ele></ele><time>2013-8-6T0:6:8Z</time></trkpt>
<trkpt lat="46.2443618774414" lon="7.25672674179077"><ele></ele><time>2013-8-6T0:6:11Z</time></trkpt>
<trkpt lat="46.2444343566894" lon="7.25660562515259"><ele></ele><time>2013-8-6T0:6:14Z</time></trkpt>
<trkpt lat="46.2444534301758" lon="7.25658130645752"><ele></ele><time>2013-8-6T0:6:17Z</time></trkpt>
<trkpt lat="46.2444725036621" lon="7.25655794143677"><ele></ele><time>2013-8-6T0:6:20Z</time></trkpt>
<trkpt lat="46.244499206543" lon="7.2565279006958"><ele></ele><time>2013-8-6T0:6:23Z</time></trkpt>
<trkpt lat="46.2445220947266" lon="7.25649690628052"><ele></ele><time>2013-8-6T0:6:26Z</time></trkpt>
<trkpt lat="46.2445602416992" lon="7.25643110275268"><ele></ele><time>2013-8-6T0:6:29Z</time></trkpt>
<trkpt lat="46.2446060180664" lon="7.25634956359863"><ele></ele><time>2013-8-6T0:6:32Z</time></trkpt>
<trkpt lat="46.2446212768555" lon="7.25632953643799"><ele></ele><time>2013-8-6T0:6:35Z</time></trkpt>
<trkpt lat="46.2446365356445" lon="7.25630617141724"><ele></ele><time>2013-8-6T0:6:38Z</time></trkpt>
<trkpt lat="46.2446517944336" lon="7.25628232955933"><ele></ele><time>2013-8-6T0:6:41Z</time></trkpt>
<trkpt lat="46.2446708679199" lon="7.25624847412109"><ele></ele><time>2013-8-6T0:6:44Z</time></trkpt>
<trkpt lat="46.2447280883789" lon="7.25612211227417"><ele></ele><time>2013-8-6T0:6:47Z</time></trkpt>
<trkpt lat="46.2447357177734" lon="7.25603485107422"><ele></ele><time>2013-8-6T0:6:50Z</time></trkpt>
<trkpt lat="46.2447395324707" lon="7.25600433349609"><ele></ele><time>2013-8-6T0:6:53Z</time></trkpt>
<trkpt lat="46.2447471618652" lon="7.2559666633606"><ele></ele><time>2013-8-6T0:6:56Z</time></trkpt>
<trkpt lat="46.244758605957" lon="7.25592422485352"><ele></ele><time>2013-8-6T0:6:59Z</time></trkpt>
<trkpt lat="46.2447738647461" lon="7.25588178634644"><ele></ele><time>2013-8-6T0:7:2Z</time></trkpt>
<trkpt lat="46.2447814941406" lon="7.25585031509399"><ele></ele><time>2013-8-6T0:7:5Z</time></trkpt>
<trkpt lat="46.2448539733887" lon="7.25568389892578"><ele></ele><time>2013-8-6T0:7:8Z</time></trkpt>
<trkpt lat="46.2448692321777" lon="7.25564527511597"><ele></ele><time>2013-8-6T0:7:11Z</time></trkpt>
<trkpt lat="46.2448806762695" lon="7.25559759140015"><ele></ele><time>2013-8-6T0:7:14Z</time></trkpt>
<trkpt lat="46.2448959350586" lon="7.25555944442749"><ele></ele><time>2013-8-6T0:7:17Z</time></trkpt>
<trkpt lat="46.244930267334" lon="7.2554874420166"><ele></ele><time>2013-8-6T0:7:20Z</time></trkpt>
<trkpt lat="46.2450141906738" lon="7.2553391456604"><ele></ele><time>2013-8-6T0:7:23Z</time></trkpt>
<trkpt lat="46.2450485229492" lon="7.25528049468994"><ele></ele><time>2013-8-6T0:7:26Z</time></trkpt>
<trkpt lat="46.2450637817383" lon="7.25524997711182"><ele></ele><time>2013-8-6T0:7:29Z</time></trkpt>
<trkpt lat="46.2450752258301" lon="7.25522184371948"><ele></ele><time>2013-8-6T0:7:32Z</time></trkpt>
<trkpt lat="46.2450904846191" lon="7.2551965713501"><ele></ele><time>2013-8-6T0:7:35Z</time></trkpt>
<trkpt lat="46.2451553344727" lon="7.25511932373047"><ele></ele><time>2013-8-6T0:7:38Z</time></trkpt>
<trkpt lat="46.2452354431152" lon="7.25504684448242"><ele></ele><time>2013-8-6T0:7:41Z</time></trkpt>
<trkpt lat="46.2452545166016" lon="7.25502920150757"><ele></ele><time>2013-8-6T0:7:44Z</time></trkpt>
<trkpt lat="46.2452812194824" lon="7.25500726699829"><ele></ele><time>2013-8-6T0:7:47Z</time></trkpt>
<trkpt lat="46.2453117370606" lon="7.25498533248901"><ele></ele><time>2013-8-6T0:7:50Z</time></trkpt>
<trkpt lat="46.2453384399414" lon="7.25496244430542"><ele></ele><time>2013-8-6T0:7:53Z</time></trkpt>
<trkpt lat="46.2453689575195" lon="7.25494432449341"><ele></ele><time>2013-8-6T0:7:56Z</time></trkpt>
<trkpt lat="46.245491027832" lon="7.25489807128906"><ele></ele><time>2013-8-6T0:7:59Z</time></trkpt>
<trkpt lat="46.2455177307129" lon="7.25489044189453"><ele></ele><time>2013-8-6T0:8:2Z</time></trkpt>
<trkpt lat="46.2455406188965" lon="7.25488424301148"><ele></ele><time>2013-8-6T0:8:5Z</time></trkpt>
<trkpt lat="46.2455635070801" lon="7.25487804412842"><ele></ele><time>2013-8-6T0:8:8Z</time></trkpt>
<trkpt lat="46.2455825805664" lon="7.2548656463623"><ele></ele><time>2013-8-6T0:8:11Z</time></trkpt>
<trkpt lat="46.2456398010254" lon="7.25482654571533"><ele></ele><time>2013-8-6T0:8:14Z</time></trkpt>
<trkpt lat="46.2457885742188" lon="7.25480794906616"><ele></ele><time>2013-8-6T0:8:17Z</time></trkpt>
<trkpt lat="46.2459754943848" lon="7.25481986999512"><ele></ele><time>2013-8-6T0:8:20Z</time></trkpt>
<trkpt lat="46.2461280822754" lon="7.25488138198852"><ele></ele><time>2013-8-6T0:8:23Z</time></trkpt>
<trkpt lat="46.2462768554688" lon="7.25502729415894"><ele></ele><time>2013-8-6T0:8:26Z</time></trkpt>
<trkpt lat="46.2463684082031" lon="7.25518608093262"><ele></ele><time>2013-8-6T0:8:29Z</time></trkpt>
<trkpt lat="46.2464179992676" lon="7.25531530380249"><ele></ele><time>2013-8-6T0:8:32Z</time></trkpt>
<trkpt lat="46.246524810791" lon="7.25549459457398"><ele></ele><time>2013-8-6T0:8:35Z</time></trkpt>
<trkpt lat="46.2466773986816" lon="7.25558996200562"><ele></ele><time>2013-8-6T0:8:38Z</time></trkpt>
<trkpt lat="46.2467193603516" lon="7.25558662414551"><ele></ele><time>2013-8-6T0:8:41Z</time></trkpt>
<trkpt lat="46.2467613220215" lon="7.25556230545044"><ele></ele><time>2013-8-6T0:8:44Z</time></trkpt>
<trkpt lat="46.2467956542969" lon="7.25552749633789"><ele></ele><time>2013-8-6T0:8:47Z</time></trkpt>
<trkpt lat="46.2468185424805" lon="7.25547647476196"><ele></ele><time>2013-8-6T0:8:50Z</time></trkpt>
<trkpt lat="46.2468376159668" lon="7.25542497634888"><ele></ele><time>2013-8-6T0:8:53Z</time></trkpt>
<trkpt lat="46.2468605041504" lon="7.25524663925171"><ele></ele><time>2013-8-6T0:8:56Z</time></trkpt>
<trkpt lat="46.2468681335449" lon="7.25518703460693"><ele></ele><time>2013-8-6T0:8:59Z</time></trkpt>
<trkpt lat="46.2469291687012" lon="7.25496339797974"><ele></ele><time>2013-8-6T0:9:2Z</time></trkpt>
<trkpt lat="46.2469482421875" lon="7.25491142272949"><ele></ele><time>2013-8-6T0:9:5Z</time></trkpt>
<trkpt lat="46.2470283508301" lon="7.25477075576782"><ele></ele><time>2013-8-6T0:9:8Z</time></trkpt>
<trkpt lat="46.2471313476562" lon="7.25460815429688"><ele></ele><time>2013-8-6T0:9:11Z</time></trkpt>
<trkpt lat="46.2472915649414" lon="7.25432395935059"><ele></ele><time>2013-8-6T0:9:14Z</time></trkpt>
<trkpt lat="46.2473602294922" lon="7.2542142868042"><ele></ele><time>2013-8-6T0:9:17Z</time></trkpt>
<trkpt lat="46.2474327087402" lon="7.25412607192993"><ele></ele><time>2013-8-6T0:9:20Z</time></trkpt>
<trkpt lat="46.2475395202637" lon="7.25400161743164"><ele></ele><time>2013-8-6T0:9:23Z</time></trkpt>
<trkpt lat="46.2475814819336" lon="7.2539644241333"><ele></ele><time>2013-8-6T0:9:26Z</time></trkpt>
<trkpt lat="46.2477684020996" lon="7.25389957427978"><ele></ele><time>2013-8-6T0:9:29Z</time></trkpt>
<trkpt lat="46.2478523254394" lon="7.25390672683716"><ele></ele><time>2013-8-6T0:9:32Z</time></trkpt>
<trkpt lat="46.2478942871094" lon="7.25391817092896"><ele></ele><time>2013-8-6T0:9:35Z</time></trkpt>
<trkpt lat="46.247989654541" lon="7.25393772125244"><ele></ele><time>2013-8-6T0:9:38Z</time></trkpt>
<trkpt lat="46.248233795166" lon="7.25392866134644"><ele></ele><time>2013-8-6T0:9:41Z</time></trkpt>
<trkpt lat="46.2483177185059" lon="7.25378227233887"><ele></ele><time>2013-8-6T0:9:44Z</time></trkpt>
<trkpt lat="46.2483444213867" lon="7.25372648239136"><ele></ele><time>2013-8-6T0:9:47Z</time></trkpt>
<trkpt lat="46.2483673095703" lon="7.25367307662964"><ele></ele><time>2013-8-6T0:9:50Z</time></trkpt>
<trkpt lat="46.2483940124512" lon="7.25361442565918"><ele></ele><time>2013-8-6T0:9:53Z</time></trkpt>
<trkpt lat="46.2484245300293" lon="7.2535572052002"><ele></ele><time>2013-8-6T0:9:56Z</time></trkpt>
<trkpt lat="46.2484588623047" lon="7.25350427627564"><ele></ele><time>2013-8-6T0:9:59Z</time></trkpt>
<trkpt lat="46.2486190795898" lon="7.2533597946167"><ele></ele><time>2013-8-6T0:10:2Z</time></trkpt>
<trkpt lat="46.2486610412598" lon="7.25331687927246"><ele></ele><time>2013-8-6T0:10:5Z</time></trkpt>
<trkpt lat="46.2486953735352" lon="7.25327301025391"><ele></ele><time>2013-8-6T0:10:8Z</time></trkpt>
<trkpt lat="46.2487640380859" lon="7.25319290161133"><ele></ele><time>2013-8-6T0:10:11Z</time></trkpt>
<trkpt lat="46.2488555908203" lon="7.25305080413818"><ele></ele><time>2013-8-6T0:10:14Z</time></trkpt>
<trkpt lat="46.248908996582" lon="7.25294780731201"><ele></ele><time>2013-8-6T0:10:17Z</time></trkpt>
<trkpt lat="46.2489738464356" lon="7.2527928352356"><ele></ele><time>2013-8-6T0:10:20Z</time></trkpt>
<trkpt lat="46.2490196228027" lon="7.2526912689209"><ele></ele><time>2013-8-6T0:10:23Z</time></trkpt>
<trkpt lat="46.2490425109863" lon="7.25263118743896"><ele></ele><time>2013-8-6T0:10:26Z</time></trkpt>
<trkpt lat="46.2490921020508" lon="7.25239706039429"><ele></ele><time>2013-8-6T0:10:29Z</time></trkpt>
<trkpt lat="46.2491226196289" lon="7.25220727920532"><ele></ele><time>2013-8-6T0:10:32Z</time></trkpt>
<trkpt lat="46.2491226196289" lon="7.25207233428955"><ele></ele><time>2013-8-6T0:10:35Z</time></trkpt>
<trkpt lat="46.2491035461426" lon="7.2519326210022"><ele></ele><time>2013-8-6T0:10:38Z</time></trkpt>
<trkpt lat="46.2490882873535" lon="7.25186109542847"><ele></ele><time>2013-8-6T0:10:41Z</time></trkpt>
<trkpt lat="46.2490501403809" lon="7.25173377990723"><ele></ele><time>2013-8-6T0:10:44Z</time></trkpt>
<trkpt lat="46.2489395141602" lon="7.25148010253906"><ele></ele><time>2013-8-6T0:10:47Z</time></trkpt>
<trkpt lat="46.2489204406738" lon="7.25141525268555"><ele></ele><time>2013-8-6T0:10:50Z</time></trkpt>
<trkpt lat="46.2489624023438" lon="7.25124263763428"><ele></ele><time>2013-8-6T0:10:53Z</time></trkpt>
<trkpt lat="46.2490386962891" lon="7.25116348266602"><ele></ele><time>2013-8-6T0:10:56Z</time></trkpt>
<trkpt lat="46.2492027282715" lon="7.25100421905518"><ele></ele><time>2013-8-6T0:10:59Z</time></trkpt>
<trkpt lat="46.2492408752441" lon="7.25097036361694"><ele></ele><time>2013-8-6T0:11:2Z</time></trkpt>
<trkpt lat="46.2493515014648" lon="7.25086975097656"><ele></ele><time>2013-8-6T0:11:5Z</time></trkpt>
<trkpt lat="46.2493934631348" lon="7.25082063674927"><ele></ele><time>2013-8-6T0:11:8Z</time></trkpt>
<trkpt lat="46.2494812011719" lon="7.25072383880615"><ele></ele><time>2013-8-6T0:11:11Z</time></trkpt>
<trkpt lat="46.249626159668" lon="7.25062561035156"><ele></ele><time>2013-8-6T0:11:14Z</time></trkpt>
<trkpt lat="46.2506980895996" lon="7.24991750717163"><ele></ele><time>2013-8-6T0:11:17Z</time></trkpt>
<trkpt lat="46.2508087158203" lon="7.24987888336182"><ele></ele><time>2013-8-6T0:11:20Z</time></trkpt>
<trkpt lat="46.2543449401856" lon="7.24765014648438"><ele></ele><time>2013-8-6T0:11:23Z</time></trkpt>
<trkpt lat="46.2544708251953" lon="7.2476658821106"><ele></ele><time>2013-8-6T0:11:26Z</time></trkpt>
<trkpt lat="46.2545204162598" lon="7.24766778945923"><ele></ele><time>2013-8-6T0:11:29Z</time></trkpt>
<trkpt lat="46.2546157836914" lon="7.24762535095215"><ele></ele><time>2013-8-6T0:11:32Z</time></trkpt>
<trkpt lat="46.2546615600586" lon="7.24758958816528"><ele></ele><time>2013-8-6T0:11:35Z</time></trkpt>
<trkpt lat="46.254711151123" lon="7.24755430221558"><ele></ele><time>2013-8-6T0:11:38Z</time></trkpt>
<trkpt lat="46.2547607421875" lon="7.24753856658936"><ele></ele><time>2013-8-6T0:11:41Z</time></trkpt>
<trkpt lat="46.2548179626465" lon="7.24753618240356"><ele></ele><time>2013-8-6T0:11:44Z</time></trkpt>
<trkpt lat="46.2550163269043" lon="7.24762773513794"><ele></ele><time>2013-8-6T0:11:47Z</time></trkpt>
<trkpt lat="46.2550582885742" lon="7.24765348434448"><ele></ele><time>2013-8-6T0:11:50Z</time></trkpt>
<trkpt lat="46.2551498413086" lon="7.24764823913574"><ele></ele><time>2013-8-6T0:11:53Z</time></trkpt>
<trkpt lat="46.2552795410156" lon="7.24756479263306"><ele></ele><time>2013-8-6T0:11:56Z</time></trkpt>
<trkpt lat="46.2553291320801" lon="7.24752950668335"><ele></ele><time>2013-8-6T0:11:59Z</time></trkpt>
<trkpt lat="46.2553634643555" lon="7.24748420715332"><ele></ele><time>2013-8-6T0:12:2Z</time></trkpt>
<trkpt lat="46.2555084228516" lon="7.2472972869873"><ele></ele><time>2013-8-6T0:12:5Z</time></trkpt>
<trkpt lat="46.255615234375" lon="7.24717092514038"><ele></ele><time>2013-8-6T0:12:8Z</time></trkpt>
<trkpt lat="46.2557106018066" lon="7.24713516235352"><ele></ele><time>2013-8-6T0:12:11Z</time></trkpt>
<trkpt lat="46.2559242248535" lon="7.24721479415894"><ele></ele><time>2013-8-6T0:12:14Z</time></trkpt>
<trkpt lat="46.2559700012207" lon="7.24723768234253"><ele></ele><time>2013-8-6T0:12:17Z</time></trkpt>
<trkpt lat="46.2560577392578" lon="7.2472243309021"><ele></ele><time>2013-8-6T0:12:20Z</time></trkpt>
<trkpt lat="46.256233215332" lon="7.24709367752075"><ele></ele><time>2013-8-6T0:12:23Z</time></trkpt>
<trkpt lat="46.2562789916992" lon="7.24706172943115"><ele></ele><time>2013-8-6T0:12:26Z</time></trkpt>
<trkpt lat="46.256420135498" lon="7.24696016311646"><ele></ele><time>2013-8-6T0:12:29Z</time></trkpt>
<trkpt lat="46.2566070556641" lon="7.24688959121704"><ele></ele><time>2013-8-6T0:12:32Z</time></trkpt>
<trkpt lat="46.256763458252" lon="7.24693727493286"><ele></ele><time>2013-8-6T0:12:35Z</time></trkpt>
<trkpt lat="46.2568130493164" lon="7.24695539474487"><ele></ele><time>2013-8-6T0:12:38Z</time></trkpt>
<trkpt lat="46.2570610046387" lon="7.2470531463623"><ele></ele><time>2013-8-6T0:12:41Z</time></trkpt>
<trkpt lat="46.2571487426758" lon="7.24703311920166"><ele></ele><time>2013-8-6T0:12:44Z</time></trkpt>
<trkpt lat="46.2572326660156" lon="7.24698781967163"><ele></ele><time>2013-8-6T0:12:47Z</time></trkpt>
<trkpt lat="46.2573547363281" lon="7.24688959121704"><ele></ele><time>2013-8-6T0:12:50Z</time></trkpt>
<trkpt lat="46.257396697998" lon="7.24684524536133"><ele></ele><time>2013-8-6T0:12:53Z</time></trkpt>
<trkpt lat="46.2575531005859" lon="7.24661779403686"><ele></ele><time>2013-8-6T0:12:56Z</time></trkpt>
<trkpt lat="46.2577133178711" lon="7.24642324447632"><ele></ele><time>2013-8-6T0:12:59Z</time></trkpt>
<trkpt lat="46.2577972412109" lon="7.24632453918457"><ele></ele><time>2013-8-6T0:13:2Z</time></trkpt>
<trkpt lat="46.2579727172852" lon="7.24624490737915"><ele></ele><time>2013-8-6T0:13:5Z</time></trkpt>
<trkpt lat="46.2580223083496" lon="7.24624300003052"><ele></ele><time>2013-8-6T0:13:8Z</time></trkpt>
<trkpt lat="46.2580680847168" lon="7.24622774124146"><ele></ele><time>2013-8-6T0:13:11Z</time></trkpt>
<trkpt lat="46.2581367492676" lon="7.24619150161743"><ele></ele><time>2013-8-6T0:13:14Z</time></trkpt>
<trkpt lat="46.2582321166992" lon="7.24607229232788"><ele></ele><time>2013-8-6T0:13:17Z</time></trkpt>
<trkpt lat="46.2582778930664" lon="7.24601125717163"><ele></ele><time>2013-8-6T0:13:20Z</time></trkpt>
<trkpt lat="46.25830078125" lon="7.2459716796875"><ele></ele><time>2013-8-6T0:13:23Z</time></trkpt>
<trkpt lat="46.2583160400391" lon="7.24593830108643"><ele></ele><time>2013-8-6T0:13:26Z</time></trkpt>
<trkpt lat="46.2584075927734" lon="7.24574756622314"><ele></ele><time>2013-8-6T0:13:29Z</time></trkpt>
<trkpt lat="46.2584037780762" lon="7.24566411972046"><ele></ele><time>2013-8-6T0:13:32Z</time></trkpt>
<trkpt lat="46.2583885192871" lon="7.24559593200684"><ele></ele><time>2013-8-6T0:13:35Z</time></trkpt>
<trkpt lat="46.2583770751953" lon="7.24552917480469"><ele></ele><time>2013-8-6T0:13:38Z</time></trkpt>
<trkpt lat="46.2583503723144" lon="7.24546957015991"><ele></ele><time>2013-8-6T0:13:41Z</time></trkpt>
<trkpt lat="46.2583274841309" lon="7.24541282653809"><ele></ele><time>2013-8-6T0:13:44Z</time></trkpt>
<trkpt lat="46.2582473754883" lon="7.24499416351318"><ele></ele><time>2013-8-6T0:13:47Z</time></trkpt>
<trkpt lat="46.2583198547363" lon="7.24480056762695"><ele></ele><time>2013-8-6T0:13:50Z</time></trkpt>
<trkpt lat="46.2583847045898" lon="7.24469089508057"><ele></ele><time>2013-8-6T0:13:53Z</time></trkpt>
<trkpt lat="46.2584228515625" lon="7.24464225769043"><ele></ele><time>2013-8-6T0:13:56Z</time></trkpt>
<trkpt lat="46.2585105895996" lon="7.24455738067627"><ele></ele><time>2013-8-6T0:13:59Z</time></trkpt>
<trkpt lat="46.2586364746094" lon="7.24445819854736"><ele></ele><time>2013-8-6T0:14:2Z</time></trkpt>
<trkpt lat="46.2587203979492" lon="7.24440336227417"><ele></ele><time>2013-8-6T0:14:5Z</time></trkpt>
<trkpt lat="46.2599983215332" lon="7.24435567855835"><ele></ele><time>2013-8-6T0:14:8Z</time></trkpt>
<trkpt lat="46.2600479125977" lon="7.24440908432007"><ele></ele><time>2013-8-6T0:14:11Z</time></trkpt>
<trkpt lat="46.2601776123047" lon="7.24453830718994"><ele></ele><time>2013-8-6T0:14:14Z</time></trkpt>
<trkpt lat="46.2602233886719" lon="7.24454975128174"><ele></ele><time>2013-8-6T0:14:17Z</time></trkpt>
<trkpt lat="46.260425567627" lon="7.24444484710693"><ele></ele><time>2013-8-6T0:14:20Z</time></trkpt>
<trkpt lat="46.2605285644531" lon="7.24437713623047"><ele></ele><time>2013-8-6T0:14:23Z</time></trkpt>
<trkpt lat="46.2606620788574" lon="7.24431085586548"><ele></ele><time>2013-8-6T0:14:26Z</time></trkpt>
<trkpt lat="46.2609062194824" lon="7.24430274963379"><ele></ele><time>2013-8-6T0:14:29Z</time></trkpt>
<trkpt lat="46.2610321044922" lon="7.24434280395508"><ele></ele><time>2013-8-6T0:14:32Z</time></trkpt>
<trkpt lat="46.2610893249512" lon="7.24437808990478"><ele></ele><time>2013-8-6T0:14:35Z</time></trkpt>
<trkpt lat="46.2611389160156" lon="7.2444224357605"><ele></ele><time>2013-8-6T0:14:38Z</time></trkpt>
<trkpt lat="46.2611885070801" lon="7.24447345733643"><ele></ele><time>2013-8-6T0:14:41Z</time></trkpt>
<trkpt lat="46.2612380981445" lon="7.24452781677246"><ele></ele><time>2013-8-6T0:14:44Z</time></trkpt>
<trkpt lat="46.2615089416504" lon="7.2448468208313"><ele></ele><time>2013-8-6T0:14:47Z</time></trkpt>
<trkpt lat="46.2617645263672" lon="7.24517393112183"><ele></ele><time>2013-8-6T0:14:50Z</time></trkpt>
<trkpt lat="46.2619667053223" lon="7.24528789520264"><ele></ele><time>2013-8-6T0:14:53Z</time></trkpt>
<trkpt lat="46.2620162963867" lon="7.24530982971191"><ele></ele><time>2013-8-6T0:14:56Z</time></trkpt>
<trkpt lat="46.2621536254883" lon="7.24542331695557"><ele></ele><time>2013-8-6T0:14:59Z</time></trkpt>
<trkpt lat="46.2621994018555" lon="7.24545240402222"><ele></ele><time>2013-8-6T0:15:2Z</time></trkpt>
<trkpt lat="46.2622566223144" lon="7.24546241760254"><ele></ele><time>2013-8-6T0:15:5Z</time></trkpt>
<trkpt lat="46.2623138427734" lon="7.24547004699707"><ele></ele><time>2013-8-6T0:15:8Z</time></trkpt>
<trkpt lat="46.2624282836914" lon="7.2454776763916"><ele></ele><time>2013-8-6T0:15:11Z</time></trkpt>
<trkpt lat="46.2625427246094" lon="7.24547147750854"><ele></ele><time>2013-8-6T0:15:14Z</time></trkpt>
<trkpt lat="46.2628135681152" lon="7.24546909332275"><ele></ele><time>2013-8-6T0:15:17Z</time></trkpt>
<trkpt lat="46.262866973877" lon="7.24547719955444"><ele></ele><time>2013-8-6T0:15:20Z</time></trkpt>
<trkpt lat="46.2630767822266" lon="7.24553108215332"><ele></ele><time>2013-8-6T0:15:23Z</time></trkpt>
<trkpt lat="46.2631721496582" lon="7.24555921554565"><ele></ele><time>2013-8-6T0:15:26Z</time></trkpt>
<trkpt lat="46.2634162902832" lon="7.24560356140137"><ele></ele><time>2013-8-6T0:15:29Z</time></trkpt>
<trkpt lat="46.2635612487793" lon="7.24559688568115"><ele></ele><time>2013-8-6T0:15:32Z</time></trkpt>
<trkpt lat="46.2636108398438" lon="7.24558782577515"><ele></ele><time>2013-8-6T0:15:35Z</time></trkpt>
<trkpt lat="46.2636604309082" lon="7.24557065963745"><ele></ele><time>2013-8-6T0:15:38Z</time></trkpt>
<trkpt lat="46.2637100219727" lon="7.24554920196533"><ele></ele><time>2013-8-6T0:15:41Z</time></trkpt>
<trkpt lat="46.2637596130371" lon="7.24552392959595"><ele></ele><time>2013-8-6T0:15:44Z</time></trkpt>
<trkpt lat="46.2638053894043" lon="7.24549674987793"><ele></ele><time>2013-8-6T0:15:47Z</time></trkpt>
<trkpt lat="46.2638511657715" lon="7.2454719543457"><ele></ele><time>2013-8-6T0:15:50Z</time></trkpt>
<trkpt lat="46.2641944885254" lon="7.2453293800354"><ele></ele><time>2013-8-6T0:15:53Z</time></trkpt>
<trkpt lat="46.2642478942871" lon="7.24532413482666"><ele></ele><time>2013-8-6T0:15:56Z</time></trkpt>
<trkpt lat="46.264347076416" lon="7.24532318115234"><ele></ele><time>2013-8-6T0:15:59Z</time></trkpt>
<trkpt lat="46.2644538879394" lon="7.24534320831299"><ele></ele><time>2013-8-6T0:16:2Z</time></trkpt>
<trkpt lat="46.2645568847656" lon="7.24536323547363"><ele></ele><time>2013-8-6T0:16:5Z</time></trkpt>
<trkpt lat="46.2646675109863" lon="7.24537372589111"><ele></ele><time>2013-8-6T0:16:8Z</time></trkpt>
<trkpt lat="46.2649230957031" lon="7.24535369873047"><ele></ele><time>2013-8-6T0:16:11Z</time></trkpt>
<trkpt lat="46.2649688720703" lon="7.24534893035889"><ele></ele><time>2013-8-6T0:16:14Z</time></trkpt>
<trkpt lat="46.2650184631348" lon="7.24535608291626"><ele></ele><time>2013-8-6T0:16:17Z</time></trkpt>
<trkpt lat="46.2651634216309" lon="7.24544382095337"><ele></ele><time>2013-8-6T0:16:20Z</time></trkpt>
<trkpt lat="46.2652816772461" lon="7.24558591842651"><ele></ele><time>2013-8-6T0:16:23Z</time></trkpt>
<trkpt lat="46.2653198242188" lon="7.24563694000244"><ele></ele><time>2013-8-6T0:16:26Z</time></trkpt>
<trkpt lat="46.2654647827148" lon="7.24582052230835"><ele></ele><time>2013-8-6T0:16:29Z</time></trkpt>
<trkpt lat="46.265510559082" lon="7.24584484100342"><ele></ele><time>2013-8-6T0:16:32Z</time></trkpt>
<trkpt lat="46.2657012939453" lon="7.24582529067993"><ele></ele><time>2013-8-6T0:16:35Z</time></trkpt>
<trkpt lat="46.2657890319824" lon="7.24573993682861"><ele></ele><time>2013-8-6T0:16:38Z</time></trkpt>
<trkpt lat="46.2659034729004" lon="7.24559783935547"><ele></ele><time>2013-8-6T0:16:41Z</time></trkpt>
<trkpt lat="46.2659759521484" lon="7.24549913406372"><ele></ele><time>2013-8-6T0:16:44Z</time></trkpt>
<trkpt lat="46.2661361694336" lon="7.24539184570312"><ele></ele><time>2013-8-6T0:16:47Z</time></trkpt>
<trkpt lat="46.2661895751953" lon="7.24536895751953"><ele></ele><time>2013-8-6T0:16:50Z</time></trkpt>
<trkpt lat="46.2663955688477" lon="7.24526357650757"><ele></ele><time>2013-8-6T0:16:53Z</time></trkpt>
<trkpt lat="46.2664451599121" lon="7.24524402618408"><ele></ele><time>2013-8-6T0:16:56Z</time></trkpt>
<trkpt lat="46.2665481567383" lon="7.24520492553711"><ele></ele><time>2013-8-6T0:16:59Z</time></trkpt>
<trkpt lat="46.2666473388672" lon="7.2451663017273"><ele></ele><time>2013-8-6T0:17:2Z</time></trkpt>
<trkpt lat="46.2667961120606" lon="7.24510860443115"><ele></ele><time>2013-8-6T0:17:5Z</time></trkpt>
<trkpt lat="46.2668304443359" lon="7.24509429931641"><ele></ele><time>2013-8-6T0:17:8Z</time></trkpt>
<trkpt lat="46.2670478820801" lon="7.24504041671753"><ele></ele><time>2013-8-6T0:17:11Z</time></trkpt>
<trkpt lat="46.2670974731445" lon="7.24501943588257"><ele></ele><time>2013-8-6T0:17:14Z</time></trkpt>
<trkpt lat="46.2672348022461" lon="7.24490213394165"><ele></ele><time>2013-8-6T0:17:17Z</time></trkpt>
<trkpt lat="46.2673492431641" lon="7.24473428726196"><ele></ele><time>2013-8-6T0:17:20Z</time></trkpt>
<trkpt lat="46.2673835754394" lon="7.24468564987183"><ele></ele><time>2013-8-6T0:17:23Z</time></trkpt>
<trkpt lat="46.267505645752" lon="7.24446296691894"><ele></ele><time>2013-8-6T0:17:26Z</time></trkpt>
<trkpt lat="46.2675552368164" lon="7.24423217773438"><ele></ele><time>2013-8-6T0:17:29Z</time></trkpt>
<trkpt lat="46.2675743103027" lon="7.24415826797485"><ele></ele><time>2013-8-6T0:17:32Z</time></trkpt>
<trkpt lat="46.2676124572754" lon="7.24409675598144"><ele></ele><time>2013-8-6T0:17:35Z</time></trkpt>
<trkpt lat="46.2676582336426" lon="7.24406623840332"><ele></ele><time>2013-8-6T0:17:38Z</time></trkpt>
<trkpt lat="46.267707824707" lon="7.244056224823"><ele></ele><time>2013-8-6T0:17:41Z</time></trkpt>
<trkpt lat="46.2678985595703" lon="7.24412393569946"><ele></ele><time>2013-8-6T0:17:44Z</time></trkpt>
<trkpt lat="46.2679443359375" lon="7.24415588378906"><ele></ele><time>2013-8-6T0:17:47Z</time></trkpt>
<trkpt lat="46.2679901123047" lon="7.2441782951355"><ele></ele><time>2013-8-6T0:17:50Z</time></trkpt>
<trkpt lat="46.2681427001953" lon="7.24421739578247"><ele></ele><time>2013-8-6T0:17:53Z</time></trkpt>
<trkpt lat="46.2681922912598" lon="7.2442193031311"><ele></ele><time>2013-8-6T0:17:56Z</time></trkpt>
<trkpt lat="46.2683334350586" lon="7.24416494369507"><ele></ele><time>2013-8-6T0:17:59Z</time></trkpt>
<trkpt lat="46.2683792114258" lon="7.2441349029541"><ele></ele><time>2013-8-6T0:18:2Z</time></trkpt>
<trkpt lat="46.2684173583984" lon="7.24409627914429"><ele></ele><time>2013-8-6T0:18:5Z</time></trkpt>
<trkpt lat="46.2684516906738" lon="7.2440505027771"><ele></ele><time>2013-8-6T0:18:8Z</time></trkpt>
<trkpt lat="46.2684898376465" lon="7.24400663375854"><ele></ele><time>2013-8-6T0:18:11Z</time></trkpt>
<trkpt lat="46.2685241699219" lon="7.2439603805542"><ele></ele><time>2013-8-6T0:18:14Z</time></trkpt>
<trkpt lat="46.2685508728027" lon="7.24391937255859"><ele></ele><time>2013-8-6T0:18:17Z</time></trkpt>
<trkpt lat="46.2685813903809" lon="7.24387550354004"><ele></ele><time>2013-8-6T0:18:20Z</time></trkpt>
<trkpt lat="46.2686767578125" lon="7.24374151229858"><ele></ele><time>2013-8-6T0:18:23Z</time></trkpt>
<trkpt lat="46.268741607666" lon="7.24365520477295"><ele></ele><time>2013-8-6T0:18:26Z</time></trkpt>
<trkpt lat="46.2688674926758" lon="7.24346208572388"><ele></ele><time>2013-8-6T0:18:29Z</time></trkpt>
<trkpt lat="46.2689590454102" lon="7.24331378936768"><ele></ele><time>2013-8-6T0:18:32Z</time></trkpt>
<trkpt lat="46.2690162658691" lon="7.24320983886719"><ele></ele><time>2013-8-6T0:18:35Z</time></trkpt>
<trkpt lat="46.2690773010254" lon="7.24310779571533"><ele></ele><time>2013-8-6T0:18:38Z</time></trkpt>
<trkpt lat="46.2691040039062" lon="7.24305725097656"><ele></ele><time>2013-8-6T0:18:41Z</time></trkpt>
<trkpt lat="46.2691268920898" lon="7.24300909042358"><ele></ele><time>2013-8-6T0:18:44Z</time></trkpt>
<trkpt lat="46.2691497802734" lon="7.24296236038208"><ele></ele><time>2013-8-6T0:18:47Z</time></trkpt>
<trkpt lat="46.269172668457" lon="7.24291658401489"><ele></ele><time>2013-8-6T0:18:50Z</time></trkpt>
<trkpt lat="46.2692604064941" lon="7.24280595779419"><ele></ele><time>2013-8-6T0:18:53Z</time></trkpt>
<trkpt lat="46.2693481445312" lon="7.24269199371338"><ele></ele><time>2013-8-6T0:18:56Z</time></trkpt>
<trkpt lat="46.2693824768066" lon="7.24267387390137"><ele></ele><time>2013-8-6T0:18:59Z</time></trkpt>
<trkpt lat="46.2694206237793" lon="7.24265432357788"><ele></ele><time>2013-8-6T0:19:2Z</time></trkpt>
<trkpt lat="46.269458770752" lon="7.24263620376587"><ele></ele><time>2013-8-6T0:19:5Z</time></trkpt>
<trkpt lat="46.269645690918" lon="7.2425103187561"><ele></ele><time>2013-8-6T0:19:8Z</time></trkpt>
<trkpt lat="46.2698631286621" lon="7.24232721328735"><ele></ele><time>2013-8-6T0:19:11Z</time></trkpt>
<trkpt lat="46.2699508666992" lon="7.24207401275635"><ele></ele><time>2013-8-6T0:19:14Z</time></trkpt>
<trkpt lat="46.2699546813965" lon="7.24201726913452"><ele></ele><time>2013-8-6T0:19:17Z</time></trkpt>
<trkpt lat="46.2699775695801" lon="7.24190759658814"><ele></ele><time>2013-8-6T0:19:20Z</time></trkpt>
<trkpt lat="46.2699966430664" lon="7.24185657501221"><ele></ele><time>2013-8-6T0:19:23Z</time></trkpt>
<trkpt lat="46.2700157165527" lon="7.24180793762207"><ele></ele><time>2013-8-6T0:19:26Z</time></trkpt>
<trkpt lat="46.2700347900391" lon="7.24176454544067"><ele></ele><time>2013-8-6T0:19:29Z</time></trkpt>
<trkpt lat="46.2700653076172" lon="7.24172210693359"><ele></ele><time>2013-8-6T0:19:32Z</time></trkpt>
<trkpt lat="46.2701301574707" lon="7.24162292480469"><ele></ele><time>2013-8-6T0:19:35Z</time></trkpt>
<trkpt lat="46.2701835632324" lon="7.24152755737305"><ele></ele><time>2013-8-6T0:19:38Z</time></trkpt>
<trkpt lat="46.2702522277832" lon="7.24139642715454"><ele></ele><time>2013-8-6T0:19:41Z</time></trkpt>
<trkpt lat="46.2702827453613" lon="7.2413592338562"><ele></ele><time>2013-8-6T0:19:44Z</time></trkpt>
<trkpt lat="46.270320892334" lon="7.24132299423218"><ele></ele><time>2013-8-6T0:19:47Z</time></trkpt>
<trkpt lat="46.2703552246094" lon="7.24128103256226"><ele></ele><time>2013-8-6T0:19:50Z</time></trkpt>
<trkpt lat="46.2703895568848" lon="7.24123811721802"><ele></ele><time>2013-8-6T0:19:53Z</time></trkpt>
<trkpt lat="46.2704277038574" lon="7.24120140075684"><ele></ele><time>2013-8-6T0:19:56Z</time></trkpt>
<trkpt lat="46.2705345153809" lon="7.24107789993286"><ele></ele><time>2013-8-6T0:19:59Z</time></trkpt>
<trkpt lat="46.2705726623535" lon="7.24103784561157"><ele></ele><time>2013-8-6T0:20:2Z</time></trkpt>
<trkpt lat="46.2706108093262" lon="7.2410044670105"><ele></ele><time>2013-8-6T0:20:5Z</time></trkpt>
<trkpt lat="46.2706909179688" lon="7.24093818664551"><ele></ele><time>2013-8-6T0:20:8Z</time></trkpt>
<trkpt lat="46.2707786560059" lon="7.24087333679199"><ele></ele><time>2013-8-6T0:20:11Z</time></trkpt>
<trkpt lat="46.270866394043" lon="7.24081134796143"><ele></ele><time>2013-8-6T0:20:14Z</time></trkpt>
<trkpt lat="46.2709541320801" lon="7.24075222015381"><ele></ele><time>2013-8-6T0:20:17Z</time></trkpt>
<trkpt lat="46.2710304260254" lon="7.2406816482544"><ele></ele><time>2013-8-6T0:20:20Z</time></trkpt>
<trkpt lat="46.2710647583008" lon="7.24064016342163"><ele></ele><time>2013-8-6T0:20:23Z</time></trkpt>
<trkpt lat="46.2711296081543" lon="7.24047660827637"><ele></ele><time>2013-8-6T0:20:26Z</time></trkpt>
<trkpt lat="46.2711410522461" lon="7.2403564453125"><ele></ele><time>2013-8-6T0:20:29Z</time></trkpt>
<trkpt lat="46.2711410522461" lon="7.24030828475952"><ele></ele><time>2013-8-6T0:20:32Z</time></trkpt>
<trkpt lat="46.2711334228516" lon="7.24026155471802"><ele></ele><time>2013-8-6T0:20:35Z</time></trkpt>
<trkpt lat="46.2711296081543" lon="7.24021863937378"><ele></ele><time>2013-8-6T0:20:38Z</time></trkpt>
<trkpt lat="46.271125793457" lon="7.24018001556396"><ele></ele><time>2013-8-6T0:20:41Z</time></trkpt>
<trkpt lat="46.2710990905762" lon="7.24007081985474"><ele></ele><time>2013-8-6T0:20:44Z</time></trkpt>
<trkpt lat="46.2710914611816" lon="7.24003505706787"><ele></ele><time>2013-8-6T0:20:47Z</time></trkpt>
<trkpt lat="46.2710838317871" lon="7.24000072479248"><ele></ele><time>2013-8-6T0:20:50Z</time></trkpt>
<trkpt lat="46.2710800170898" lon="7.23996019363403"><ele></ele><time>2013-8-6T0:20:53Z</time></trkpt>
<trkpt lat="46.2710800170898" lon="7.23991584777832"><ele></ele><time>2013-8-6T0:20:56Z</time></trkpt>
<trkpt lat="46.2710723876953" lon="7.23984146118164"><ele></ele><time>2013-8-6T0:20:59Z</time></trkpt>
<trkpt lat="46.2710418701172" lon="7.23971891403198"><ele></ele><time>2013-8-6T0:21:2Z</time></trkpt>
<trkpt lat="46.2710342407227" lon="7.23968648910522"><ele></ele><time>2013-8-6T0:21:5Z</time></trkpt>
<trkpt lat="46.2710304260254" lon="7.23964738845825"><ele></ele><time>2013-8-6T0:21:8Z</time></trkpt>
<trkpt lat="46.2710266113281" lon="7.23960399627686"><ele></ele><time>2013-8-6T0:21:11Z</time></trkpt>
<trkpt lat="46.2710304260254" lon="7.2394847869873"><ele></ele><time>2013-8-6T0:21:14Z</time></trkpt>
<trkpt lat="46.2710304260254" lon="7.239417552948"><ele></ele><time>2013-8-6T0:21:17Z</time></trkpt>
<trkpt lat="46.2710342407227" lon="7.23932266235352"><ele></ele><time>2013-8-6T0:21:20Z</time></trkpt>
<trkpt lat="46.2710418701172" lon="7.23927688598633"><ele></ele><time>2013-8-6T0:21:23Z</time></trkpt>
<trkpt lat="46.2710456848144" lon="7.23923873901367"><ele></ele><time>2013-8-6T0:21:26Z</time></trkpt>
<trkpt lat="46.2710494995117" lon="7.23919630050659"><ele></ele><time>2013-8-6T0:21:29Z</time></trkpt>
<trkpt lat="46.2710609436035" lon="7.23916387557983"><ele></ele><time>2013-8-6T0:21:32Z</time></trkpt>
<trkpt lat="46.2711067199707" lon="7.23907947540283"><ele></ele><time>2013-8-6T0:21:35Z</time></trkpt>
<trkpt lat="46.271125793457" lon="7.23905181884766"><ele></ele><time>2013-8-6T0:21:38Z</time></trkpt>
<trkpt lat="46.2711410522461" lon="7.23902988433838"><ele></ele><time>2013-8-6T0:21:41Z</time></trkpt>
<trkpt lat="46.2711563110352" lon="7.23900556564331"><ele></ele><time>2013-8-6T0:21:44Z</time></trkpt>
<trkpt lat="46.2711715698242" lon="7.23898601531982"><ele></ele><time>2013-8-6T0:21:47Z</time></trkpt>
<trkpt lat="46.2712020874023" lon="7.2389349937439"><ele></ele><time>2013-8-6T0:21:50Z</time></trkpt>
<trkpt lat="46.2712440490723" lon="7.23891448974609"><ele></ele><time>2013-8-6T0:21:53Z</time></trkpt>
<trkpt lat="46.2712669372559" lon="7.23891019821167"><ele></ele><time>2013-8-6T0:21:56Z</time></trkpt>
<trkpt lat="46.2712898254394" lon="7.23890686035156"><ele></ele><time>2013-8-6T0:21:59Z</time></trkpt>
<trkpt lat="46.2713165283203" lon="7.23890352249146"><ele></ele><time>2013-8-6T0:22:2Z</time></trkpt>
<trkpt lat="46.2713394165039" lon="7.23891067504883"><ele></ele><time>2013-8-6T0:22:5Z</time></trkpt>
<trkpt lat="46.2714385986328" lon="7.23896884918213"><ele></ele><time>2013-8-6T0:22:8Z</time></trkpt>
<trkpt lat="46.2714805603027" lon="7.2389874458313"><ele></ele><time>2013-8-6T0:22:11Z</time></trkpt>
<trkpt lat="46.2714996337891" lon="7.23900079727173"><ele></ele><time>2013-8-6T0:22:14Z</time></trkpt>
<trkpt lat="46.2715225219727" lon="7.23901414871216"><ele></ele><time>2013-8-6T0:22:17Z</time></trkpt>
<trkpt lat="46.271541595459" lon="7.23902606964111"><ele></ele><time>2013-8-6T0:22:20Z</time></trkpt>
<trkpt lat="46.2715644836426" lon="7.23903322219849"><ele></ele><time>2013-8-6T0:22:23Z</time></trkpt>
<trkpt lat="46.2715873718262" lon="7.23904418945312"><ele></ele><time>2013-8-6T0:22:26Z</time></trkpt>
<trkpt lat="46.2716751098633" lon="7.23909091949463"><ele></ele><time>2013-8-6T0:22:29Z</time></trkpt>
<trkpt lat="46.2716941833496" lon="7.23910474777222"><ele></ele><time>2013-8-6T0:22:32Z</time></trkpt>
<trkpt lat="46.2717170715332" lon="7.23911571502686"><ele></ele><time>2013-8-6T0:22:35Z</time></trkpt>
<trkpt lat="46.2717437744141" lon="7.23912286758423"><ele></ele><time>2013-8-6T0:22:38Z</time></trkpt>
<trkpt lat="46.2717704772949" lon="7.23913335800171"><ele></ele><time>2013-8-6T0:22:41Z</time></trkpt>
<trkpt lat="46.2718162536621" lon="7.23914813995361"><ele></ele><time>2013-8-6T0:22:44Z</time></trkpt>
<trkpt lat="46.2718849182129" lon="7.23914957046509"><ele></ele><time>2013-8-6T0:22:47Z</time></trkpt>
<trkpt lat="46.2719078063965" lon="7.23914957046509"><ele></ele><time>2013-8-6T0:22:50Z</time></trkpt>
<trkpt lat="46.2719306945801" lon="7.23915386199951"><ele></ele><time>2013-8-6T0:22:53Z</time></trkpt>
<trkpt lat="46.2719535827637" lon="7.23915910720825"><ele></ele><time>2013-8-6T0:22:56Z</time></trkpt>
<trkpt lat="46.2719764709473" lon="7.23915910720825"><ele></ele><time>2013-8-6T0:22:59Z</time></trkpt>
<trkpt lat="46.272087097168" lon="7.23914241790772"><ele></ele><time>2013-8-6T0:23:2Z</time></trkpt>
<trkpt lat="46.2721328735352" lon="7.23912286758423"><ele></ele><time>2013-8-6T0:23:5Z</time></trkpt>
<trkpt lat="46.2721557617188" lon="7.23911476135254"><ele></ele><time>2013-8-6T0:23:8Z</time></trkpt>
<trkpt lat="46.2721748352051" lon="7.23909950256348"><ele></ele><time>2013-8-6T0:23:11Z</time></trkpt>
<trkpt lat="46.2721977233887" lon="7.23908424377441"><ele></ele><time>2013-8-6T0:23:14Z</time></trkpt>
<trkpt lat="46.2722206115723" lon="7.23906993865967"><ele></ele><time>2013-8-6T0:23:17Z</time></trkpt>
<trkpt lat="46.2722434997559" lon="7.23905897140503"><ele></ele><time>2013-8-6T0:23:20Z</time></trkpt>
<trkpt lat="46.2723426818848" lon="7.23898601531982"><ele></ele><time>2013-8-6T0:23:23Z</time></trkpt>
<trkpt lat="46.2723579406738" lon="7.23896551132202"><ele></ele><time>2013-8-6T0:23:26Z</time></trkpt>
<trkpt lat="46.2723770141602" lon="7.23894834518433"><ele></ele><time>2013-8-6T0:23:29Z</time></trkpt>
<trkpt lat="46.2723922729492" lon="7.23892736434936"><ele></ele><time>2013-8-6T0:23:32Z</time></trkpt>
<trkpt lat="46.272403717041" lon="7.23890352249146"><ele></ele><time>2013-8-6T0:23:35Z</time></trkpt>
<trkpt lat="46.2724685668945" lon="7.23880481719971"><ele></ele><time>2013-8-6T0:23:38Z</time></trkpt>
<trkpt lat="46.2724838256836" lon="7.23878526687622"><ele></ele><time>2013-8-6T0:23:41Z</time></trkpt>
<trkpt lat="46.2724990844727" lon="7.23876523971558"><ele></ele><time>2013-8-6T0:23:44Z</time></trkpt>
<trkpt lat="46.2725219726562" lon="7.23873710632324"><ele></ele><time>2013-8-6T0:23:47Z</time></trkpt>
<trkpt lat="46.2725410461426" lon="7.23870944976807"><ele></ele><time>2013-8-6T0:23:50Z</time></trkpt>
<trkpt lat="46.2725601196289" lon="7.23868751525879"><ele></ele><time>2013-8-6T0:23:53Z</time></trkpt>
<trkpt lat="46.2725830078125" lon="7.23866748809814"><ele></ele><time>2013-8-6T0:23:56Z</time></trkpt>
<trkpt lat="46.2726783752441" lon="7.2385721206665"><ele></ele><time>2013-8-6T0:23:59Z</time></trkpt>
<trkpt lat="46.2727012634277" lon="7.23856210708618"><ele></ele><time>2013-8-6T0:24:2Z</time></trkpt>
<trkpt lat="46.2727241516113" lon="7.23855638504028"><ele></ele><time>2013-8-6T0:24:5Z</time></trkpt>
<trkpt lat="46.2727470397949" lon="7.23854970932007"><ele></ele><time>2013-8-6T0:24:8Z</time></trkpt>
<trkpt lat="46.2727699279785" lon="7.23854303359985"><ele></ele><time>2013-8-6T0:24:11Z</time></trkpt>
<trkpt lat="46.2728424072266" lon="7.23853778839111"><ele></ele><time>2013-8-6T0:24:14Z</time></trkpt>
<trkpt lat="46.2728652954102" lon="7.23854207992554"><ele></ele><time>2013-8-6T0:24:17Z</time></trkpt>
<trkpt lat="46.2728881835938" lon="7.23854494094849"><ele></ele><time>2013-8-6T0:24:20Z</time></trkpt>
<trkpt lat="46.2729110717773" lon="7.23854923248291"><ele></ele><time>2013-8-6T0:24:23Z</time></trkpt>
<trkpt lat="46.2729339599609" lon="7.23855113983154"><ele></ele><time>2013-8-6T0:24:26Z</time></trkpt>
<trkpt lat="46.2729568481445" lon="7.23855829238892"><ele></ele><time>2013-8-6T0:24:29Z</time></trkpt>
<trkpt lat="46.2730026245117" lon="7.23857641220093"><ele></ele><time>2013-8-6T0:24:32Z</time></trkpt>
<trkpt lat="46.2730827331543" lon="7.23859786987305"><ele></ele><time>2013-8-6T0:24:35Z</time></trkpt>
<trkpt lat="46.2731056213379" lon="7.23860168457031"><ele></ele><time>2013-8-6T0:24:38Z</time></trkpt>
<trkpt lat="46.2731323242188" lon="7.23860597610474"><ele></ele><time>2013-8-6T0:24:41Z</time></trkpt>
<trkpt lat="46.2731552124023" lon="7.23860883712768"><ele></ele><time>2013-8-6T0:24:44Z</time></trkpt>
<trkpt lat="46.2731781005859" lon="7.23861026763916"><ele></ele><time>2013-8-6T0:24:47Z</time></trkpt>
<trkpt lat="46.2732772827148" lon="7.23861646652222"><ele></ele><time>2013-8-6T0:24:50Z</time></trkpt>
<trkpt lat="46.2733039855957" lon="7.23860740661621"><ele></ele><time>2013-8-6T0:24:53Z</time></trkpt>
<trkpt lat="46.2733268737793" lon="7.23859977722168"><ele></ele><time>2013-8-6T0:24:56Z</time></trkpt>
<trkpt lat="46.2733497619629" lon="7.2385983467102"><ele></ele><time>2013-8-6T0:24:59Z</time></trkpt>
<trkpt lat="46.2733726501465" lon="7.23858594894409"><ele></ele><time>2013-8-6T0:25:2Z</time></trkpt>
<trkpt lat="46.2734336853027" lon="7.23853015899658"><ele></ele><time>2013-8-6T0:25:5Z</time></trkpt>
<trkpt lat="46.2734794616699" lon="7.2384729385376"><ele></ele><time>2013-8-6T0:25:8Z</time></trkpt>
<trkpt lat="46.2735061645508" lon="7.23845291137695"><ele></ele><time>2013-8-6T0:25:11Z</time></trkpt>
<trkpt lat="46.2735252380371" lon="7.23843288421631"><ele></ele><time>2013-8-6T0:25:14Z</time></trkpt>
<trkpt lat="46.2735443115234" lon="7.23840761184692"><ele></ele><time>2013-8-6T0:25:17Z</time></trkpt>
<trkpt lat="46.2735595703125" lon="7.23837852478027"><ele></ele><time>2013-8-6T0:25:20Z</time></trkpt>
<trkpt lat="46.2736206054688" lon="7.23827791213989"><ele></ele><time>2013-8-6T0:25:23Z</time></trkpt>
<trkpt lat="46.2736320495606" lon="7.23825073242188"><ele></ele><time>2013-8-6T0:25:26Z</time></trkpt>
<trkpt lat="46.2736511230469" lon="7.23822498321533"><ele></ele><time>2013-8-6T0:25:29Z</time></trkpt>
<trkpt lat="46.2736663818359" lon="7.23820161819458"><ele></ele><time>2013-8-6T0:25:32Z</time></trkpt>
<trkpt lat="46.2736778259277" lon="7.2381739616394"><ele></ele><time>2013-8-6T0:25:35Z</time></trkpt>
<trkpt lat="46.2737579345703" lon="7.2380747795105"><ele></ele><time>2013-8-6T0:25:38Z</time></trkpt>
<trkpt lat="46.2737770080566" lon="7.23805618286133"><ele></ele><time>2013-8-6T0:25:41Z</time></trkpt>
<trkpt lat="46.2737922668457" lon="7.23803329467774"><ele></ele><time>2013-8-6T0:25:44Z</time></trkpt>
<trkpt lat="46.2738075256348" lon="7.23800849914551"><ele></ele><time>2013-8-6T0:25:47Z</time></trkpt>
<trkpt lat="46.2738227844238" lon="7.23798751831055"><ele></ele><time>2013-8-6T0:25:50Z</time></trkpt>
<trkpt lat="46.2738571166992" lon="7.23794412612915"><ele></ele><time>2013-8-6T0:25:53Z</time></trkpt>
<trkpt lat="46.2739181518555" lon="7.23787641525268"><ele></ele><time>2013-8-6T0:25:56Z</time></trkpt>
<trkpt lat="46.2739372253418" lon="7.23785924911499"><ele></ele><time>2013-8-6T0:25:59Z</time></trkpt>
<trkpt lat="46.2739562988281" lon="7.2378396987915"><ele></ele><time>2013-8-6T0:26:2Z</time></trkpt>
<trkpt lat="46.2739715576172" lon="7.23782205581665"><ele></ele><time>2013-8-6T0:26:5Z</time></trkpt>
<trkpt lat="46.2739906311035" lon="7.23779916763306"><ele></ele><time>2013-8-6T0:26:8Z</time></trkpt>
<trkpt lat="46.2741088867188" lon="7.23765897750854"><ele></ele><time>2013-8-6T0:26:11Z</time></trkpt>
<trkpt lat="46.2741355895996" lon="7.23764038085938"><ele></ele><time>2013-8-6T0:26:14Z</time></trkpt>
<trkpt lat="46.2741508483887" lon="7.23762035369873"><ele></ele><time>2013-8-6T0:26:17Z</time></trkpt>
<trkpt lat="46.2741661071777" lon="7.23759984970093"><ele></ele><time>2013-8-6T0:26:20Z</time></trkpt>
<trkpt lat="46.2741813659668" lon="7.23757553100586"><ele></ele><time>2013-8-6T0:26:23Z</time></trkpt>
<trkpt lat="46.2742004394531" lon="7.23755645751953"><ele></ele><time>2013-8-6T0:26:26Z</time></trkpt>
<trkpt lat="46.2742958068848" lon="7.23742389678955"><ele></ele><time>2013-8-6T0:26:29Z</time></trkpt>
<trkpt lat="46.2743148803711" lon="7.23739910125732"><ele></ele><time>2013-8-6T0:26:32Z</time></trkpt>
<trkpt lat="46.2743339538574" lon="7.2373833656311"><ele></ele><time>2013-8-6T0:26:35Z</time></trkpt>
<trkpt lat="46.2743492126465" lon="7.23736095428467"><ele></ele><time>2013-8-6T0:26:38Z</time></trkpt>
<trkpt lat="46.2743644714356" lon="7.23733425140381"><ele></ele><time>2013-8-6T0:26:41Z</time></trkpt>
<trkpt lat="46.2743797302246" lon="7.23730707168579"><ele></ele><time>2013-8-6T0:26:44Z</time></trkpt>
<trkpt lat="46.2744102478027" lon="7.23712778091431"><ele></ele><time>2013-8-6T0:26:47Z</time></trkpt>
<trkpt lat="46.2744064331055" lon="7.23708724975586"><ele></ele><time>2013-8-6T0:26:50Z</time></trkpt>
<trkpt lat="46.2744026184082" lon="7.23704862594604"><ele></ele><time>2013-8-6T0:26:53Z</time></trkpt>
<trkpt lat="46.2743949890137" lon="7.23701000213623"><ele></ele><time>2013-8-6T0:26:56Z</time></trkpt>
<trkpt lat="46.2743835449219" lon="7.23697137832642"><ele></ele><time>2013-8-6T0:26:59Z</time></trkpt>
<trkpt lat="46.2743759155273" lon="7.23693037033081"><ele></ele><time>2013-8-6T0:27:2Z</time></trkpt>
<trkpt lat="46.274356842041" lon="7.23683404922485"><ele></ele><time>2013-8-6T0:27:5Z</time></trkpt>
<trkpt lat="46.2743034362793" lon="7.23653507232666"><ele></ele><time>2013-8-6T0:27:8Z</time></trkpt>
<trkpt lat="46.2742691040039" lon="7.2362813949585"><ele></ele><time>2013-8-6T0:27:11Z</time></trkpt>
<trkpt lat="46.2742576599121" lon="7.2361855506897"><ele></ele><time>2013-8-6T0:27:14Z</time></trkpt>
<trkpt lat="46.2742500305176" lon="7.23614025115967"><ele></ele><time>2013-8-6T0:27:17Z</time></trkpt>
<trkpt lat="46.274242401123" lon="7.23609113693237"><ele></ele><time>2013-8-6T0:27:20Z</time></trkpt>
<trkpt lat="46.2742347717285" lon="7.2360429763794"><ele></ele><time>2013-8-6T0:27:23Z</time></trkpt>
<trkpt lat="46.274227142334" lon="7.2359938621521"><ele></ele><time>2013-8-6T0:27:26Z</time></trkpt>
<trkpt lat="46.2741966247559" lon="7.23569965362549"><ele></ele><time>2013-8-6T0:27:29Z</time></trkpt>
<trkpt lat="46.2742233276367" lon="7.23552751541138"><ele></ele><time>2013-8-6T0:27:32Z</time></trkpt>
<trkpt lat="46.2742347717285" lon="7.23549365997314"><ele></ele><time>2013-8-6T0:27:35Z</time></trkpt>
<trkpt lat="46.2742500305176" lon="7.2354621887207"><ele></ele><time>2013-8-6T0:27:38Z</time></trkpt>
<trkpt lat="46.2742652893066" lon="7.23543500900268"><ele></ele><time>2013-8-6T0:27:41Z</time></trkpt>
<trkpt lat="46.2742805480957" lon="7.23540782928467"><ele></ele><time>2013-8-6T0:27:44Z</time></trkpt>
<trkpt lat="46.2743072509766" lon="7.23535490036011"><ele></ele><time>2013-8-6T0:27:47Z</time></trkpt>
<trkpt lat="46.2743186950684" lon="7.23532962799072"><ele></ele><time>2013-8-6T0:27:50Z</time></trkpt>
<trkpt lat="46.2743301391602" lon="7.23530626296997"><ele></ele><time>2013-8-6T0:27:53Z</time></trkpt>
<trkpt lat="46.2743453979492" lon="7.23528051376343"><ele></ele><time>2013-8-6T0:27:56Z</time></trkpt>
<trkpt lat="46.2743606567383" lon="7.23525714874268"><ele></ele><time>2013-8-6T0:27:59Z</time></trkpt>
<trkpt lat="46.2744293212891" lon="7.23516654968262"><ele></ele><time>2013-8-6T0:28:2Z</time></trkpt>
<trkpt lat="46.2744560241699" lon="7.23514127731323"><ele></ele><time>2013-8-6T0:28:5Z</time></trkpt>
<trkpt lat="46.274486541748" lon="7.23513746261597"><ele></ele><time>2013-8-6T0:28:8Z</time></trkpt>
<trkpt lat="46.2745170593262" lon="7.23512887954712"><ele></ele><time>2013-8-6T0:28:11Z</time></trkpt>
<trkpt lat="46.2745475769043" lon="7.2351245880127"><ele></ele><time>2013-8-6T0:28:14Z</time></trkpt>
<trkpt lat="46.2745704650879" lon="7.2351188659668"><ele></ele><time>2013-8-6T0:28:17Z</time></trkpt>
<trkpt lat="46.2746696472168" lon="7.23507738113403"><ele></ele><time>2013-8-6T0:28:20Z</time></trkpt>
<trkpt lat="46.2746887207031" lon="7.23506689071655"><ele></ele><time>2013-8-6T0:28:23Z</time></trkpt>
<trkpt lat="46.2747077941894" lon="7.2350549697876"><ele></ele><time>2013-8-6T0:28:26Z</time></trkpt>
<trkpt lat="46.274730682373" lon="7.23505020141602"><ele></ele><time>2013-8-6T0:28:29Z</time></trkpt>
<trkpt lat="46.2747497558594" lon="7.2350435256958"><ele></ele><time>2013-8-6T0:28:32Z</time></trkpt>
<trkpt lat="46.2748794555664" lon="7.23499298095703"><ele></ele><time>2013-8-6T0:28:35Z</time></trkpt>
<trkpt lat="46.2748985290527" lon="7.23497486114502"><ele></ele><time>2013-8-6T0:28:38Z</time></trkpt>
<trkpt lat="46.2749176025391" lon="7.23496961593628"><ele></ele><time>2013-8-6T0:28:41Z</time></trkpt>
<trkpt lat="46.2749366760254" lon="7.23496627807617"><ele></ele><time>2013-8-6T0:28:44Z</time></trkpt>
<trkpt lat="46.274959564209" lon="7.23495864868164"><ele></ele><time>2013-8-6T0:28:47Z</time></trkpt>
<trkpt lat="46.2751121520996" lon="7.23496389389038"><ele></ele><time>2013-8-6T0:28:50Z</time></trkpt>
<trkpt lat="46.2751350402832" lon="7.23495721817017"><ele></ele><time>2013-8-6T0:28:53Z</time></trkpt>
<trkpt lat="46.2751579284668" lon="7.23495197296143"><ele></ele><time>2013-8-6T0:28:56Z</time></trkpt>
<trkpt lat="46.2751808166504" lon="7.23494720458984"><ele></ele><time>2013-8-6T0:28:59Z</time></trkpt>
<trkpt lat="46.2751998901367" lon="7.23494577407837"><ele></ele><time>2013-8-6T0:29:2Z</time></trkpt>
<trkpt lat="46.2752723693848" lon="7.23494005203247"><ele></ele><time>2013-8-6T0:29:5Z</time></trkpt>
<trkpt lat="46.2753982543945" lon="7.23495721817017"><ele></ele><time>2013-8-6T0:29:8Z</time></trkpt>
<trkpt lat="46.2754173278809" lon="7.23497104644775"><ele></ele><time>2013-8-6T0:29:11Z</time></trkpt>
<trkpt lat="46.2754402160644" lon="7.23498392105102"><ele></ele><time>2013-8-6T0:29:14Z</time></trkpt>
<trkpt lat="46.2754554748535" lon="7.23501253128052"><ele></ele><time>2013-8-6T0:29:17Z</time></trkpt>
<trkpt lat="46.2754745483398" lon="7.23511028289795"><ele></ele><time>2013-8-6T0:29:20Z</time></trkpt>
<trkpt lat="46.2755165100098" lon="7.23526620864868"><ele></ele><time>2013-8-6T0:29:23Z</time></trkpt>
<trkpt lat="46.2755241394043" lon="7.23529148101807"><ele></ele><time>2013-8-6T0:29:26Z</time></trkpt>
<trkpt lat="46.2755355834961" lon="7.23531484603882"><ele></ele><time>2013-8-6T0:29:29Z</time></trkpt>
<trkpt lat="46.2755508422852" lon="7.23533916473389"><ele></ele><time>2013-8-6T0:29:32Z</time></trkpt>
<trkpt lat="46.2755699157715" lon="7.23535823822022"><ele></ele><time>2013-8-6T0:29:35Z</time></trkpt>
<trkpt lat="46.2756080627441" lon="7.23539400100708"><ele></ele><time>2013-8-6T0:29:38Z</time></trkpt>
<trkpt lat="46.2756729125977" lon="7.23543643951416"><ele></ele><time>2013-8-6T0:29:41Z</time></trkpt>
<trkpt lat="46.2756958007812" lon="7.23544073104858"><ele></ele><time>2013-8-6T0:29:44Z</time></trkpt>
<trkpt lat="46.2757186889648" lon="7.23543977737427"><ele></ele><time>2013-8-6T0:29:47Z</time></trkpt>
<trkpt lat="46.2757415771484" lon="7.23543548583984"><ele></ele><time>2013-8-6T0:29:50Z</time></trkpt>
<trkpt lat="46.2757682800293" lon="7.23543453216553"><ele></ele><time>2013-8-6T0:29:53Z</time></trkpt>
<trkpt lat="46.2758522033691" lon="7.23539924621582"><ele></ele><time>2013-8-6T0:29:56Z</time></trkpt>
<trkpt lat="46.2758712768555" lon="7.23538160324097"><ele></ele><time>2013-8-6T0:29:59Z</time></trkpt>
<trkpt lat="46.2758903503418" lon="7.23536491394043"><ele></ele><time>2013-8-6T0:30:2Z</time></trkpt>
<trkpt lat="46.2759056091309" lon="7.23534727096558"><ele></ele><time>2013-8-6T0:30:5Z</time></trkpt>
<trkpt lat="46.2759246826172" lon="7.23532676696777"><ele></ele><time>2013-8-6T0:30:8Z</time></trkpt>
<trkpt lat="46.2759971618652" lon="7.23524236679077"><ele></ele><time>2013-8-6T0:30:11Z</time></trkpt>
<trkpt lat="46.276050567627" lon="7.23516416549683"><ele></ele><time>2013-8-6T0:30:14Z</time></trkpt>
<trkpt lat="46.2760696411133" lon="7.23514366149902"><ele></ele><time>2013-8-6T0:30:17Z</time></trkpt>
<trkpt lat="46.2760887145996" lon="7.2351245880127"><ele></ele><time>2013-8-6T0:30:20Z</time></trkpt>
<trkpt lat="46.2761077880859" lon="7.23510503768921"><ele></ele><time>2013-8-6T0:30:23Z</time></trkpt>
<trkpt lat="46.276123046875" lon="7.23508739471436"><ele></ele><time>2013-8-6T0:30:26Z</time></trkpt>
<trkpt lat="46.2761611938477" lon="7.23504638671875"><ele></ele><time>2013-8-6T0:30:29Z</time></trkpt>
<trkpt lat="46.276195526123" lon="7.23500204086304"><ele></ele><time>2013-8-6T0:30:32Z</time></trkpt>
<trkpt lat="46.2762145996094" lon="7.23498153686524"><ele></ele><time>2013-8-6T0:30:35Z</time></trkpt>
<trkpt lat="46.2762336730957" lon="7.23496246337891"><ele></ele><time>2013-8-6T0:30:38Z</time></trkpt>
<trkpt lat="46.2762489318848" lon="7.2349443435669"><ele></ele><time>2013-8-6T0:30:41Z</time></trkpt>
<trkpt lat="46.2762832641602" lon="7.23490619659424"><ele></ele><time>2013-8-6T0:30:44Z</time></trkpt>
<trkpt lat="46.2763366699219" lon="7.23485040664673"><ele></ele><time>2013-8-6T0:30:47Z</time></trkpt>
<trkpt lat="46.2763557434082" lon="7.23482894897461"><ele></ele><time>2013-8-6T0:30:50Z</time></trkpt>
<trkpt lat="46.2763748168945" lon="7.23480606079102"><ele></ele><time>2013-8-6T0:30:53Z</time></trkpt>
<trkpt lat="46.2763938903809" lon="7.23478364944458"><ele></ele><time>2013-8-6T0:30:56Z</time></trkpt>
<trkpt lat="46.2764129638672" lon="7.23475980758667"><ele></ele><time>2013-8-6T0:30:59Z</time></trkpt>
<trkpt lat="46.2764472961426" lon="7.23471546173096"><ele></ele><time>2013-8-6T0:31:2Z</time></trkpt>
<trkpt lat="46.2765235900879" lon="7.23462915420532"><ele></ele><time>2013-8-6T0:31:5Z</time></trkpt>
<trkpt lat="46.276538848877" lon="7.23460531234741"><ele></ele><time>2013-8-6T0:31:8Z</time></trkpt>
<trkpt lat="46.2765579223633" lon="7.23457908630371"><ele></ele><time>2013-8-6T0:31:11Z</time></trkpt>
<trkpt lat="46.2765808105469" lon="7.23455905914307"><ele></ele><time>2013-8-6T0:31:14Z</time></trkpt>
<trkpt lat="46.2766036987305" lon="7.23453903198242"><ele></ele><time>2013-8-6T0:31:17Z</time></trkpt>
<trkpt lat="46.2767181396484" lon="7.23439836502075"><ele></ele><time>2013-8-6T0:31:20Z</time></trkpt>
<trkpt lat="46.2767372131348" lon="7.23437595367432"><ele></ele><time>2013-8-6T0:31:23Z</time></trkpt>
<trkpt lat="46.2767562866211" lon="7.23435020446777"><ele></ele><time>2013-8-6T0:31:26Z</time></trkpt>
<trkpt lat="46.2767753601074" lon="7.23432445526123"><ele></ele><time>2013-8-6T0:31:29Z</time></trkpt>
<trkpt lat="46.276798248291" lon="7.23429870605469"><ele></ele><time>2013-8-6T0:31:32Z</time></trkpt>
<trkpt lat="46.2768821716309" lon="7.2342095375061"><ele></ele><time>2013-8-6T0:31:35Z</time></trkpt>
<trkpt lat="46.2769241333008" lon="7.23417139053345"><ele></ele><time>2013-8-6T0:31:38Z</time></trkpt>
<trkpt lat="46.2769470214844" lon="7.23415851593018"><ele></ele><time>2013-8-6T0:31:41Z</time></trkpt>
<trkpt lat="46.276969909668" lon="7.2341480255127"><ele></ele><time>2013-8-6T0:31:44Z</time></trkpt>
<trkpt lat="46.2769927978516" lon="7.23414611816406"><ele></ele><time>2013-8-6T0:31:47Z</time></trkpt>
<trkpt lat="46.2770195007324" lon="7.23414182662964"><ele></ele><time>2013-8-6T0:31:50Z</time></trkpt>
<trkpt lat="46.277099609375" lon="7.23411798477173"><ele></ele><time>2013-8-6T0:31:53Z</time></trkpt>
<trkpt lat="46.2771224975586" lon="7.23411464691162"><ele></ele><time>2013-8-6T0:31:56Z</time></trkpt>
<trkpt lat="46.2771453857422" lon="7.23411273956299"><ele></ele><time>2013-8-6T0:31:59Z</time></trkpt>
<trkpt lat="46.277172088623" lon="7.2341103553772"><ele></ele><time>2013-8-6T0:32:2Z</time></trkpt>
<trkpt lat="46.2771949768066" lon="7.23410987854004"><ele></ele><time>2013-8-6T0:32:5Z</time></trkpt>
<trkpt lat="46.2772750854492" lon="7.23412179946899"><ele></ele><time>2013-8-6T0:32:8Z</time></trkpt>
<trkpt lat="46.2773017883301" lon="7.23412561416626"><ele></ele><time>2013-8-6T0:32:11Z</time></trkpt>
<trkpt lat="46.2773284912109" lon="7.23412370681763"><ele></ele><time>2013-8-6T0:32:14Z</time></trkpt>
<trkpt lat="46.2773551940918" lon="7.23412084579468"><ele></ele><time>2013-8-6T0:32:17Z</time></trkpt>
<trkpt lat="46.2773780822754" lon="7.23412179946899"><ele></ele><time>2013-8-6T0:32:20Z</time></trkpt>
<trkpt lat="46.2774200439453" lon="7.23411846160889"><ele></ele><time>2013-8-6T0:32:23Z</time></trkpt>
<trkpt lat="46.2774887084961" lon="7.23410892486572"><ele></ele><time>2013-8-6T0:32:26Z</time></trkpt>
<trkpt lat="46.2775192260742" lon="7.23411321640015"><ele></ele><time>2013-8-6T0:32:29Z</time></trkpt>
<trkpt lat="46.2775459289551" lon="7.23410844802856"><ele></ele><time>2013-8-6T0:32:32Z</time></trkpt>
<trkpt lat="46.2775688171387" lon="7.23410081863403"><ele></ele><time>2013-8-6T0:32:35Z</time></trkpt>
<trkpt lat="46.2775955200195" lon="7.23409366607666"><ele></ele><time>2013-8-6T0:32:38Z</time></trkpt>
<trkpt lat="46.2777290344238" lon="7.23401737213135"><ele></ele><time>2013-8-6T0:32:41Z</time></trkpt>
<trkpt lat="46.2777519226074" lon="7.23400259017944"><ele></ele><time>2013-8-6T0:32:44Z</time></trkpt>
<trkpt lat="46.2777709960938" lon="7.23398447036743"><ele></ele><time>2013-8-6T0:32:47Z</time></trkpt>
<trkpt lat="46.2777938842773" lon="7.23396921157837"><ele></ele><time>2013-8-6T0:32:50Z</time></trkpt>
<trkpt lat="46.2778167724609" lon="7.23395490646362"><ele></ele><time>2013-8-6T0:32:53Z</time></trkpt>
<trkpt lat="46.2778396606445" lon="7.2339358329773"><ele></ele><time>2013-8-6T0:32:56Z</time></trkpt>
<trkpt lat="46.2779197692871" lon="7.2338662147522"><ele></ele><time>2013-8-6T0:32:59Z</time></trkpt>
<trkpt lat="46.2779426574707" lon="7.2338433265686"><ele></ele><time>2013-8-6T0:33:2Z</time></trkpt>
<trkpt lat="46.2779579162598" lon="7.23382377624512"><ele></ele><time>2013-8-6T0:33:5Z</time></trkpt>
<trkpt lat="46.2779808044434" lon="7.23380756378174"><ele></ele><time>2013-8-6T0:33:8Z</time></trkpt>
<trkpt lat="46.278003692627" lon="7.23379468917847"><ele></ele><time>2013-8-6T0:33:11Z</time></trkpt>
<trkpt lat="46.2781066894531" lon="7.23370981216431"><ele></ele><time>2013-8-6T0:33:14Z</time></trkpt>
<trkpt lat="46.2781295776367" lon="7.23368978500366"><ele></ele><time>2013-8-6T0:33:17Z</time></trkpt>
<trkpt lat="46.278148651123" lon="7.23366928100586"><ele></ele><time>2013-8-6T0:33:20Z</time></trkpt>
<trkpt lat="46.2781677246094" lon="7.23364877700806"><ele></ele><time>2013-8-6T0:33:23Z</time></trkpt>
<trkpt lat="46.2781944274902" lon="7.2336277961731"><ele></ele><time>2013-8-6T0:33:26Z</time></trkpt>
<trkpt lat="46.2782859802246" lon="7.23357009887695"><ele></ele><time>2013-8-6T0:33:29Z</time></trkpt>
<trkpt lat="46.2783317565918" lon="7.23354339599609"><ele></ele><time>2013-8-6T0:33:32Z</time></trkpt>
<trkpt lat="46.2783584594727" lon="7.23353052139282"><ele></ele><time>2013-8-6T0:33:35Z</time></trkpt>
<trkpt lat="46.2783889770508" lon="7.23352241516113"><ele></ele><time>2013-8-6T0:33:38Z</time></trkpt>
<trkpt lat="46.2784156799316" lon="7.23351621627808"><ele></ele><time>2013-8-6T0:33:41Z</time></trkpt>
<trkpt lat="46.2784690856934" lon="7.23351287841797"><ele></ele><time>2013-8-6T0:33:44Z</time></trkpt>
<trkpt lat="46.2785568237305" lon="7.23351287841797"><ele></ele><time>2013-8-6T0:33:47Z</time></trkpt>
<trkpt lat="46.2786598205566" lon="7.23352813720703"><ele></ele><time>2013-8-6T0:33:50Z</time></trkpt>
<trkpt lat="46.2786827087402" lon="7.23353147506714"><ele></ele><time>2013-8-6T0:33:53Z</time></trkpt>
<trkpt lat="46.2787055969238" lon="7.23353624343872"><ele></ele><time>2013-8-6T0:33:56Z</time></trkpt>
<trkpt lat="46.2787322998047" lon="7.2335410118103"><ele></ele><time>2013-8-6T0:33:59Z</time></trkpt>
<trkpt lat="46.2787590026856" lon="7.23354244232178"><ele></ele><time>2013-8-6T0:34:2Z</time></trkpt>
<trkpt lat="46.2788734436035" lon="7.23356437683106"><ele></ele><time>2013-8-6T0:34:5Z</time></trkpt>
<trkpt lat="46.2788963317871" lon="7.23356676101685"><ele></ele><time>2013-8-6T0:34:8Z</time></trkpt>
<trkpt lat="46.2789154052734" lon="7.2335786819458"><ele></ele><time>2013-8-6T0:34:11Z</time></trkpt>
<trkpt lat="46.278938293457" lon="7.23358488082886"><ele></ele><time>2013-8-6T0:34:14Z</time></trkpt>
<trkpt lat="46.2789573669434" lon="7.23359870910644"><ele></ele><time>2013-8-6T0:34:17Z</time></trkpt>
<trkpt lat="46.2789688110352" lon="7.23360872268677"><ele></ele><time>2013-8-6T0:34:20Z</time></trkpt>
<trkpt lat="46.2790184020996" lon="7.23371171951294"><ele></ele><time>2013-8-6T0:34:23Z</time></trkpt>
<trkpt lat="46.2790298461914" lon="7.23374366760254"><ele></ele><time>2013-8-6T0:34:26Z</time></trkpt>
<trkpt lat="46.2790336608887" lon="7.23378038406372"><ele></ele><time>2013-8-6T0:34:29Z</time></trkpt>
<trkpt lat="46.2790374755859" lon="7.23381423950195"><ele></ele><time>2013-8-6T0:34:32Z</time></trkpt>
<trkpt lat="46.2790336608887" lon="7.2338433265686"><ele></ele><time>2013-8-6T0:34:35Z</time></trkpt>
<trkpt lat="46.2790260314941" lon="7.23388051986694"><ele></ele><time>2013-8-6T0:34:38Z</time></trkpt>
<trkpt lat="46.2790184020996" lon="7.2339129447937"><ele></ele><time>2013-8-6T0:34:41Z</time></trkpt>
<trkpt lat="46.2789916992188" lon="7.23402690887451"><ele></ele><time>2013-8-6T0:34:44Z</time></trkpt>
<trkpt lat="46.2789878845215" lon="7.23406553268433"><ele></ele><time>2013-8-6T0:34:47Z</time></trkpt>
<trkpt lat="46.2789840698242" lon="7.23409986495972"><ele></ele><time>2013-8-6T0:34:50Z</time></trkpt>
<trkpt lat="46.2789878845215" lon="7.23412656784058"><ele></ele><time>2013-8-6T0:34:53Z</time></trkpt>
<trkpt lat="46.2789916992188" lon="7.23415994644165"><ele></ele><time>2013-8-6T0:34:56Z</time></trkpt>
<trkpt lat="46.2790679931641" lon="7.2343168258667"><ele></ele><time>2013-8-6T0:34:59Z</time></trkpt>
<trkpt lat="46.2790908813477" lon="7.2343430519104"><ele></ele><time>2013-8-6T0:35:2Z</time></trkpt>
<trkpt lat="46.2791175842285" lon="7.23435688018799"><ele></ele><time>2013-8-6T0:35:5Z</time></trkpt>
<trkpt lat="46.2791442871094" lon="7.23436737060547"><ele></ele><time>2013-8-6T0:35:8Z</time></trkpt>
<trkpt lat="46.2791709899902" lon="7.23437595367432"><ele></ele><time>2013-8-6T0:35:11Z</time></trkpt>
<trkpt lat="46.2792015075684" lon="7.23438215255737"><ele></ele><time>2013-8-6T0:35:14Z</time></trkpt>
<trkpt lat="46.2792701721191" lon="7.23439311981201"><ele></ele><time>2013-8-6T0:35:17Z</time></trkpt>
<trkpt lat="46.2792930603027" lon="7.23439264297485"><ele></ele><time>2013-8-6T0:35:20Z</time></trkpt>
<trkpt lat="46.2793159484863" lon="7.23439168930054"><ele></ele><time>2013-8-6T0:35:23Z</time></trkpt>
<trkpt lat="46.2793350219727" lon="7.23438262939453"><ele></ele><time>2013-8-6T0:35:26Z</time></trkpt>
<trkpt lat="46.279354095459" lon="7.23437452316284"><ele></ele><time>2013-8-6T0:35:29Z</time></trkpt>
<trkpt lat="46.2794761657715" lon="7.23432016372681"><ele></ele><time>2013-8-6T0:35:32Z</time></trkpt>
<trkpt lat="46.2795028686523" lon="7.23431921005249"><ele></ele><time>2013-8-6T0:35:35Z</time></trkpt>
<trkpt lat="46.2795257568359" lon="7.23430967330933"><ele></ele><time>2013-8-6T0:35:38Z</time></trkpt>
<trkpt lat="46.2795448303223" lon="7.23430013656616"><ele></ele><time>2013-8-6T0:35:41Z</time></trkpt>
<trkpt lat="46.2795715332031" lon="7.23429107666016"><ele></ele><time>2013-8-6T0:35:44Z</time></trkpt>
<trkpt lat="46.2796096801758" lon="7.2342643737793"><ele></ele><time>2013-8-6T0:35:47Z</time></trkpt>
<trkpt lat="46.2796821594238" lon="7.23417806625366"><ele></ele><time>2013-8-6T0:35:50Z</time></trkpt>
<trkpt lat="46.2797012329102" lon="7.23414754867554"><ele></ele><time>2013-8-6T0:35:53Z</time></trkpt>
<trkpt lat="46.2797203063965" lon="7.23411703109741"><ele></ele><time>2013-8-6T0:35:56Z</time></trkpt>
<trkpt lat="46.2797355651856" lon="7.23409509658814"><ele></ele><time>2013-8-6T0:35:59Z</time></trkpt>
<trkpt lat="46.2797431945801" lon="7.23407411575317"><ele></ele><time>2013-8-6T0:36:2Z</time></trkpt>
<trkpt lat="46.2797698974609" lon="7.23400020599365"><ele></ele><time>2013-8-6T0:36:5Z</time></trkpt>
<trkpt lat="46.2797775268555" lon="7.23393440246582"><ele></ele><time>2013-8-6T0:36:8Z</time></trkpt>
<trkpt lat="46.27978515625" lon="7.23389673233032"><ele></ele><time>2013-8-6T0:36:11Z</time></trkpt>
<trkpt lat="46.2797927856445" lon="7.23386144638062"><ele></ele><time>2013-8-6T0:36:14Z</time></trkpt>
<trkpt lat="46.2797966003418" lon="7.23382997512817"><ele></ele><time>2013-8-6T0:36:17Z</time></trkpt>
<trkpt lat="46.2798004150391" lon="7.23379850387573"><ele></ele><time>2013-8-6T0:36:20Z</time></trkpt>
<trkpt lat="46.2798309326172" lon="7.23358774185181"><ele></ele><time>2013-8-6T0:36:23Z</time></trkpt>
<trkpt lat="46.2798385620117" lon="7.23355674743652"><ele></ele><time>2013-8-6T0:36:26Z</time></trkpt>
<trkpt lat="46.2798500061035" lon="7.23352479934692"><ele></ele><time>2013-8-6T0:36:29Z</time></trkpt>
<trkpt lat="46.2798614501953" lon="7.23349332809448"><ele></ele><time>2013-8-6T0:36:32Z</time></trkpt>
<trkpt lat="46.2798728942871" lon="7.23346757888794"><ele></ele><time>2013-8-6T0:36:35Z</time></trkpt>
<trkpt lat="46.2798957824707" lon="7.23341464996338"><ele></ele><time>2013-8-6T0:36:38Z</time></trkpt>
<trkpt lat="46.2799224853516" lon="7.23336124420166"><ele></ele><time>2013-8-6T0:36:41Z</time></trkpt>
<trkpt lat="46.2799339294434" lon="7.23333311080933"><ele></ele><time>2013-8-6T0:36:44Z</time></trkpt>
<trkpt lat="46.2799453735352" lon="7.23330163955688"><ele></ele><time>2013-8-6T0:36:47Z</time></trkpt>
<trkpt lat="46.2799606323242" lon="7.23327159881592"><ele></ele><time>2013-8-6T0:36:50Z</time></trkpt>
<trkpt lat="46.279972076416" lon="7.23323965072632"><ele></ele><time>2013-8-6T0:36:53Z</time></trkpt>
<trkpt lat="46.2800598144531" lon="7.23305177688599"><ele></ele><time>2013-8-6T0:36:56Z</time></trkpt>
<trkpt lat="46.2800788879394" lon="7.23302316665649"><ele></ele><time>2013-8-6T0:36:59Z</time></trkpt>
<trkpt lat="46.2800979614258" lon="7.232994556427"><ele></ele><time>2013-8-6T0:37:2Z</time></trkpt>
<trkpt lat="46.2801170349121" lon="7.23296213150024"><ele></ele><time>2013-8-6T0:37:5Z</time></trkpt>
<trkpt lat="46.2801322937012" lon="7.23292827606201"><ele></ele><time>2013-8-6T0:37:8Z</time></trkpt>
<trkpt lat="46.2801475524902" lon="7.23289918899536"><ele></ele><time>2013-8-6T0:37:11Z</time></trkpt>
<trkpt lat="46.2801818847656" lon="7.23284578323364"><ele></ele><time>2013-8-6T0:37:14Z</time></trkpt>
<trkpt lat="46.2802200317383" lon="7.23279714584351"><ele></ele><time>2013-8-6T0:37:17Z</time></trkpt>
<trkpt lat="46.2802352905273" lon="7.23276901245117"><ele></ele><time>2013-8-6T0:37:20Z</time></trkpt>
<trkpt lat="46.2802505493164" lon="7.232741355896"><ele></ele><time>2013-8-6T0:37:23Z</time></trkpt>
<trkpt lat="46.2802696228027" lon="7.23271989822388"><ele></ele><time>2013-8-6T0:37:26Z</time></trkpt>
<trkpt lat="46.2802886962891" lon="7.23269939422607"><ele></ele><time>2013-8-6T0:37:29Z</time></trkpt>
<trkpt lat="46.2803344726562" lon="7.23266744613648"><ele></ele><time>2013-8-6T0:37:32Z</time></trkpt>
<trkpt lat="46.280445098877" lon="7.23259735107422"><ele></ele><time>2013-8-6T0:37:35Z</time></trkpt>
<trkpt lat="46.2804679870606" lon="7.2325849533081"><ele></ele><time>2013-8-6T0:37:38Z</time></trkpt>
<trkpt lat="46.2804908752441" lon="7.23257732391357"><ele></ele><time>2013-8-6T0:37:41Z</time></trkpt>
<trkpt lat="46.280517578125" lon="7.23256587982178"><ele></ele><time>2013-8-6T0:37:44Z</time></trkpt>
<trkpt lat="46.2805404663086" lon="7.23255395889282"><ele></ele><time>2013-8-6T0:37:47Z</time></trkpt>
<trkpt lat="46.2806777954102" lon="7.23248815536499"><ele></ele><time>2013-8-6T0:37:50Z</time></trkpt>
<trkpt lat="46.2808685302734" lon="7.23238754272461"><ele></ele><time>2013-8-6T0:37:53Z</time></trkpt>
<trkpt lat="46.2808990478516" lon="7.23235988616943"><ele></ele><time>2013-8-6T0:37:56Z</time></trkpt>
<trkpt lat="46.2809257507324" lon="7.23233318328857"><ele></ele><time>2013-8-6T0:37:59Z</time></trkpt>
<trkpt lat="46.2809562683106" lon="7.2323055267334"><ele></ele><time>2013-8-6T0:38:2Z</time></trkpt>
<trkpt lat="46.2809791564941" lon="7.23227548599243"><ele></ele><time>2013-8-6T0:38:5Z</time></trkpt>
<trkpt lat="46.2810363769531" lon="7.23221635818482"><ele></ele><time>2013-8-6T0:38:8Z</time></trkpt>
<trkpt lat="46.28125" lon="7.23197317123413"><ele></ele><time>2013-8-6T0:38:11Z</time></trkpt>
<trkpt lat="46.2813568115234" lon="7.23183965682983"><ele></ele><time>2013-8-6T0:38:14Z</time></trkpt>
<trkpt lat="46.2814979553223" lon="7.23167610168457"><ele></ele><time>2013-8-6T0:38:17Z</time></trkpt>
<trkpt lat="46.2815246582031" lon="7.23164367675781"><ele></ele><time>2013-8-6T0:38:20Z</time></trkpt>
<trkpt lat="46.281551361084" lon="7.23160457611084"><ele></ele><time>2013-8-6T0:38:23Z</time></trkpt>
<trkpt lat="46.2815818786621" lon="7.23156881332398"><ele></ele><time>2013-8-6T0:38:26Z</time></trkpt>
<trkpt lat="46.2816429138184" lon="7.23150205612183"><ele></ele><time>2013-8-6T0:38:29Z</time></trkpt>
<trkpt lat="46.2818450927734" lon="7.23136186599732"><ele></ele><time>2013-8-6T0:38:32Z</time></trkpt>
<trkpt lat="46.2819938659668" lon="7.23128175735474"><ele></ele><time>2013-8-6T0:38:35Z</time></trkpt>
<trkpt lat="46.2820320129394" lon="7.23127222061157"><ele></ele><time>2013-8-6T0:38:38Z</time></trkpt>
<trkpt lat="46.2820663452148" lon="7.23126697540283"><ele></ele><time>2013-8-6T0:38:41Z</time></trkpt>
<trkpt lat="46.2821044921875" lon="7.23126125335693"><ele></ele><time>2013-8-6T0:38:44Z</time></trkpt>
<trkpt lat="46.2821388244629" lon="7.23125982284546"><ele></ele><time>2013-8-6T0:38:47Z</time></trkpt>
<trkpt lat="46.2823143005371" lon="7.23120164871216"><ele></ele><time>2013-8-6T0:38:50Z</time></trkpt>
<trkpt lat="46.2824668884277" lon="7.2311053276062"><ele></ele><time>2013-8-6T0:38:53Z</time></trkpt>
<trkpt lat="46.2825584411621" lon="7.23104429244995"><ele></ele><time>2013-8-6T0:38:56Z</time></trkpt>
<trkpt lat="46.2825889587402" lon="7.23102617263794"><ele></ele><time>2013-8-6T0:38:59Z</time></trkpt>
<trkpt lat="46.2826194763184" lon="7.23100471496582"><ele></ele><time>2013-8-6T0:39:2Z</time></trkpt>
<trkpt lat="46.2826499938965" lon="7.23098707199097"><ele></ele><time>2013-8-6T0:39:5Z</time></trkpt>
<trkpt lat="46.2826843261719" lon="7.23097229003906"><ele></ele><time>2013-8-6T0:39:8Z</time></trkpt>
<trkpt lat="46.2827491760254" lon="7.23093795776367"><ele></ele><time>2013-8-6T0:39:11Z</time></trkpt>
<trkpt lat="46.2830085754394" lon="7.23083400726318"><ele></ele><time>2013-8-6T0:39:14Z</time></trkpt>
<trkpt lat="46.2830352783203" lon="7.2308177947998"><ele></ele><time>2013-8-6T0:39:17Z</time></trkpt>
<trkpt lat="46.2830619812012" lon="7.23080492019653"><ele></ele><time>2013-8-6T0:39:20Z</time></trkpt>
<trkpt lat="46.2830924987793" lon="7.23079204559326"><ele></ele><time>2013-8-6T0:39:23Z</time></trkpt>
<trkpt lat="46.2831268310547" lon="7.23077535629272"><ele></ele><time>2013-8-6T0:39:26Z</time></trkpt>
<trkpt lat="46.2831573486328" lon="7.23075819015503"><ele></ele><time>2013-8-6T0:39:29Z</time></trkpt>
<trkpt lat="46.2832145690918" lon="7.23071908950806"><ele></ele><time>2013-8-6T0:39:32Z</time></trkpt>
<trkpt lat="46.283275604248" lon="7.23069334030151"><ele></ele><time>2013-8-6T0:39:35Z</time></trkpt>
<trkpt lat="46.2833061218262" lon="7.23068475723267"><ele></ele><time>2013-8-6T0:39:38Z</time></trkpt>
<trkpt lat="46.283332824707" lon="7.23067426681518"><ele></ele><time>2013-8-6T0:39:41Z</time></trkpt>
<trkpt lat="46.2833633422852" lon="7.23065280914307"><ele></ele><time>2013-8-6T0:39:44Z</time></trkpt>
<trkpt lat="46.283390045166" lon="7.23063611984253"><ele></ele><time>2013-8-6T0:39:47Z</time></trkpt>
<trkpt lat="46.2834510803223" lon="7.23061418533325"><ele></ele><time>2013-8-6T0:39:50Z</time></trkpt>
<trkpt lat="46.2834777832031" lon="7.23060417175293"><ele></ele><time>2013-8-6T0:39:53Z</time></trkpt>
<trkpt lat="46.2835083007812" lon="7.23059511184692"><ele></ele><time>2013-8-6T0:39:56Z</time></trkpt>
<trkpt lat="46.2835388183594" lon="7.23058891296387"><ele></ele><time>2013-8-6T0:39:59Z</time></trkpt>
<trkpt lat="46.2835655212402" lon="7.23058319091797"><ele></ele><time>2013-8-6T0:40:2Z</time></trkpt>
<trkpt lat="46.283618927002" lon="7.23056888580322"><ele></ele><time>2013-8-6T0:40:5Z</time></trkpt>
<trkpt lat="46.2836418151856" lon="7.23056650161743"><ele></ele><time>2013-8-6T0:40:8Z</time></trkpt>
<trkpt lat="46.2836647033691" lon="7.23056888580322"><ele></ele><time>2013-8-6T0:40:11Z</time></trkpt>
<trkpt lat="46.2836952209473" lon="7.23059129714966"><ele></ele><time>2013-8-6T0:40:14Z</time></trkpt>
<trkpt lat="46.2837181091309" lon="7.2306079864502"><ele></ele><time>2013-8-6T0:40:17Z</time></trkpt>
<trkpt lat="46.283805847168" lon="7.23071384429932"><ele></ele><time>2013-8-6T0:40:20Z</time></trkpt>
<trkpt lat="46.2838249206543" lon="7.23073196411133"><ele></ele><time>2013-8-6T0:40:23Z</time></trkpt>
<trkpt lat="46.2838478088379" lon="7.23075580596924"><ele></ele><time>2013-8-6T0:40:26Z</time></trkpt>
<trkpt lat="46.2838706970215" lon="7.23078346252441"><ele></ele><time>2013-8-6T0:40:29Z</time></trkpt>
<trkpt lat="46.2839851379394" lon="7.2308931350708"><ele></ele><time>2013-8-6T0:40:32Z</time></trkpt>
<trkpt lat="46.2840347290039" lon="7.23094034194946"><ele></ele><time>2013-8-6T0:40:35Z</time></trkpt>
<trkpt lat="46.2840614318848" lon="7.23096323013306"><ele></ele><time>2013-8-6T0:40:38Z</time></trkpt>
<trkpt lat="46.2840805053711" lon="7.2309832572937"><ele></ele><time>2013-8-6T0:40:41Z</time></trkpt>
<trkpt lat="46.2841033935547" lon="7.23100328445435"><ele></ele><time>2013-8-6T0:40:44Z</time></trkpt>
<trkpt lat="46.284122467041" lon="7.23102331161499"><ele></ele><time>2013-8-6T0:40:47Z</time></trkpt>
<trkpt lat="46.2841415405273" lon="7.23104858398438"><ele></ele><time>2013-8-6T0:40:50Z</time></trkpt>
<trkpt lat="46.2841796875" lon="7.23108768463135"><ele></ele><time>2013-8-6T0:40:53Z</time></trkpt>
<trkpt lat="46.2842025756836" lon="7.23110818862915"><ele></ele><time>2013-8-6T0:40:56Z</time></trkpt>
<trkpt lat="46.2842216491699" lon="7.23112916946411"><ele></ele><time>2013-8-6T0:40:59Z</time></trkpt>
<trkpt lat="46.2842445373535" lon="7.23114728927612"><ele></ele><time>2013-8-6T0:41:2Z</time></trkpt>
<trkpt lat="46.2842674255371" lon="7.23116779327393"><ele></ele><time>2013-8-6T0:41:5Z</time></trkpt>
<trkpt lat="46.2843055725098" lon="7.23120594024658"><ele></ele><time>2013-8-6T0:41:8Z</time></trkpt>
<trkpt lat="46.2843437194824" lon="7.2312445640564"><ele></ele><time>2013-8-6T0:41:11Z</time></trkpt>
<trkpt lat="46.284366607666" lon="7.23126602172852"><ele></ele><time>2013-8-6T0:41:14Z</time></trkpt>
<trkpt lat="46.2843856811523" lon="7.23128700256348"><ele></ele><time>2013-8-6T0:41:17Z</time></trkpt>
<trkpt lat="46.2844123840332" lon="7.23130035400391"><ele></ele><time>2013-8-6T0:41:20Z</time></trkpt>
<trkpt lat="46.2844467163086" lon="7.23134469985962"><ele></ele><time>2013-8-6T0:41:23Z</time></trkpt>
<trkpt lat="46.2845001220703" lon="7.23140239715576"><ele></ele><time>2013-8-6T0:41:26Z</time></trkpt>
<trkpt lat="46.2845153808594" lon="7.23142051696777"><ele></ele><time>2013-8-6T0:41:29Z</time></trkpt>
<trkpt lat="46.284538269043" lon="7.23144102096558"><ele></ele><time>2013-8-6T0:41:32Z</time></trkpt>
<trkpt lat="46.284553527832" lon="7.23146486282349"><ele></ele><time>2013-8-6T0:41:35Z</time></trkpt>
<trkpt lat="46.2845764160156" lon="7.23148393630982"><ele></ele><time>2013-8-6T0:41:38Z</time></trkpt>
<trkpt lat="46.2845993041992" lon="7.23150491714478"><ele></ele><time>2013-8-6T0:41:41Z</time></trkpt>
<trkpt lat="46.2847175598144" lon="7.23162984848022"><ele></ele><time>2013-8-6T0:41:44Z</time></trkpt>
<trkpt lat="46.2847366333008" lon="7.23165225982666"><ele></ele><time>2013-8-6T0:41:47Z</time></trkpt>
<trkpt lat="46.2847557067871" lon="7.23167371749878"><ele></ele><time>2013-8-6T0:41:50Z</time></trkpt>
<trkpt lat="46.2847747802734" lon="7.23170185089111"><ele></ele><time>2013-8-6T0:41:53Z</time></trkpt>
<trkpt lat="46.284797668457" lon="7.23172760009766"><ele></ele><time>2013-8-6T0:41:56Z</time></trkpt>
<trkpt lat="46.2848777770996" lon="7.2318263053894"><ele></ele><time>2013-8-6T0:41:59Z</time></trkpt>
<trkpt lat="46.2848968505859" lon="7.23185443878174"><ele></ele><time>2013-8-6T0:42:2Z</time></trkpt>
<trkpt lat="46.2849159240723" lon="7.2318754196167"><ele></ele><time>2013-8-6T0:42:5Z</time></trkpt>
<trkpt lat="46.2849311828613" lon="7.23190450668335"><ele></ele><time>2013-8-6T0:42:8Z</time></trkpt>
<trkpt lat="46.2849960327148" lon="7.23197793960571"><ele></ele><time>2013-8-6T0:42:11Z</time></trkpt>
<trkpt lat="46.2850570678711" lon="7.23204946517944"><ele></ele><time>2013-8-6T0:42:14Z</time></trkpt>
<trkpt lat="46.2850761413574" lon="7.23207426071167"><ele></ele><time>2013-8-6T0:42:17Z</time></trkpt>
<trkpt lat="46.2850952148438" lon="7.23209428787232"><ele></ele><time>2013-8-6T0:42:20Z</time></trkpt>
<trkpt lat="46.2851142883301" lon="7.23211812973022"><ele></ele><time>2013-8-6T0:42:23Z</time></trkpt>
<trkpt lat="46.2851333618164" lon="7.23213720321655"><ele></ele><time>2013-8-6T0:42:26Z</time></trkpt>
<trkpt lat="46.2851524353027" lon="7.23216009140015"><ele></ele><time>2013-8-6T0:42:29Z</time></trkpt>
<trkpt lat="46.2852897644043" lon="7.2322793006897"><ele></ele><time>2013-8-6T0:42:32Z</time></trkpt>
<trkpt lat="46.2853202819824" lon="7.23228168487549"><ele></ele><time>2013-8-6T0:42:35Z</time></trkpt>
<trkpt lat="46.2853736877441" lon="7.23228359222412"><ele></ele><time>2013-8-6T0:42:38Z</time></trkpt>
<trkpt lat="46.2854461669922" lon="7.23224973678589"><ele></ele><time>2013-8-6T0:42:41Z</time></trkpt>
<trkpt lat="46.2854690551758" lon="7.23223447799683"><ele></ele><time>2013-8-6T0:42:44Z</time></trkpt>
<trkpt lat="46.2854881286621" lon="7.23220777511597"><ele></ele><time>2013-8-6T0:42:47Z</time></trkpt>
<trkpt lat="46.2855072021484" lon="7.23218441009522"><ele></ele><time>2013-8-6T0:42:50Z</time></trkpt>
<trkpt lat="46.2855262756348" lon="7.23216152191162"><ele></ele><time>2013-8-6T0:42:53Z</time></trkpt>
<trkpt lat="46.2855415344238" lon="7.23213052749634"><ele></ele><time>2013-8-6T0:42:56Z</time></trkpt>
<trkpt lat="46.2855529785156" lon="7.23209476470947"><ele></ele><time>2013-8-6T0:42:59Z</time></trkpt>
<trkpt lat="46.285587310791" lon="7.23189783096314"><ele></ele><time>2013-8-6T0:43:2Z</time></trkpt>
<trkpt lat="46.285587310791" lon="7.23185968399048"><ele></ele><time>2013-8-6T0:43:5Z</time></trkpt>
<trkpt lat="46.2855834960938" lon="7.23182773590088"><ele></ele><time>2013-8-6T0:43:8Z</time></trkpt>
<trkpt lat="46.2855834960938" lon="7.23179197311401"><ele></ele><time>2013-8-6T0:43:11Z</time></trkpt>
<trkpt lat="46.2855834960938" lon="7.23175668716431"><ele></ele><time>2013-8-6T0:43:14Z</time></trkpt>
<trkpt lat="46.2855911254883" lon="7.23160123825073"><ele></ele><time>2013-8-6T0:43:17Z</time></trkpt>
<trkpt lat="46.2855834960938" lon="7.23152208328247"><ele></ele><time>2013-8-6T0:43:20Z</time></trkpt>
<trkpt lat="46.285587310791" lon="7.23147678375244"><ele></ele><time>2013-8-6T0:43:23Z</time></trkpt>
<trkpt lat="46.285587310791" lon="7.23143720626831"><ele></ele><time>2013-8-6T0:43:26Z</time></trkpt>
<trkpt lat="46.285587310791" lon="7.23140096664429"><ele></ele><time>2013-8-6T0:43:29Z</time></trkpt>
<trkpt lat="46.2855911254883" lon="7.23120403289795"><ele></ele><time>2013-8-6T0:43:32Z</time></trkpt>
<trkpt lat="46.2855911254883" lon="7.23116207122803"><ele></ele><time>2013-8-6T0:43:35Z</time></trkpt>
<trkpt lat="46.285587310791" lon="7.2311224937439"><ele></ele><time>2013-8-6T0:43:38Z</time></trkpt>
<trkpt lat="46.2855758666992" lon="7.23108053207398"><ele></ele><time>2013-8-6T0:43:41Z</time></trkpt>
<trkpt lat="46.285572052002" lon="7.23103713989258"><ele></ele><time>2013-8-6T0:43:44Z</time></trkpt>
<trkpt lat="46.2855567932129" lon="7.23091697692871"><ele></ele><time>2013-8-6T0:43:47Z</time></trkpt>
<trkpt lat="46.2855491638184" lon="7.23088264465332"><ele></ele><time>2013-8-6T0:43:50Z</time></trkpt>
<trkpt lat="46.2855415344238" lon="7.23084878921509"><ele></ele><time>2013-8-6T0:43:53Z</time></trkpt>
<trkpt lat="46.2855262756348" lon="7.23081350326538"><ele></ele><time>2013-8-6T0:43:56Z</time></trkpt>
<trkpt lat="46.285514831543" lon="7.23077774047852"><ele></ele><time>2013-8-6T0:43:59Z</time></trkpt>
<trkpt lat="46.2855033874512" lon="7.23074007034302"><ele></ele><time>2013-8-6T0:44:2Z</time></trkpt>
<trkpt lat="46.2854766845703" lon="7.23067235946655"><ele></ele><time>2013-8-6T0:44:5Z</time></trkpt>
<trkpt lat="46.2854156494141" lon="7.23049879074097"><ele></ele><time>2013-8-6T0:44:8Z</time></trkpt>
<trkpt lat="46.2854080200195" lon="7.23046350479126"><ele></ele><time>2013-8-6T0:44:11Z</time></trkpt>
<trkpt lat="46.285400390625" lon="7.2304253578186"><ele></ele><time>2013-8-6T0:44:14Z</time></trkpt>
<trkpt lat="46.2853889465332" lon="7.2303900718689"><ele></ele><time>2013-8-6T0:44:17Z</time></trkpt>
<trkpt lat="46.2853775024414" lon="7.23024272918701"><ele></ele><time>2013-8-6T0:44:20Z</time></trkpt>
<trkpt lat="46.2853736877441" lon="7.23020553588867"><ele></ele><time>2013-8-6T0:44:23Z</time></trkpt>
<trkpt lat="46.2853698730469" lon="7.23017311096191"><ele></ele><time>2013-8-6T0:44:26Z</time></trkpt>
<trkpt lat="46.2853660583496" lon="7.23013544082642"><ele></ele><time>2013-8-6T0:44:29Z</time></trkpt>
<trkpt lat="46.2853660583496" lon="7.23009872436524"><ele></ele><time>2013-8-6T0:44:32Z</time></trkpt>
<trkpt lat="46.2853622436523" lon="7.22990655899048"><ele></ele><time>2013-8-6T0:44:35Z</time></trkpt>
<trkpt lat="46.2853622436523" lon="7.22986936569214"><ele></ele><time>2013-8-6T0:44:38Z</time></trkpt>
<trkpt lat="46.2853660583496" lon="7.22983551025391"><ele></ele><time>2013-8-6T0:44:41Z</time></trkpt>
<trkpt lat="46.2853660583496" lon="7.22980451583862"><ele></ele><time>2013-8-6T0:44:44Z</time></trkpt>
<trkpt lat="46.2853660583496" lon="7.2297682762146"><ele></ele><time>2013-8-6T0:44:47Z</time></trkpt>
<trkpt lat="46.2853736877441" lon="7.22962617874146"><ele></ele><time>2013-8-6T0:44:50Z</time></trkpt>
<trkpt lat="46.2853736877441" lon="7.22959041595459"><ele></ele><time>2013-8-6T0:44:53Z</time></trkpt>
<trkpt lat="46.2853698730469" lon="7.22955369949341"><ele></ele><time>2013-8-6T0:44:56Z</time></trkpt>
<trkpt lat="46.2853698730469" lon="7.22951555252075"><ele></ele><time>2013-8-6T0:44:59Z</time></trkpt>
<trkpt lat="46.2853698730469" lon="7.22947549819946"><ele></ele><time>2013-8-6T0:45:2Z</time></trkpt>
<trkpt lat="46.2853660583496" lon="7.22943830490112"><ele></ele><time>2013-8-6T0:45:5Z</time></trkpt>
<trkpt lat="46.2853469848633" lon="7.22921800613403"><ele></ele><time>2013-8-6T0:45:8Z</time></trkpt>
<trkpt lat="46.2853355407715" lon="7.2291841506958"><ele></ele><time>2013-8-6T0:45:11Z</time></trkpt>
<trkpt lat="46.2853317260742" lon="7.22915124893188"><ele></ele><time>2013-8-6T0:45:14Z</time></trkpt>
<trkpt lat="46.2853202819824" lon="7.2291202545166"><ele></ele><time>2013-8-6T0:45:17Z</time></trkpt>
<trkpt lat="46.2853164672852" lon="7.22908735275268"><ele></ele><time>2013-8-6T0:45:20Z</time></trkpt>
<trkpt lat="46.2852821350098" lon="7.22891235351562"><ele></ele><time>2013-8-6T0:45:23Z</time></trkpt>
<trkpt lat="46.2852745056152" lon="7.22887754440308"><ele></ele><time>2013-8-6T0:45:26Z</time></trkpt>
<trkpt lat="46.2852668762207" lon="7.22884559631348"><ele></ele><time>2013-8-6T0:45:29Z</time></trkpt>
<trkpt lat="46.2852592468262" lon="7.22881317138672"><ele></ele><time>2013-8-6T0:45:32Z</time></trkpt>
<trkpt lat="46.2852516174316" lon="7.22878074645996"><ele></ele><time>2013-8-6T0:45:35Z</time></trkpt>
<trkpt lat="46.2852249145508" lon="7.2286810874939"><ele></ele><time>2013-8-6T0:45:38Z</time></trkpt>
<trkpt lat="46.2852172851562" lon="7.22864580154419"><ele></ele><time>2013-8-6T0:45:41Z</time></trkpt>
<trkpt lat="46.2852096557617" lon="7.22861099243164"><ele></ele><time>2013-8-6T0:45:44Z</time></trkpt>
<trkpt lat="46.2852020263672" lon="7.22857475280762"><ele></ele><time>2013-8-6T0:45:47Z</time></trkpt>
<trkpt lat="46.2851524353027" lon="7.22840595245361"><ele></ele><time>2013-8-6T0:45:50Z</time></trkpt>
<trkpt lat="46.2851448059082" lon="7.22837114334106"><ele></ele><time>2013-8-6T0:45:53Z</time></trkpt>
<trkpt lat="46.2851371765137" lon="7.22833824157715"><ele></ele><time>2013-8-6T0:45:56Z</time></trkpt>
<trkpt lat="46.2851295471191" lon="7.22830581665039"><ele></ele><time>2013-8-6T0:45:59Z</time></trkpt>
<trkpt lat="46.2851181030273" lon="7.228271484375"><ele></ele><time>2013-8-6T0:46:2Z</time></trkpt>
<trkpt lat="46.285099029541" lon="7.2281665802002"><ele></ele><time>2013-8-6T0:46:5Z</time></trkpt>
<trkpt lat="46.2850914001465" lon="7.22809505462646"><ele></ele><time>2013-8-6T0:46:8Z</time></trkpt>
<trkpt lat="46.2850875854492" lon="7.22805738449097"><ele></ele><time>2013-8-6T0:46:11Z</time></trkpt>
<trkpt lat="46.285083770752" lon="7.22802066802978"><ele></ele><time>2013-8-6T0:46:14Z</time></trkpt>
<trkpt lat="46.2850761413574" lon="7.22798538208008"><ele></ele><time>2013-8-6T0:46:17Z</time></trkpt>
<trkpt lat="46.2850761413574" lon="7.227952003479"><ele></ele><time>2013-8-6T0:46:20Z</time></trkpt>
<trkpt lat="46.285083770752" lon="7.22784519195557"><ele></ele><time>2013-8-6T0:46:23Z</time></trkpt>
<trkpt lat="46.2850914001465" lon="7.22781324386597"><ele></ele><time>2013-8-6T0:46:26Z</time></trkpt>
<trkpt lat="46.2850952148438" lon="7.2277774810791"><ele></ele><time>2013-8-6T0:46:29Z</time></trkpt>
<trkpt lat="46.2851028442383" lon="7.22775030136108"><ele></ele><time>2013-8-6T0:46:32Z</time></trkpt>
<trkpt lat="46.2851066589356" lon="7.22772073745728"><ele></ele><time>2013-8-6T0:46:35Z</time></trkpt>
<trkpt lat="46.2851181030273" lon="7.22768497467041"><ele></ele><time>2013-8-6T0:46:38Z</time></trkpt>
<trkpt lat="46.2851295471191" lon="7.2276463508606"><ele></ele><time>2013-8-6T0:46:41Z</time></trkpt>
<trkpt lat="46.2851638793945" lon="7.2275013923645"><ele></ele><time>2013-8-6T0:46:44Z</time></trkpt>
<trkpt lat="46.2851715087891" lon="7.2274661064148"><ele></ele><time>2013-8-6T0:46:47Z</time></trkpt>
<trkpt lat="46.2851791381836" lon="7.2274284362793"><ele></ele><time>2013-8-6T0:46:50Z</time></trkpt>
<trkpt lat="46.2851867675781" lon="7.22739505767822"><ele></ele><time>2013-8-6T0:46:53Z</time></trkpt>
<trkpt lat="46.2851943969727" lon="7.22735500335693"><ele></ele><time>2013-8-6T0:46:56Z</time></trkpt>
<trkpt lat="46.2852401733398" lon="7.22715616226196"><ele></ele><time>2013-8-6T0:46:59Z</time></trkpt>
<trkpt lat="46.2852439880371" lon="7.22711944580078"><ele></ele><time>2013-8-6T0:47:2Z</time></trkpt>
<trkpt lat="46.2852478027344" lon="7.22707462310791"><ele></ele><time>2013-8-6T0:47:5Z</time></trkpt>
<trkpt lat="46.2852516174316" lon="7.22703647613525"><ele></ele><time>2013-8-6T0:47:8Z</time></trkpt>
<trkpt lat="46.2852592468262" lon="7.22699451446533"><ele></ele><time>2013-8-6T0:47:11Z</time></trkpt>
<trkpt lat="46.285270690918" lon="7.22694969177246"><ele></ele><time>2013-8-6T0:47:14Z</time></trkpt>
<trkpt lat="46.2852783203125" lon="7.22690486907959"><ele></ele><time>2013-8-6T0:47:17Z</time></trkpt>
<trkpt lat="46.2852897644043" lon="7.2268590927124"><ele></ele><time>2013-8-6T0:47:20Z</time></trkpt>
<trkpt lat="46.2852897644043" lon="7.2268180847168"><ele></ele><time>2013-8-6T0:47:23Z</time></trkpt>
<trkpt lat="46.2852973937988" lon="7.22678804397583"><ele></ele><time>2013-8-6T0:47:26Z</time></trkpt>
<trkpt lat="46.2853012084961" lon="7.2267541885376"><ele></ele><time>2013-8-6T0:47:29Z</time></trkpt>
<trkpt lat="46.2853088378906" lon="7.226722240448"><ele></ele><time>2013-8-6T0:47:32Z</time></trkpt>
<trkpt lat="46.2853317260742" lon="7.22662162780762"><ele></ele><time>2013-8-6T0:47:35Z</time></trkpt>
<trkpt lat="46.2853393554688" lon="7.22659111022949"><ele></ele><time>2013-8-6T0:47:38Z</time></trkpt>
<trkpt lat="46.2853507995606" lon="7.2265567779541"><ele></ele><time>2013-8-6T0:47:41Z</time></trkpt>
<trkpt lat="46.2853622436523" lon="7.22652578353882"><ele></ele><time>2013-8-6T0:47:44Z</time></trkpt>
<trkpt lat="46.2853660583496" lon="7.2264928817749"><ele></ele><time>2013-8-6T0:47:47Z</time></trkpt>
<trkpt lat="46.2854232788086" lon="7.2263240814209"><ele></ele><time>2013-8-6T0:47:50Z</time></trkpt>
<trkpt lat="46.2854347229004" lon="7.22629261016846"><ele></ele><time>2013-8-6T0:47:53Z</time></trkpt>
<trkpt lat="46.2854461669922" lon="7.22625923156738"><ele></ele><time>2013-8-6T0:47:56Z</time></trkpt>
<trkpt lat="46.285457611084" lon="7.22622537612915"><ele></ele><time>2013-8-6T0:47:59Z</time></trkpt>
<trkpt lat="46.2854690551758" lon="7.22619390487671"><ele></ele><time>2013-8-6T0:48:2Z</time></trkpt>
<trkpt lat="46.2854766845703" lon="7.22616243362427"><ele></ele><time>2013-8-6T0:48:5Z</time></trkpt>
<trkpt lat="46.2855072021484" lon="7.2260684967041"><ele></ele><time>2013-8-6T0:48:8Z</time></trkpt>
<trkpt lat="46.2855224609375" lon="7.22603416442871"><ele></ele><time>2013-8-6T0:48:11Z</time></trkpt>
<trkpt lat="46.2855339050293" lon="7.22599744796753"><ele></ele><time>2013-8-6T0:48:14Z</time></trkpt>
<trkpt lat="46.2855453491211" lon="7.22596216201782"><ele></ele><time>2013-8-6T0:48:17Z</time></trkpt>
<trkpt lat="46.2855567932129" lon="7.22593116760254"><ele></ele><time>2013-8-6T0:48:20Z</time></trkpt>
<trkpt lat="46.2855834960938" lon="7.22582674026489"><ele></ele><time>2013-8-6T0:48:23Z</time></trkpt>
<trkpt lat="46.2856025695801" lon="7.2257513999939"><ele></ele><time>2013-8-6T0:48:26Z</time></trkpt>
<trkpt lat="46.2856063842773" lon="7.22571754455566"><ele></ele><time>2013-8-6T0:48:29Z</time></trkpt>
<trkpt lat="46.2856216430664" lon="7.22567892074585"><ele></ele><time>2013-8-6T0:48:32Z</time></trkpt>
<trkpt lat="46.2856330871582" lon="7.2256498336792"><ele></ele><time>2013-8-6T0:48:35Z</time></trkpt>
<trkpt lat="46.28564453125" lon="7.22560691833496"><ele></ele><time>2013-8-6T0:48:38Z</time></trkpt>
<trkpt lat="46.2856826782227" lon="7.22544097900391"><ele></ele><time>2013-8-6T0:48:41Z</time></trkpt>
<trkpt lat="46.2856826782227" lon="7.2254114151001"><ele></ele><time>2013-8-6T0:48:44Z</time></trkpt>
<trkpt lat="46.2856864929199" lon="7.22537708282471"><ele></ele><time>2013-8-6T0:48:47Z</time></trkpt>
<trkpt lat="46.2856864929199" lon="7.22533845901489"><ele></ele><time>2013-8-6T0:48:50Z</time></trkpt>
<trkpt lat="46.2856979370117" lon="7.22530364990234"><ele></ele><time>2013-8-6T0:48:53Z</time></trkpt>
<trkpt lat="46.2857131958008" lon="7.2251992225647"><ele></ele><time>2013-8-6T0:48:56Z</time></trkpt>
<trkpt lat="46.2857284545898" lon="7.22512149810791"><ele></ele><time>2013-8-6T0:48:59Z</time></trkpt>
<trkpt lat="46.2857322692871" lon="7.22507810592651"><ele></ele><time>2013-8-6T0:49:2Z</time></trkpt>
<trkpt lat="46.2857437133789" lon="7.22503995895386"><ele></ele><time>2013-8-6T0:49:5Z</time></trkpt>
<trkpt lat="46.2857513427734" lon="7.22500371932983"><ele></ele><time>2013-8-6T0:49:8Z</time></trkpt>
<trkpt lat="46.285758972168" lon="7.22497034072876"><ele></ele><time>2013-8-6T0:49:11Z</time></trkpt>
<trkpt lat="46.2857933044434" lon="7.22478437423706"><ele></ele><time>2013-8-6T0:49:14Z</time></trkpt>
<trkpt lat="46.2858009338379" lon="7.22474956512451"><ele></ele><time>2013-8-6T0:49:17Z</time></trkpt>
<trkpt lat="46.2858123779297" lon="7.22471284866333"><ele></ele><time>2013-8-6T0:49:20Z</time></trkpt>
<trkpt lat="46.2858238220215" lon="7.22467470169067"><ele></ele><time>2013-8-6T0:49:23Z</time></trkpt>
<trkpt lat="46.285831451416" lon="7.22463941574097"><ele></ele><time>2013-8-6T0:49:26Z</time></trkpt>
<trkpt lat="46.2859001159668" lon="7.22448539733887"><ele></ele><time>2013-8-6T0:49:29Z</time></trkpt>
<trkpt lat="46.2859230041504" lon="7.2244086265564"><ele></ele><time>2013-8-6T0:49:32Z</time></trkpt>
<trkpt lat="46.2859306335449" lon="7.22436571121216"><ele></ele><time>2013-8-6T0:49:35Z</time></trkpt>
<trkpt lat="46.2859268188477" lon="7.2243242263794"><ele></ele><time>2013-8-6T0:49:38Z</time></trkpt>
<trkpt lat="46.2859115600586" lon="7.22428941726685"><ele></ele><time>2013-8-6T0:49:41Z</time></trkpt>
<trkpt lat="46.2858352661133" lon="7.22427463531494"><ele></ele><time>2013-8-6T0:49:44Z</time></trkpt>
<trkpt lat="46.2857627868652" lon="7.22438192367554"><ele></ele><time>2013-8-6T0:49:47Z</time></trkpt>
<trkpt lat="46.2857437133789" lon="7.22440910339356"><ele></ele><time>2013-8-6T0:49:50Z</time></trkpt>
<trkpt lat="46.2857284545898" lon="7.22443914413452"><ele></ele><time>2013-8-6T0:49:53Z</time></trkpt>
<trkpt lat="46.2857131958008" lon="7.22446966171265"><ele></ele><time>2013-8-6T0:49:56Z</time></trkpt>
<trkpt lat="46.2856903076172" lon="7.22449493408203"><ele></ele><time>2013-8-6T0:49:59Z</time></trkpt>
<trkpt lat="46.2856254577637" lon="7.22456884384155"><ele></ele><time>2013-8-6T0:50:2Z</time></trkpt>
<trkpt lat="46.285530090332" lon="7.22464370727539"><ele></ele><time>2013-8-6T0:50:5Z</time></trkpt>
<trkpt lat="46.2854957580566" lon="7.22465991973877"><ele></ele><time>2013-8-6T0:50:8Z</time></trkpt>
<trkpt lat="46.2854690551758" lon="7.22466230392456"><ele></ele><time>2013-8-6T0:50:11Z</time></trkpt>
<trkpt lat="46.2854461669922" lon="7.22466516494751"><ele></ele><time>2013-8-6T0:50:14Z</time></trkpt>
<trkpt lat="46.2853317260742" lon="7.22460985183716"><ele></ele><time>2013-8-6T0:50:17Z</time></trkpt>
<trkpt lat="46.2853126525879" lon="7.22459173202515"><ele></ele><time>2013-8-6T0:50:20Z</time></trkpt>
<trkpt lat="46.2852897644043" lon="7.22457885742188"><ele></ele><time>2013-8-6T0:50:23Z</time></trkpt>
<trkpt lat="46.285270690918" lon="7.22455883026123"><ele></ele><time>2013-8-6T0:50:26Z</time></trkpt>
<trkpt lat="46.2852516174316" lon="7.22454071044922"><ele></ele><time>2013-8-6T0:50:29Z</time></trkpt>
<trkpt lat="46.2852096557617" lon="7.22449779510498"><ele></ele><time>2013-8-6T0:50:32Z</time></trkpt>
<trkpt lat="46.2851448059082" lon="7.2244291305542"><ele></ele><time>2013-8-6T0:50:35Z</time></trkpt>
<trkpt lat="46.2851295471191" lon="7.22439956665039"><ele></ele><time>2013-8-6T0:50:38Z</time></trkpt>
<trkpt lat="46.2851142883301" lon="7.22437429428101"><ele></ele><time>2013-8-6T0:50:41Z</time></trkpt>
<trkpt lat="46.285083770752" lon="7.22435712814331"><ele></ele><time>2013-8-6T0:50:44Z</time></trkpt>
<trkpt lat="46.2850608825684" lon="7.22434139251709"><ele></ele><time>2013-8-6T0:50:47Z</time></trkpt>
<trkpt lat="46.2849731445312" lon="7.22426605224609"><ele></ele><time>2013-8-6T0:50:50Z</time></trkpt>
<trkpt lat="46.2849540710449" lon="7.22424650192261"><ele></ele><time>2013-8-6T0:50:53Z</time></trkpt>
<trkpt lat="46.2849349975586" lon="7.22423505783081"><ele></ele><time>2013-8-6T0:50:56Z</time></trkpt>
<trkpt lat="46.2849082946777" lon="7.22422790527344"><ele></ele><time>2013-8-6T0:50:59Z</time></trkpt>
<trkpt lat="46.2848091125488" lon="7.22421789169312"><ele></ele><time>2013-8-6T0:51:2Z</time></trkpt>
<trkpt lat="46.284782409668" lon="7.22421836853027"><ele></ele><time>2013-8-6T0:51:5Z</time></trkpt>
<trkpt lat="46.2847595214844" lon="7.22420358657837"><ele></ele><time>2013-8-6T0:51:8Z</time></trkpt>
<trkpt lat="46.2847366333008" lon="7.22420787811279"><ele></ele><time>2013-8-6T0:51:11Z</time></trkpt>
<trkpt lat="46.2847099304199" lon="7.22421026229858"><ele></ele><time>2013-8-6T0:51:14Z</time></trkpt>
<trkpt lat="46.2846908569336" lon="7.22421312332153"><ele></ele><time>2013-8-6T0:51:17Z</time></trkpt>
<trkpt lat="46.2845497131348" lon="7.22428131103516"><ele></ele><time>2013-8-6T0:51:20Z</time></trkpt>
<trkpt lat="46.2845268249512" lon="7.22430515289307"><ele></ele><time>2013-8-6T0:51:23Z</time></trkpt>
<trkpt lat="46.2845001220703" lon="7.22432374954224"><ele></ele><time>2013-8-6T0:51:26Z</time></trkpt>
<trkpt lat="46.284481048584" lon="7.22433567047119"><ele></ele><time>2013-8-6T0:51:29Z</time></trkpt>
<trkpt lat="46.2844619750977" lon="7.2243480682373"><ele></ele><time>2013-8-6T0:51:32Z</time></trkpt>
<trkpt lat="46.2844009399414" lon="7.22440242767334"><ele></ele><time>2013-8-6T0:51:35Z</time></trkpt>
<trkpt lat="46.2842483520508" lon="7.22441816329956"><ele></ele><time>2013-8-6T0:51:38Z</time></trkpt>
<trkpt lat="46.2842216491699" lon="7.22439765930176"><ele></ele><time>2013-8-6T0:51:41Z</time></trkpt>
<trkpt lat="46.2842063903809" lon="7.22437620162964"><ele></ele><time>2013-8-6T0:51:44Z</time></trkpt>
<trkpt lat="46.2841873168945" lon="7.22435474395752"><ele></ele><time>2013-8-6T0:51:47Z</time></trkpt>
<trkpt lat="46.2841720581055" lon="7.22432374954224"><ele></ele><time>2013-8-6T0:51:50Z</time></trkpt>
<trkpt lat="46.2841529846191" lon="7.22430181503296"><ele></ele><time>2013-8-6T0:51:53Z</time></trkpt>
<trkpt lat="46.2841339111328" lon="7.22428321838379"><ele></ele><time>2013-8-6T0:51:56Z</time></trkpt>
<trkpt lat="46.2841148376465" lon="7.22426462173462"><ele></ele><time>2013-8-6T0:51:59Z</time></trkpt>
<trkpt lat="46.2840957641602" lon="7.22425413131714"><ele></ele><time>2013-8-6T0:52:2Z</time></trkpt>
<trkpt lat="46.2840766906738" lon="7.22423791885376"><ele></ele><time>2013-8-6T0:52:5Z</time></trkpt>
<trkpt lat="46.2840538024902" lon="7.22422218322754"><ele></ele><time>2013-8-6T0:52:8Z</time></trkpt>
<trkpt lat="46.2839965820312" lon="7.22417116165161"><ele></ele><time>2013-8-6T0:52:11Z</time></trkpt>
<trkpt lat="46.2839736938477" lon="7.22415494918823"><ele></ele><time>2013-8-6T0:52:14Z</time></trkpt>
<trkpt lat="46.2839584350586" lon="7.22412776947022"><ele></ele><time>2013-8-6T0:52:17Z</time></trkpt>
<trkpt lat="46.2839393615723" lon="7.22410869598389"><ele></ele><time>2013-8-6T0:52:20Z</time></trkpt>
<trkpt lat="46.2839164733887" lon="7.22409152984619"><ele></ele><time>2013-8-6T0:52:23Z</time></trkpt>
<trkpt lat="46.2838973999023" lon="7.22407531738281"><ele></ele><time>2013-8-6T0:52:26Z</time></trkpt>
<trkpt lat="46.2838592529297" lon="7.22403717041016"><ele></ele><time>2013-8-6T0:52:29Z</time></trkpt>
<trkpt lat="46.2838363647461" lon="7.22401762008667"><ele></ele><time>2013-8-6T0:52:32Z</time></trkpt>
<trkpt lat="46.2838172912598" lon="7.22399950027466"><ele></ele><time>2013-8-6T0:52:35Z</time></trkpt>
<trkpt lat="46.2837982177734" lon="7.22398090362549"><ele></ele><time>2013-8-6T0:52:38Z</time></trkpt>
<trkpt lat="46.2837791442871" lon="7.22395944595337"><ele></ele><time>2013-8-6T0:52:41Z</time></trkpt>
<trkpt lat="46.2837066650391" lon="7.22390842437744"><ele></ele><time>2013-8-6T0:52:44Z</time></trkpt>
<trkpt lat="46.2836647033691" lon="7.22388362884522"><ele></ele><time>2013-8-6T0:52:47Z</time></trkpt>
<trkpt lat="46.2836418151856" lon="7.22386598587036"><ele></ele><time>2013-8-6T0:52:50Z</time></trkpt>
<trkpt lat="46.283618927002" lon="7.22384834289551"><ele></ele><time>2013-8-6T0:52:53Z</time></trkpt>
<trkpt lat="46.2835960388184" lon="7.22383642196655"><ele></ele><time>2013-8-6T0:52:56Z</time></trkpt>
<trkpt lat="46.283576965332" lon="7.2238187789917"><ele></ele><time>2013-8-6T0:52:59Z</time></trkpt>
<trkpt lat="46.2835311889648" lon="7.22378635406494"><ele></ele><time>2013-8-6T0:53:2Z</time></trkpt>
<trkpt lat="46.2834510803223" lon="7.22371578216553"><ele></ele><time>2013-8-6T0:53:5Z</time></trkpt>
<trkpt lat="46.2834243774414" lon="7.22370386123657"><ele></ele><time>2013-8-6T0:53:8Z</time></trkpt>
<trkpt lat="46.2833976745606" lon="7.22369289398193"><ele></ele><time>2013-8-6T0:53:11Z</time></trkpt>
<trkpt lat="46.2833786010742" lon="7.22367477416992"><ele></ele><time>2013-8-6T0:53:14Z</time></trkpt>
<trkpt lat="46.2833595275879" lon="7.22365713119507"><ele></ele><time>2013-8-6T0:53:17Z</time></trkpt>
<trkpt lat="46.2832107543945" lon="7.22357559204102"><ele></ele><time>2013-8-6T0:53:20Z</time></trkpt>
<trkpt lat="46.2831802368164" lon="7.2235517501831"><ele></ele><time>2013-8-6T0:53:23Z</time></trkpt>
<trkpt lat="46.2831573486328" lon="7.22353506088257"><ele></ele><time>2013-8-6T0:53:26Z</time></trkpt>
<trkpt lat="46.2831344604492" lon="7.22352123260498"><ele></ele><time>2013-8-6T0:53:29Z</time></trkpt>
<trkpt lat="46.2831115722656" lon="7.22350645065308"><ele></ele><time>2013-8-6T0:53:32Z</time></trkpt>
<trkpt lat="46.2830390930176" lon="7.22341537475586"><ele></ele><time>2013-8-6T0:53:35Z</time></trkpt>
<trkpt lat="46.2830200195312" lon="7.22339200973511"><ele></ele><time>2013-8-6T0:53:38Z</time></trkpt>
<trkpt lat="46.2830009460449" lon="7.22336721420288"><ele></ele><time>2013-8-6T0:53:41Z</time></trkpt>
<trkpt lat="46.2829856872559" lon="7.22333908081055"><ele></ele><time>2013-8-6T0:53:44Z</time></trkpt>
<trkpt lat="46.2829742431641" lon="7.22330951690674"><ele></ele><time>2013-8-6T0:53:47Z</time></trkpt>
<trkpt lat="46.2829360961914" lon="7.22320985794067"><ele></ele><time>2013-8-6T0:53:50Z</time></trkpt>
<trkpt lat="46.2829132080078" lon="7.22314548492432"><ele></ele><time>2013-8-6T0:53:53Z</time></trkpt>
<trkpt lat="46.2828941345215" lon="7.22309732437134"><ele></ele><time>2013-8-6T0:53:56Z</time></trkpt>
<trkpt lat="46.2828483581543" lon="7.2229528427124"><ele></ele><time>2013-8-6T0:53:59Z</time></trkpt>
<trkpt lat="46.2828407287598" lon="7.22291469573975"><ele></ele><time>2013-8-6T0:54:2Z</time></trkpt>
<trkpt lat="46.2828369140625" lon="7.22287321090698"><ele></ele><time>2013-8-6T0:54:5Z</time></trkpt>
<trkpt lat="46.2828369140625" lon="7.22283267974854"><ele></ele><time>2013-8-6T0:54:8Z</time></trkpt>
<trkpt lat="46.2828369140625" lon="7.2227931022644"><ele></ele><time>2013-8-6T0:54:11Z</time></trkpt>
<trkpt lat="46.2828636169434" lon="7.22261762619018"><ele></ele><time>2013-8-6T0:54:14Z</time></trkpt>
<trkpt lat="46.2828712463379" lon="7.22257661819458"><ele></ele><time>2013-8-6T0:54:17Z</time></trkpt>
<trkpt lat="46.2828826904297" lon="7.22253656387329"><ele></ele><time>2013-8-6T0:54:20Z</time></trkpt>
<trkpt lat="46.2828941345215" lon="7.22249746322632"><ele></ele><time>2013-8-6T0:54:23Z</time></trkpt>
<trkpt lat="46.2829093933106" lon="7.22245979309082"><ele></ele><time>2013-8-6T0:54:26Z</time></trkpt>
<trkpt lat="46.2829437255859" lon="7.2223858833313"><ele></ele><time>2013-8-6T0:54:29Z</time></trkpt>
<trkpt lat="46.2830123901367" lon="7.2221565246582"><ele></ele><time>2013-8-6T0:54:32Z</time></trkpt>
<trkpt lat="46.2830200195312" lon="7.22211313247681"><ele></ele><time>2013-8-6T0:54:35Z</time></trkpt>
<trkpt lat="46.2830238342285" lon="7.22206830978394"><ele></ele><time>2013-8-6T0:54:38Z</time></trkpt>
<trkpt lat="46.2830238342285" lon="7.22202491760254"><ele></ele><time>2013-8-6T0:54:41Z</time></trkpt>
<trkpt lat="46.2830276489258" lon="7.22197341918945"><ele></ele><time>2013-8-6T0:54:44Z</time></trkpt>
<trkpt lat="46.283016204834" lon="7.22183895111084"><ele></ele><time>2013-8-6T0:54:47Z</time></trkpt>
<trkpt lat="46.2829742431641" lon="7.22158908843994"><ele></ele><time>2013-8-6T0:54:50Z</time></trkpt>
<trkpt lat="46.2829627990723" lon="7.22154808044434"><ele></ele><time>2013-8-6T0:54:53Z</time></trkpt>
<trkpt lat="46.2829551696777" lon="7.22150182723999"><ele></ele><time>2013-8-6T0:54:56Z</time></trkpt>
<trkpt lat="46.2829437255859" lon="7.2214560508728"><ele></ele><time>2013-8-6T0:54:59Z</time></trkpt>
<trkpt lat="46.2829322814941" lon="7.22141218185425"><ele></ele><time>2013-8-6T0:55:2Z</time></trkpt>
<trkpt lat="46.2828941345215" lon="7.22124814987183"><ele></ele><time>2013-8-6T0:55:5Z</time></trkpt>
<trkpt lat="46.2828636169434" lon="7.22111988067627"><ele></ele><time>2013-8-6T0:55:8Z</time></trkpt>
<trkpt lat="46.2828559875488" lon="7.22107553482056"><ele></ele><time>2013-8-6T0:55:11Z</time></trkpt>
<trkpt lat="46.282844543457" lon="7.22103404998779"><ele></ele><time>2013-8-6T0:55:14Z</time></trkpt>
<trkpt lat="46.2828407287598" lon="7.22099208831787"><ele></ele><time>2013-8-6T0:55:17Z</time></trkpt>
<trkpt lat="46.2828369140625" lon="7.22095012664795"><ele></ele><time>2013-8-6T0:55:20Z</time></trkpt>
<trkpt lat="46.282829284668" lon="7.22090291976929"><ele></ele><time>2013-8-6T0:55:23Z</time></trkpt>
<trkpt lat="46.2828063964844" lon="7.22068881988525"><ele></ele><time>2013-8-6T0:55:26Z</time></trkpt>
<trkpt lat="46.2828063964844" lon="7.22064638137817"><ele></ele><time>2013-8-6T0:55:29Z</time></trkpt>
<trkpt lat="46.2828025817871" lon="7.2206072807312"><ele></ele><time>2013-8-6T0:55:32Z</time></trkpt>
<trkpt lat="46.2828063964844" lon="7.22056484222412"><ele></ele><time>2013-8-6T0:55:35Z</time></trkpt>
<trkpt lat="46.2828102111816" lon="7.22047519683838"><ele></ele><time>2013-8-6T0:55:38Z</time></trkpt>
<trkpt lat="46.2828140258789" lon="7.22030067443848"><ele></ele><time>2013-8-6T0:55:41Z</time></trkpt>
<trkpt lat="46.2828178405762" lon="7.22025632858276"><ele></ele><time>2013-8-6T0:55:44Z</time></trkpt>
<trkpt lat="46.2828178405762" lon="7.22021627426148"><ele></ele><time>2013-8-6T0:55:47Z</time></trkpt>
<trkpt lat="46.2828178405762" lon="7.2201771736145"><ele></ele><time>2013-8-6T0:55:50Z</time></trkpt>
<trkpt lat="46.2828178405762" lon="7.22013759613037"><ele></ele><time>2013-8-6T0:55:53Z</time></trkpt>
<trkpt lat="46.2828178405762" lon="7.21996974945068"><ele></ele><time>2013-8-6T0:55:56Z</time></trkpt>
<trkpt lat="46.2828254699707" lon="7.21993112564087"><ele></ele><time>2013-8-6T0:55:59Z</time></trkpt>
<trkpt lat="46.282829284668" lon="7.2198920249939"><ele></ele><time>2013-8-6T0:56:2Z</time></trkpt>
<trkpt lat="46.282829284668" lon="7.21985673904419"><ele></ele><time>2013-8-6T0:56:5Z</time></trkpt>
<trkpt lat="46.2828330993652" lon="7.21981906890869"><ele></ele><time>2013-8-6T0:56:8Z</time></trkpt>
<trkpt lat="46.2828140258789" lon="7.21968603134155"><ele></ele><time>2013-8-6T0:56:11Z</time></trkpt>
<trkpt lat="46.2827682495117" lon="7.21942901611328"><ele></ele><time>2013-8-6T0:56:14Z</time></trkpt>
<trkpt lat="46.2827682495117" lon="7.21938610076904"><ele></ele><time>2013-8-6T0:56:17Z</time></trkpt>
<trkpt lat="46.2827682495117" lon="7.21934413909912"><ele></ele><time>2013-8-6T0:56:20Z</time></trkpt>
<trkpt lat="46.282772064209" lon="7.21930265426636"><ele></ele><time>2013-8-6T0:56:23Z</time></trkpt>
<trkpt lat="46.2827796936035" lon="7.21925973892212"><ele></ele><time>2013-8-6T0:56:26Z</time></trkpt>
<trkpt lat="46.2828025817871" lon="7.21913433074951"><ele></ele><time>2013-8-6T0:56:29Z</time></trkpt>
<trkpt lat="46.2828712463379" lon="7.21896696090698"><ele></ele><time>2013-8-6T0:56:32Z</time></trkpt>
<trkpt lat="46.282886505127" lon="7.21891164779663"><ele></ele><time>2013-8-6T0:56:35Z</time></trkpt>
<trkpt lat="46.2828979492188" lon="7.21885538101196"><ele></ele><time>2013-8-6T0:56:38Z</time></trkpt>
<trkpt lat="46.2829132080078" lon="7.2187967300415"><ele></ele><time>2013-8-6T0:56:41Z</time></trkpt>
<trkpt lat="46.2829246520996" lon="7.21873331069946"><ele></ele><time>2013-8-6T0:56:44Z</time></trkpt>
<trkpt lat="46.2829322814941" lon="7.21867370605469"><ele></ele><time>2013-8-6T0:56:47Z</time></trkpt>
</trkseg></trk></gpx>